[[{"header":{"parameterUnit":"m.s-1","parameterCategory":1,"la1":31.0,"la2":29.5877,"lo1":-88.7671,"lo2":-86.6584,"dy":0.0162,"dx":0.0185,"nx":115,"ny":88,"refTime":"2023-09-08T18:00:00:Z","depth":0,"parameterNumber":2,"parameterNumberName":"U-component_of_WINDS"},"data":[0.0,0.0,0.0,0.0,0.0,0.0,0.0,0.0,0.0,0.0,0.0,0.0,0.0,0.0,0.0,0.0,0.0,0.0,0.0,0.0,0.0,0.0,0.0,0.0,0.0,0.0,0.0,0.0,0.0,0.0,0.0,0.0,0.0,0.0,0.0,0.0,0.0,0.0,0.0,0.0,0.0,0.0,0.0,0.0,0.0,0.0,0.0,0.0,0.0,0.0,0.0,0.0,0.0,0.0,0.0,0.0,0.0,0.0,0.0,0.0,0.0,0.0,0.0,0.0,0.0,0.0,0.0,0.0,0.0,0.0,0.0,0.0,0.0,0.0,0.0,0.0,0.0,0.0,0.0,0.0,0.0,0.0,0.0,0.0,0.0,0.0,0.0,0.0,0.0,0.0,0.0,0.0,0.0,0.0,0.0,0.0,0.0,0.0,0.0,0.0,0.0,0.0,0.0,0.0,0.0,0.0,0.0,0.0,0.0,0.0,0.0,0.0,0.0,0.0,0.0,0.0,0.0,0.0,0.0,0.0,0.0,0.0,0.0,0.0,0.0,0.0,0.0,0.0,0.0,0.0,0.0,0.0,0.0,0.0,0.0,0.0,0.0,0.0,0.0,0.0,0.0,0.0,0.0,0.0,0.0,0.0,0.0,0.0,0.0,0.0,0.0,0.0,0.0,0.0,0.0,0.0,0.0,0.0,0.0,0.0,0.0,0.0,0.0,0.0,0.0,0.0,0.0,0.0,0.0,0.0,0.0,0.0,0.0,0.0,0.0,0.0,0.0,0.0,0.0,0.0,0.0,0.0,0.0,0.0,0.0,0.0,0.0,0.0,0.0,0.0,0.0,0.0,0.0,0.0,0.0,0.0,0.0,0.0,0.0,0.0,0.0,0.0,0.0,0.0,0.0,0.0,0.0,0.0,0.0,0.0,0.0,0.0,0.0,0.0,0.0,0.0,0.0,0.0,0.0,0.0,0.0,0.0,0.0,0.0,0.0,0.0,0.0,0.0,0.0,0.0,0.0,0.0,0.0,0.0,0.0,0.0,0.0,0.0,0.0,0.0,0.0,0.0,0.0,0.0,0.0,0.0,0.0,0.0,0.0,0.0,0.0,0.0,0.0,0.0,0.0,0.0,0.0,0.0,0.0,0.0,0.0,0.0,0.0,0.0,0.0,0.0,0.0,0.0,0.0,0.0,0.0,0.0,0.0,0.0,0.0,0.0,0.0,0.0,0.0,0.0,0.0,0.0,0.0,0.0,0.0,0.0,0.0,0.0,0.0,0.0,0.0,0.0,0.0,0.0,0.0,0.0,0.0,0.0,0.0,0.0,0.0,0.0,0.0,0.0,0.0,0.0,0.0,0.0,0.0,0.0,0.0,0.0,0.0,0.0,0.0,0.0,0.0,0.0,0.0,0.0,0.0,0.0,0.0,0.0,0.0,0.0,0.0,0.0,0.0,0.0,0.0,0.0,0.0,0.0,0.0,0.0,0.0,0.0,0.0,0.0,0.0,0.0,0.0,0.0,0.0,0.0,0.0,0.0,0.0,0.0,0.0,0.0,0.0,0.0,0.0,0.0,0.0,0.0,0.0,0.0,0.0,0.0,0.0,0.0,0.0,0.0,0.0,0.0,0.0,0.0,0.0,0.0,0.0,0.0,0.0,0.0,0.0,0.0,0.0,0.0,0.0,0.0,0.0,0.0,0.0,0.0,0.0,0.0,0.0,0.0,0.0,0.0,0.0,0.0,0.0,0.0,0.0,0.0,0.0,0.0,0.0,0.0,0.0,0.0,0.0,0.0,0.0,0.0,0.0,0.0,0.0,0.0,0.0,0.0,0.0,0.0,0.0,0.0,0.0,0.0,0.0,0.0,0.0,0.0,0.0,0.0,0.0,0.0,0.0,0.0,0.0,0.0,0.0,0.0,0.0,0.0,0.0,0.0,0.0,0.0,0.0,0.0,0.0,0.0,0.0,0.0,0.0,0.0,0.0,0.0,0.0,0.0,0.0,0.0,0.0,0.0,0.0,0.0,0.0,0.0,0.0,0.0,0.0,0.0,0.0,0.0,0.0,0.0,0.0,0.0,0.0,0.0,0.0,0.0,0.0,0.0,0.0,0.0,0.0,0.0,0.0,0.0,0.0,0.0,0.0,0.0,0.0,0.0,0.0,0.0,0.0,0.0,0.0,0.0,0.0,0.0,0.0,0.0,0.0,0.0,0.0,0.0,0.0,0.0,0.0,0.0,0.0,0.0,0.0,0.0,0.0,0.0,0.0,0.0,0.0,0.0,0.0,0.0,0.0,0.0,0.0,0.0,0.0,0.0,0.0,0.0,0.0,0.0,0.0,0.0,0.0,0.0,0.0,0.0,0.0,0.0,0.0,0.0,0.0,0.0,0.0,0.0,0.0,0.0,0.0,0.0,0.0,0.0,0.0,0.0,0.0,0.0,0.0,0.0,0.0,0.0,0.0,0.0,0.0,0.0,0.0,0.0,0.0,0.0,0.0,0.0,0.0,0.0,0.0,0.0,0.0,0.0,0.0,0.0,0.0,0.0,0.0,0.0,0.0,0.0,0.0,0.0,0.0,0.0,0.0,0.0,0.0,0.0,0.0,0.0,0.0,0.0,0.0,0.0,0.0,0.0,0.0,0.0,0.0,0.0,0.0,0.0,0.0,0.0,0.0,0.0,0.0,0.0,0.0,0.0,0.0,0.0,0.0,0.0,0.0,0.0,0.0,0.0,0.0,0.0,0.0,0.0,0.0,0.0,0.0,0.0,0.0,0.0,0.0,0.0,0.0,0.0,0.0,0.0,0.0,0.0,0.0,0.0,0.0,0.0,0.0,0.0,0.0,0.0,0.0,0.0,0.0,0.0,0.0,0.0,0.0,0.0,0.0,0.0,0.0,0.0,0.0,0.0,0.0,0.0,0.0,0.0,0.0,0.0,0.0,0.0,0.0,0.0,0.0,0.0,0.0,0.0,0.0,0.0,0.0,0.0,0.0,0.0,0.0,0.0,0.0,0.0,0.0,0.0,0.0,0.0,0.0,0.0,0.0,0.0,0.0,0.0,0.0,0.0,0.0,0.0,0.0,0.0,0.0,0.0,0.0,0.0,0.0,0.0,0.0,0.0,0.0,0.0,0.0,0.0,0.0,0.0,0.0,0.0,0.0,0.0,0.0,0.0,0.0,0.0,0.0,0.0,0.0,0.0,0.0,0.0,0.0,0.0,0.0,0.0,0.0,0.0,0.0,0.0,0.0,0.0,0.0,0.0,0.0,0.0,0.0,0.0,0.0,0.0,0.0,0.0,0.0,0.0,0.0,0.0,0.0,0.0,0.0,0.0,0.0,0.0,0.0,0.0,0.0,0.0,0.0,0.0,0.0,0.0,0.0,0.0,0.0,0.0,0.0,0.0,0.0,0.0,0.0,0.0,0.0,0.0,0.0,0.0,0.0,0.0,0.0,0.0,0.0,0.0,0.0,0.0,0.0,0.0,0.0,0.0,0.0,0.0,0.0,0.0,0.0,0.0,0.0,0.0,0.0,0.0,0.0,0.0,0.0,0.0,0.0,0.0,0.0,0.0,0.0,0.0,0.0,0.0,0.0,0.0,0.0,0.0,0.0,0.0,0.0,0.0,0.0,0.0,0.0,0.0,0.0,0.0,0.0,0.0,0.0,0.0,0.0,0.0,0.0,0.0,0.0,0.0,0.0,0.0,0.0,0.0,0.0,0.0,0.0,0.0,0.0,0.0,0.0,0.0,0.0,0.0,0.0,0.0,0.0,0.0,0.0,0.0,0.0,0.0,0.0,0.0,0.0,0.0,0.0,0.0,0.0,0.0,0.0,0.0,0.0,0.0,0.0,0.0,0.0,0.0,0.0,0.0,0.0,0.0,0.0,0.0,0.0,0.0,0.0,0.0,0.0,0.0,0.0,0.0,0.0,0.0,0.0,0.0,0.0,0.0,0.0,0.0,0.0,0.0,0.0,0.0,0.0,0.0,0.0,0.0,0.0,0.0,0.0,0.0,0.0,0.0,0.0,0.0,0.0,0.0,0.0,0.0,0.0,0.0,0.0,0.0,0.0,0.0,0.0,0.0,0.0,0.0,0.0,0.0,0.0,0.0,0.0,0.0,0.0,0.0,0.0,0.0,0.0,0.0,0.0,0.0,0.0,0.0,0.0,0.0,0.0,0.0,0.0,0.0,0.0,0.0,0.0,0.0,0.0,0.0,0.0,0.0,0.0,0.0,0.0,0.0,0.0,0.0,0.0,0.0,0.0,0.0,-0.0314,0.0,0.0,0.0,0.0,0.0,0.0,0.0,0.0,0.0,0.0,0.0,0.0,0.0,0.0,0.0,0.0,0.0,0.0,0.0,0.0,0.0,0.0,0.0,0.0,0.0,0.0,0.0,0.0,0.0,0.0,0.0,0.0,0.0,0.0,0.0,0.0,0.0,0.0,0.0,0.0,0.0,0.0,0.0,0.0,0.0,0.0,0.0,0.0,0.0,0.0,0.0,0.0,0.0,0.0,0.0,0.0,0.0,0.0,0.0,0.0,0.0,0.0,0.0,0.0,0.0,0.0,0.0,0.0,0.0,0.0,0.0,0.0,0.0,0.0,0.0,0.0,0.0,0.0,0.0,0.0,0.0,0.0,0.0,0.0,0.0,0.0,0.0,0.0,0.0,0.0,0.0,0.0,0.0,0.0,0.0,0.0,0.0,0.0,0.0,0.0,0.0,0.0,0.0,0.0,0.0,0.0,0.0,0.0,0.0,0.0,0.0225,0.0473,0.0382,0.0292,0.018,0.0,0.0,0.0,0.0,0.0,0.0,0.0,0.0,0.0,0.0,0.0,0.0,0.0,0.0,0.0,0.0,0.0,0.0,0.0,0.0,0.0,0.0,0.0,0.0,0.0,0.0,0.0,0.0,0.0,0.0,0.0,0.0,0.0,0.0,0.0,0.0,0.0,0.0,0.0,0.0,0.0,0.0,0.0,0.0,0.0,0.0,0.0,0.0,0.0,0.0,0.0,0.0,0.0,0.0,0.0,0.0,0.0,0.0,0.0,0.0,0.0,0.0,0.0,0.0,0.0,0.0,0.0,0.0,0.0,0.0,0.0,0.0,0.0,0.0,0.0,0.0,0.0,0.0,0.0,0.0,0.0,0.0,0.0,0.0,0.0,0.0,0.0,0.0,0.0,0.0,0.0,0.0,0.0,0.0,0.0,0.0,0.0,0.0,0.0,0.0,0.0,0.0,0.0,0.0,0.0,0.0,0.0,0.0,0.0,0.0,0.0,0.0,0.0787,0.0719,0.063,0.0,0.0,0.0,0.0,0.0,0.0,0.0,0.0,0.0,0.0,0.0,0.0,0.0,0.0,0.0,0.0,0.0,0.0,0.0,0.0,0.0,0.0,0.0,0.0,0.0,0.0,0.0,0.0,0.0,0.0,0.0,0.0,0.0,0.0,0.0,0.0,0.0,0.0,0.0,0.0,0.0,0.0,0.0,0.0,0.0,0.0,0.0,0.0,0.0,0.0,0.0,0.0,0.0,0.0,0.0,0.0,0.0,0.0,0.0,0.0,0.0,0.0,0.0,0.0,0.0,0.0,0.0,0.0,0.0,0.0,0.0,0.0,0.0,0.0,0.0,0.0,0.0,0.0,0.0,0.0,0.0,0.0,0.0,0.0,0.0,0.0,0.0,0.0,0.0,0.0,0.0,0.0,0.0,0.0,0.0,0.0,0.0,0.0,0.0,0.0,0.0,0.0,0.0,0.0,0.0,0.0,0.0,0.0,0.0,0.0,0.0914,0.123,0.1074,0.0,0.105,0.0,0.0,0.0,0.0,0.0,0.0,0.0,0.0,0.0,0.0,0.0,0.0,0.0,0.0,0.0,0.0,0.0,0.0,0.0,0.0,0.0,0.0,0.0,0.0,0.0,0.0,0.0,0.0,0.0,0.0,0.0,0.0,0.0,0.0,0.0,0.0,0.0,0.0,0.0,0.0,0.0,0.0,0.0,0.0,0.0,0.0,0.0,0.0,0.0,0.0,0.0,0.0,0.0,0.0,0.0,0.0,0.0,0.0,0.0,0.0,0.0,0.0,0.0,0.0,0.0,0.0,0.0,0.0,0.0,0.0,0.0,0.0,0.0,0.0,0.0,0.0,0.0,0.0,0.0,0.0,0.0,0.0,0.0,0.0,0.0,0.0,0.0,0.0,0.0,0.0,0.0,0.0,0.0,0.0,0.0,0.0,0.0,0.0,0.0,0.0,0.0,0.0,0.0,0.0,0.0,0.0,0.0,0.0,0.0,0.0,0.1252,0.1477,0.1341,0.1319,0.0,0.0,0.0,0.0,0.0,0.0,0.0,0.0,0.0,0.0,0.0,0.0,0.0,0.0,0.0,0.0,0.0,0.0,0.0,0.0,0.0,0.0,0.0,0.0,0.0,0.0,0.0,0.0,0.0,0.0,0.0,0.0,0.0,0.0,0.0,0.0,0.0,0.0,0.0,0.0,0.0,0.0,0.0,0.0,0.0,0.0,0.0,0.0,0.0,0.0,0.0,0.0,0.0,0.0,0.0,0.0,0.0,0.0,0.0,0.0,0.0,0.0,0.0,0.0,0.0,0.0,0.0,0.0,0.0,0.0,0.0,0.0,0.0,0.0,0.0,0.0,0.0,0.0,0.0,0.0,0.0,0.0,0.0,0.0,0.0,0.0,0.0,0.0,0.0,0.0,0.0,0.0,0.0,0.0,0.0,0.0,0.0,0.0,0.0,0.0,0.0,0.0,0.0,0.0,0.0,0.0,0.0,0.0,0.0,0.0,0.1338,0.1544,0.1655,0.161,0.161,0.161,0.0,0.0,0.0,0.0,0.0,0.0,0.0,0.0,0.0,0.0,0.0,0.0,0.0,0.0,0.0,0.0,0.0,0.0,0.0,0.0,0.0,0.0,0.0,0.0,0.0,0.0,0.0,0.0,0.0,0.0,0.0,0.0,0.0,0.0,0.0,0.0,0.0,0.0,0.0,0.0,0.0,0.0,0.0,0.0,0.0,0.0,0.0,0.0,0.0,0.0,0.0,0.0,0.0,0.0,0.0,0.0,0.0,0.0,0.0,0.0,0.0,0.0,0.0,0.0,0.0,0.0,0.0,0.0,0.0,0.0,0.0,0.0,0.0,0.0,0.0,0.0,0.0,0.0,0.0,0.0,0.0,0.0,0.0,0.0,0.0,0.0,0.0,0.0,0.0,0.0,0.0,0.0,0.0,0.0,0.0,0.0,0.0,0.0,0.0,0.0,0.0,0.0,0.0,0.0,0.0,0.0,0.0,0.0,0.1557,0.1651,0.1718,0.1813,0.1872,0.1894,0.0,0.0,0.0,0.0,0.0,0.0,0.0,0.0,0.0,0.0,0.0,0.0,0.0,0.0,0.0,0.0,0.0,0.0,0.0,0.0,0.0,0.0,0.0,0.0,0.0,0.0,0.0,0.0,0.0,0.0,0.0,0.0,0.0,0.0,0.0,0.0,0.0,0.0,0.0,0.0,0.0,0.0,0.0,0.0,0.0,0.0,0.0,0.0,0.0,0.0,0.0,0.0,0.0,0.0,0.0,0.0,0.0,0.0,0.0,0.0,0.0,0.0,0.0,0.0,0.0,0.0,0.0,0.0,0.0,0.0,0.0,0.0,0.0,0.0,0.0,0.0,0.0,0.0,0.0,0.0,0.0,0.0,0.0,0.0,0.0,0.0,0.0,0.0,0.0,0.0,0.0,0.0,0.0,0.0,0.0,0.0,0.0,0.0,0.0,0.0,0.0,0.0,0.0,0.0,0.0,0.0,0.0,0.0,0.0,0.1778,0.2136,0.2303,0.227,0.2221,0.2212,0.0,0.0,0.0,0.0,0.0,0.0,0.0,0.0,0.0,0.0,0.0,0.0,0.0,0.0,0.0,0.0,0.0,0.0,0.0,0.0,0.0,0.0,0.0,0.0,0.0,0.0,0.0,0.0,0.0,0.0,0.0,0.0,0.0,0.0,0.0,0.0,0.0,0.0,0.0,0.0,0.0,0.0,0.0,0.0,0.0,0.0,0.0,0.0,0.0,0.0,0.0,0.0,0.0,0.0,0.0,0.0,0.0,0.0,0.0,0.0,0.0,0.0,0.0,0.0,0.0,0.0,0.0,0.0,0.0,0.0,0.0,0.0,0.0,0.0,0.0,0.0,0.0,0.0,0.0,0.0,0.0,0.0,0.0,0.0,0.0,0.0,0.0,0.0,0.0,0.0,0.0,0.0,0.0,0.0,0.0,0.0,0.0,0.0,0.0,0.0,0.0,0.0,0.0,0.0,0.0,0.0,0.0,0.0,0.0,0.2104,0.0,0.2767,0.2558,0.255,0.2486,0.0,0.0,0.0,0.0,0.0,0.0,0.0,0.0,0.0,0.0,0.0,0.0,0.0,0.0,0.0,0.0,0.0,0.0,0.0,0.0,0.0,0.0,0.0,0.0,0.0,0.0,0.0,0.0,0.0,0.0,0.0,0.0,0.0,0.0,0.0,0.0,0.0,0.0,0.0,0.0,0.0,0.0,0.0,0.0,0.0,0.0,0.0,0.0,0.0,0.0,0.0,0.0,0.0,0.0,0.0,0.0,0.0,0.0,0.0,0.0,0.0,0.0,0.0,0.0,0.0,0.0,0.0,0.0,0.0,0.0,0.0,0.0,0.0,0.0,0.0,0.0,0.0,0.0,0.0,0.0,0.0,0.0,0.0,0.0,0.0,0.0,0.0,0.0,0.0,0.0,0.0,0.0,0.0,0.0,0.0,0.0,0.0,0.0,0.0,0.0,0.0,0.0,0.0,0.0,0.0,0.0,0.0,0.0,0.2637,0.2716,0.3014,0.3027,0.2716,0.2758,0.2693,0.0,0.0,0.0,0.0,0.0,0.0,0.0,0.0,0.0,0.0,0.0,0.0,0.0,0.0,0.0,0.0,0.0,0.0,0.0,0.0,0.0,0.0,0.0,0.0,0.0,0.0,0.0,0.0,0.0,0.0,0.0,0.0,0.0,0.0,0.0,0.0,0.0,0.0,0.0,0.0,0.0,0.0,0.0,0.0,0.0,0.0,0.0,0.0,0.0,0.0,0.0,0.0,0.0,0.0,0.0,0.0,0.0,0.0,0.0,0.0,0.0,0.0,0.0,0.0,0.0,0.0,0.0,0.0,0.0,0.0,0.0,0.0,0.0,0.0,0.0,0.0,0.0,0.0,0.0,0.0,0.0,0.0,0.0,0.0,0.0,0.0,0.0,0.0,0.0,0.0,0.0,0.0,0.0,0.0,0.0,0.0,0.0,0.0,0.0,0.0,0.0,0.0,0.0,0.0,0.0,0.0,0.0,0.0,0.0,0.305,0.3046,0.3046,0.2975,0.2916,0.2855,0.0,0.0,0.0,0.0,0.0,0.0,0.0,0.0,0.0,0.0,0.0,0.0,0.0,0.0,0.0,0.0,0.0,0.0,0.0,0.0,0.0,0.0,0.0,0.0,0.0,0.0,0.0,0.0,0.0,0.0,0.0,0.0,0.0,0.0,0.0,0.0,0.0,0.0,0.0,0.0,0.0,0.0,0.0,0.0,0.0,0.0,0.0,0.0,0.0,0.0,0.0,0.0,0.0,0.0,0.0,0.0,0.0,0.0,0.0,0.0,0.0,0.0,0.0,0.0,0.0,0.0,0.0,0.0,0.0,0.0,0.0,0.0,0.0,0.0,0.0,0.0,0.0,0.0,0.0,0.0,0.0,0.0,0.0,0.0,0.0,0.0,0.0,0.0,0.0,0.0,0.0,0.0,0.0,0.0,0.0,0.0,0.0,0.0,0.0,0.0,0.0,0.0,0.0,0.0,0.0,0.0,0.0,0.0,0.0,0.3267,0.3132,0.3067,0.3006,0.2999,0.297,0.2966,0.0,0.0,0.0,0.0,0.0,0.0,0.0,0.0,0.0,0.0,0.0,0.0,0.0,0.0,0.0,0.0,0.0,0.0,0.0,0.0,0.0,0.0,0.0,0.0,0.0,0.0,0.0,0.0,0.0,0.0,0.0,0.0,0.0,0.0,0.0,0.0,0.0,0.0,0.0,0.0,0.0,0.0,0.0,0.0,0.0,0.0,0.0,0.0,0.0,0.0,0.0,0.0,0.0,0.0,0.0,0.0,0.0,0.0,0.0,0.0,0.0,0.0,0.0,0.0,0.0,0.0,0.0,0.0,0.0,0.0,0.0,0.0,0.0,0.0,0.0,0.0,0.0,0.0,0.0,0.0,0.0,0.0,0.0,0.0,0.0,0.0,0.0,0.0,0.0,0.0,0.0,0.0,0.0,0.0,0.0,0.0,0.0,0.0,0.0,0.0,0.0,0.0,0.0,0.0,0.0,0.0,0.0,0.0,0.3397,0.3291,0.3103,0.2941,0.3029,0.3042,0.0,0.0,0.0,0.0,0.0,0.0,0.0,0.0,0.0,0.0,0.0,0.0,0.0,0.0,0.0,0.0,0.0,0.0,0.0,0.0,0.0,0.0,0.0,0.0,0.0,0.0,0.0,0.0,0.0,0.0,0.0,0.0,0.0,0.0,0.0,0.0,0.0,0.0,0.0,0.0,0.0,0.0,0.0,0.0,0.0,0.0,0.0,0.0,0.0,0.0,0.0,0.0,0.0,0.0,0.0,0.0,0.0,0.0,0.0,0.0,0.0,0.0,0.0,0.0,0.0,0.0,0.0,0.0,0.0,0.0,0.0,0.0,0.0,0.0,0.0,0.0,0.0,0.0,0.0,0.0,0.0,0.0,0.0,0.0,0.0,0.0,0.0,0.0,0.0,0.0,0.0,0.0,0.0,0.0,0.0,0.0,0.0,0.0,0.0,0.0,0.0,0.0,0.0,0.0,0.0,0.0,0.0,0.0,0.0,0.332,0.3317,0.3278,0.3198,0.3079,0.3066,0.0,0.0,0.0,0.0,0.0,0.0,0.0,0.0,0.0,0.0,0.0,0.0,0.0,0.0,0.0,0.0,0.0,0.0,0.0,0.0,0.0,0.0,0.0,0.0,0.0,0.0,0.0,0.0,0.0,0.0,0.0,0.0,0.0,0.0,0.0,0.0,0.0,0.0,0.0,0.0,0.0,0.0,0.0,0.0,0.0,0.0,0.0,0.0,0.0,0.0,0.0,0.0,0.0,0.0,0.0,0.0,0.0,0.0,0.0,0.0,0.0,0.0,0.0,0.0,0.0,0.0,0.0,0.0,0.0,0.0,0.0,0.0,0.0,0.0,0.0,0.0,0.0,0.0,0.0,0.0,0.0,0.0,0.0,0.0,0.0,0.0,0.0,0.0,0.0,0.0,0.0,0.0,0.0,0.0,0.0,0.0,0.0,0.0,0.0,0.0,0.0,0.0,0.0,0.0,0.0,0.0,0.0,0.0,0.3494,0.344,0.3444,0.3447,0.344,0.318,0.3074,0.0,0.0,0.0,0.0,0.0,0.0,0.0,0.0,0.0,0.0,0.0,0.0,0.0,0.0,0.0,0.0,0.0,0.0,0.0,0.0,0.0,0.0,0.0,0.0,0.0,0.0,0.0,0.0,0.0,0.0,0.0,0.0,0.0,0.0,0.0,0.0,0.0,0.0,0.0,0.0,0.0,0.0,0.0,0.0,0.0,0.0,0.0,0.0,0.0,0.0,0.0,0.0,0.0,0.0,0.0,0.0,0.0,0.0,0.0,0.0,0.0,0.0,0.0,0.0,0.0,0.0,0.0,0.0,0.0,0.0,0.0,0.0,0.0,0.0,0.0,0.0,0.0,0.0,0.0,0.0,0.0,0.0,0.0,0.0,0.0,0.0,0.0,0.0,0.0,0.0,0.0,0.0,0.0,0.0,0.0,0.0,0.0,0.0,0.0,0.0,0.0,0.0,0.0,0.0,0.0,0.0,0.0,0.0,0.3634,0.3575,0.3578,0.3534,0.3568,0.3252,0.3073,0.0,0.0,0.0,0.0,0.0,0.0,0.0,0.0,0.0,0.0,0.0,0.0,0.0,0.0,0.0,0.0,0.0,0.0,0.0,0.0,0.0,0.0,0.0,0.0,0.0,0.0,0.0,0.0,0.0,0.0,0.0,0.0,0.0,0.0,0.0,0.0,0.0,0.0,0.0,0.0,0.0,0.0,0.0,0.0,0.0,0.0,0.0,0.0,0.0,0.0,0.0,0.0,0.0,0.0,0.0,0.0,0.0,0.0,0.0,0.0,0.0,0.0,0.0,0.0,0.0,0.0,0.0,0.0,0.0,0.0,0.0,0.0,0.0,0.0,0.0,0.0,0.0,0.0,0.0,0.0,0.0,0.0,0.0,0.0,0.0,0.0,0.0,0.0,0.0,0.0,0.0,0.0,0.0,0.0,0.0,0.0,0.0,0.0,0.0,0.0,0.0,0.0,0.0,0.0,0.0,0.0,0.0,0.0,0.338,0.3435,0.335,0.3306,0.3262,0.3269,0.3229,0.0,0.0,0.0,0.0,0.0,0.0,0.0,0.0,0.0,0.0,0.0,0.0,0.0,0.0,0.0,0.0,0.0,0.0,0.0,0.0,0.0,0.0,0.0,0.0,0.0,0.0,0.0,0.0,0.0,0.0,0.0,0.0,0.0,0.0,0.0,0.0,0.0,0.0,0.0,0.0,0.0,0.0,0.0,0.0,0.0,0.0,0.0,0.0,0.694,0.0,0.0,0.0,0.0,0.0,0.0,0.0,0.0,0.0,0.0,0.0,0.0,0.0,0.0,0.0,0.0,0.0,0.0,0.0,0.0,0.0,0.0,0.0,0.0,0.0,0.0,0.0,0.0,0.0,0.0,0.0,0.0,0.0,0.0,0.0,0.0,0.0,0.0,0.0,0.0,0.0,0.0,0.0,0.0,0.0,0.0,0.0,0.0,0.0,0.0,0.0,0.0,0.0,0.0,0.0,0.0,0.0,0.0,0.0,0.341,0.3394,0.3262,0.3214,0.3211,0.3234,0.3259,0.0,0.0,0.0,0.0,0.0,0.0,0.0,0.0,0.0,0.0,0.0,0.0,0.0,0.0,0.0,0.0,0.0,0.0,0.0,0.0,0.0,0.0,0.0,0.0,0.0,0.0,0.0,0.0,0.0,0.0,0.0,0.0,0.0,0.0,0.0,0.0,0.0,0.0,0.0,0.0,0.0,0.0,0.0,0.0,0.0,0.0,0.0,0.0,0.0,0.0,0.0,0.0,0.0,0.0,0.0,0.0,0.0,0.0,0.0,0.0,0.0,0.0,0.0,0.0,0.0,0.0,0.0,0.0,0.0,0.0,0.0,0.0,0.0,0.0,0.0,0.0,0.0,0.0,0.0,0.0,0.0,0.0,0.0,0.0,0.0,0.0,0.0,0.0,0.0,0.0,0.0,0.0,0.0,0.0,0.0,0.0,0.0,0.0,0.0,0.0,0.0,0.0,0.0,0.0,0.0,0.0,0.0,0.3618,0.3513,0.3357,0.3217,0.3084,0.3129,0.3126,0.3162,0.3172,0.0,0.0,0.0,0.0,0.0,0.0,0.0,0.0,0.0,0.0,0.0,0.0,0.0,0.0,0.0,0.0,0.0,0.0,0.0,0.0,0.0,0.0,0.0,0.0,0.0,0.0,0.0,0.0,0.0,0.0,0.0,0.0,0.0,0.0,0.0,0.0,0.0,0.0,0.5655,0.6311,0.0,0.0,0.0,0.0,0.0,0.0,0.0,0.0,0.7876,0.0,0.0,0.0,0.0,0.0,0.0,0.0,0.0,0.0,0.0,0.0,0.0,0.0,0.0,0.0,0.0,0.0,0.0,0.0,0.0,0.0,0.0,0.0,0.0,0.0,0.0,0.0,0.0,0.0,0.0,0.0,0.0,0.0,0.0,0.0,0.0,0.0,0.0,0.0,0.0,0.0,0.0,0.0,0.0,0.0,0.0,0.0,0.0,0.0,0.0,0.0,0.0,0.0,0.0,0.0,0.0,0.3705,0.3641,0.3477,0.3141,0.2865,0.2684,0.2684,0.2865,0.2987,0.304,0.0,0.0,0.0,0.0,0.0,0.0,0.0,0.0,0.0,0.0,0.0,0.0,0.0,0.0,0.0,0.0,0.0,0.0,0.0,0.0,0.0,0.0,0.0,0.0,0.0,0.0,0.0,0.0,0.0,0.0,0.0,0.0,0.0,0.0,0.0,0.0,0.0,0.0,0.0,0.6357,0.6749,0.0,0.0,0.0,0.0,0.0,0.0,0.0,0.0,0.8953,0.0,0.0,0.0,0.0,0.0,0.0,0.0,0.0,0.0,0.0,0.0,0.0,0.0,0.0,0.0,0.0,0.0,0.0,0.0,0.0,0.0,0.0,0.0,0.0,0.0,0.0,0.0,0.0,0.0,0.0,0.0,0.0,0.0,0.0,0.0,0.0,0.0,0.0,0.0,0.0,0.0,0.0,0.0,0.0,0.0,0.0,0.0,0.0,0.0,0.0,0.0,0.0,0.0,0.0,0.0,0.3781,0.3646,0.345,0.3197,0.2813,0.2573,0.2576,0.2711,0.282,0.0,0.0,0.0,0.0,0.0,0.0,0.0,0.0,0.0,0.0,0.0,0.0,0.0,0.0,0.0,0.0,0.0,0.0,0.0,0.0,0.0,0.0,0.0,0.0,0.0,0.0,0.0,0.0,0.0,0.0,0.0,0.0,0.0,0.0,0.0,0.0,0.0,0.0,0.0,0.0,0.6965,0.727,0.7456,0.0,0.0,0.0,0.0,0.0,0.0,0.8763,0.8886,0.0,0.0,0.0,0.0,0.0,0.0,0.0,0.0,0.0,0.0,0.0,0.0,0.0,0.0,0.0,0.0,0.0,0.0,0.0,0.0,0.0,0.0,0.0,0.0,0.0,0.0,0.0,0.0,0.0,0.0,0.0,0.0,0.0,0.0,0.0,0.0,0.0,0.0,0.0,0.0,0.0,0.0,0.0,0.0,0.0,0.0,0.0,0.0,0.0,0.0,0.0,0.0,0.0,0.0,0.0,0.3755,0.3581,0.345,0.3224,0.2718,0.2469,0.252,0.2545,0.2637,0.0,0.0,0.0,0.0,0.0,0.0,0.0,0.0,0.0,0.0,0.0,0.0,0.0,0.0,0.0,0.0,0.0,0.0,0.0,0.0,0.0,0.0,0.0,0.0,0.0,0.0,0.0,0.0,0.0,0.0,0.0,0.0,0.0,0.0,0.0,0.0,0.0,0.0,0.0,0.0,0.0,0.7734,0.7967,0.8004,0.0,0.0,0.0,0.0,0.8578,0.8645,0.0,0.0,0.0,0.0,0.0,0.0,0.0,0.0,0.0,0.0,0.0,0.0,0.0,0.0,0.0,0.0,0.0,0.0,0.0,0.0,0.0,0.0,0.0,0.0,0.0,0.0,0.0,0.0,0.0,0.0,0.0,0.0,0.0,0.0,0.0,0.0,0.0,0.0,0.0,0.0,0.0,0.0,0.0,0.0,0.0,0.0,0.0,0.0,0.0,0.0,0.0,0.0,0.0,0.0,0.0,0.0,0.3482,0.3369,0.3172,0.2828,0.2265,0.2066,0.2224,0.2257,0.2313,0.0,0.0,0.0,0.0,0.0,0.0,0.0,0.0,0.0,0.0,0.0,0.0,0.0,0.0,0.0,0.0,0.0,0.0,0.0,0.0,0.0,0.0,0.0,0.0,0.0,0.0,0.0,0.0,0.0,0.0,0.0,0.0,0.0,0.0,0.0,0.0,0.0,0.0,0.0,0.0,0.0,0.749,0.7656,0.7637,0.7705,0.0,0.0,0.8169,0.8319,0.8477,0.0,0.0,0.0,0.0,0.0,0.0,0.0,0.0,0.0,0.0,0.0,0.0,0.0,0.0,0.0,0.0,0.0,0.0,0.0,0.0,0.0,0.0,0.0,0.0,0.0,0.0,0.0,0.0,0.0,0.0,0.0,0.0,0.0,0.0,0.0,0.0,0.0,0.0,0.0,0.0,0.0,0.0,0.0,0.0,0.0,0.0,0.0,0.0,0.0,0.0,0.0,0.0,0.0,0.0,0.0,0.4026,0.3506,0.3252,0.3042,0.2737,0.2141,0.1819,0.1714,0.1893,0.2095,0.0,0.0,0.0,0.0,0.0,0.0,0.0,0.0,0.0,0.0,0.0,0.0,0.0,0.0,0.0,0.0,0.0,0.0,0.0,0.0,0.0,0.0,0.0,0.0,0.0,0.0,0.0,0.0,0.0,0.0,0.0,0.0,0.0,0.0,0.0,0.0,0.0,0.0,0.0,0.0,0.0,0.0,0.7506,0.7627,0.0,0.0,0.0,0.8507,0.838,0.0,0.0,0.0,0.0,0.0,0.0,0.0,0.0,0.0,0.0,0.0,0.0,0.0,0.0,0.0,0.0,0.0,0.0,0.0,0.0,0.0,0.0,0.0,0.0,0.0,0.0,0.0,0.0,0.0,0.0,0.0,0.0,0.0,0.0,0.0,0.0,0.0,0.0,0.0,0.0,0.0,0.0,0.0,0.0,0.0,0.0,0.0,0.0,0.0,0.0,0.0,0.0,0.0,0.0,0.0,0.0,0.0,0.3509,0.3023,0.2742,0.2581,0.2017,0.1568,0.123,0.1587,0.0,0.0,0.0,0.0,0.0,0.0,0.0,0.0,0.0,0.0,0.0,0.0,0.0,0.0,0.0,0.0,0.0,0.0,0.0,0.0,0.0,0.0,0.0,0.0,0.0,0.0,0.0,0.3933,0.0,0.0,0.0,0.0,0.0,0.0,0.0,0.0,0.0,0.0,0.0,0.0,0.0,0.0,0.7029,0.7397,0.7606,0.7845,0.0,0.0,0.8564,0.8383,0.8409,0.8472,0.0,0.0,0.0,0.0,0.0,0.0,0.0,0.0,0.0,0.0,0.0,0.0,0.0,0.0,0.0,0.0,0.0,0.0,0.0,0.0,0.0,0.0,0.0,0.0,0.0,0.0,0.0,0.0,0.0,0.0,0.0,0.0,0.0,0.0,0.0,0.0,0.0,0.0,0.0,0.0,0.0,0.0,0.0,0.0,0.0,0.0,0.0,0.0,0.0,0.0,0.0,0.0,0.0,0.0,0.3434,0.3131,0.2528,0.2242,0.2193,0.1741,0.1346,0.0954,0.1175,0.1192,0.0,0.0,0.0,0.0,0.0,0.0,0.0,0.0,0.0,0.0,0.0,0.0,0.0,0.0,0.0,0.0,0.0,0.0,0.0,0.0,0.0,0.0,0.0,0.0,0.0,0.0,0.0,0.0,0.0,0.0,0.0,0.0,0.0,0.0,0.0,0.0,0.0,0.0,0.0,0.0,0.0,0.7014,0.7284,0.7438,0.7561,0.0,0.7859,0.8026,0.8201,0.833,0.8527,0.8805,0.0,0.0,0.0,0.0,0.0,0.0,0.0,0.0,0.0,0.0,0.0,0.0,0.0,0.0,0.0,0.0,0.0,0.0,0.0,0.0,0.0,0.0,0.0,0.0,0.0,0.0,0.0,0.0,0.0,0.0,0.0,0.0,0.0,0.0,0.0,0.0,0.0,0.0,0.0,0.0,0.0,0.0,0.0,0.0,0.0,0.0,0.0,0.0,0.0,0.0,0.0,0.0,0.0,0.3439,0.2957,0.2447,0.213,0.1965,0.1515,0.101,0.0336,0.0785,0.0878,0.0,0.0,0.0,0.0,0.0,0.0,0.0,0.0,0.0,0.0,0.0,0.0,0.0,0.0,0.0,0.0,0.0,0.0,0.0,0.0,0.0,0.0,0.0,0.0,0.0,0.0,0.0,0.0,0.4818,0.4952,0.5049,0.0,0.0,0.0,0.0,0.0,0.0,0.0,0.0,0.0,0.0,0.655,0.6935,0.7175,0.0,0.0,0.7905,0.8027,0.7912,0.8035,0.8134,0.8184,0.8137,0.0,0.0,0.0,0.0,0.0,0.0,0.0,0.0,0.0,0.0,0.0,0.0,0.0,0.0,0.0,0.0,0.0,0.0,0.0,0.0,0.0,0.0,0.0,0.0,0.0,0.0,0.0,0.0,0.0,0.0,0.0,0.0,0.0,0.0,0.0,0.0,0.0,0.0,0.0,0.0,0.0,0.0,0.0,0.0,0.0,0.0,0.0,0.0,0.0,0.0,0.0,0.0,0.3238,0.2794,0.2296,0.1962,0.1628,0.1122,0.0505,-0.0224,0.0224,0.0386,0.0,0.0,0.0,0.0,0.0,0.0,0.0,0.0,0.0,0.0,0.0,0.0,0.0,0.0,0.0,0.0,0.0,0.0,0.0,0.0,0.0,0.0,0.0,0.0,0.0,0.0,0.0,0.0,0.4718,0.4856,0.4906,0.0,0.0,0.0,0.0,0.0,0.0,0.0,0.0,0.0,0.0,0.6111,0.6553,0.6794,0.7024,0.7231,0.7516,0.7636,0.7447,0.7576,0.7695,0.7717,0.0,0.0,0.0,0.0,0.0,0.0,0.0,0.0,0.0,0.0,0.0,0.0,0.0,0.0,0.0,0.0,0.0,0.0,0.0,0.0,0.0,0.0,0.0,0.0,0.0,0.0,0.0,0.4428,0.0,0.0,0.4447,0.0,0.0,0.0,0.0,0.0,0.0,0.0,0.0,0.0,0.0,0.0,0.0,0.0,0.0,0.0,0.0,0.0,0.0,0.0,0.0,0.0,0.0,0.2657,0.2521,0.2026,0.1631,0.1292,0.0449,-0.0281,-0.0842,-0.0561,-0.0386,-0.0373,0.0,0.0,0.0,0.0,0.0,0.0,0.0,0.0,0.0,0.0,0.0,0.0,0.0,0.0,0.0,0.0,0.0,0.0,0.0,0.0,0.0,0.0,0.0,0.0,0.0,0.0,0.438,0.4461,0.4552,0.0,0.0,0.0,0.0,0.0,0.0,0.0,0.0,0.0,0.0,0.5705,0.5838,0.6168,0.6289,0.6319,0.6331,0.6428,0.6598,0.6771,0.691,0.7175,0.0,0.0,0.0,0.0,0.0,0.0,0.0,0.0,0.0,0.0,0.0,0.0,0.0,0.0,0.0,0.0,0.0,0.0,0.0,0.0,0.0,0.0,0.0,0.0,0.0,0.0,0.0,0.4451,0.4447,0.0,0.0,0.0,0.0,0.0,0.0,0.0,0.0,0.0,0.0,0.0,0.4508,0.4398,0.0,0.0,0.0,0.0,0.0,0.0,0.0,0.0,0.0,0.0,0.0,0.0,0.2431,0.2087,0.1493,0.1136,0.1018,0.0299,-0.0355,-0.087,-0.0986,-0.0904,-0.0747,0.0,0.0,0.0,0.0,0.0,0.0,0.0,0.0,0.0,0.0,0.0,0.0,0.0,0.0,0.0,0.0,0.0,0.0,0.0,0.0,0.0,0.0,0.0,0.0,0.0,0.4089,0.0,0.0,0.0,0.0,0.0,0.0,0.0,0.0,0.0,0.0,0.0,0.4583,0.4736,0.4902,0.5056,0.525,0.5351,0.5432,0.0,0.0,0.0,0.0,0.0,0.0,0.0,0.0,0.0,0.0,0.0,0.0,0.0,0.0,0.6979,0.7566,0.7699,0.7699,0.7723,0.0,0.0,0.0,0.0,0.0,0.0,0.0,0.0,0.0,0.0,0.0,0.0,0.0,0.0,0.4146,0.0,0.4143,0.0,0.0,0.0,0.0,0.0,0.0,0.0,0.0,0.3431,0.3563,0.369,0.3693,0.3732,0.0,0.3806,0.3765,0.0,0.0,0.0,0.0,0.0,0.0,0.0,0.0,0.2054,0.154,0.0986,0.0678,0.0556,-0.0185,-0.0734,-0.1139,-0.1245,-0.1214,-0.094,-0.054,-0.0105,0.0,0.0,0.0,0.0,0.0,0.0,0.0,0.0,0.0,0.0,0.0,0.0,0.0,0.0,0.0,0.0,0.0,0.0,0.0,0.0,0.0,0.0,0.0,0.3809,0.0,0.0,0.0,0.0,0.0,0.0,0.0,0.0,0.0,0.3731,0.3861,0.3933,0.3975,0.4113,0.4224,0.4343,0.0,0.0,0.0,0.0,0.0,0.0,0.0,0.5091,0.5385,0.5458,0.5474,0.5536,0.5568,0.5656,0.5845,0.0,0.0,0.6899,0.7034,0.7026,0.707,0.707,0.7093,0.7253,0.7276,0.7352,0.0,0.0,0.0,0.0,0.0,0.0,0.0,0.0,0.3456,0.3422,0.0,0.3411,0.0,0.0,0.0,0.0,0.2691,0.2667,0.0,0.0,0.2764,0.277,0.2772,0.2772,0.2772,0.2776,0.2718,0.2653,0.2463,0.3263,0.0,0.0,0.0,0.0,0.0,0.0,0.1544,0.0868,0.0558,0.0186,-0.0124,-0.0992,-0.1425,-0.1609,-0.1441,-0.1239,-0.0941,-0.0831,-0.0641,-0.0426,0.0052,0.0,0.0,0.0,0.0,0.0,0.0,0.0,0.0,0.0,0.0,0.0,0.0,0.0,0.0,0.0,0.0,0.0,0.0,0.0,0.0,0.332,0.0,0.0,0.0,0.0,0.0,0.0,0.0,0.0,0.0,0.0,0.3188,0.332,0.3357,0.336,0.0,0.0,0.0,0.0,0.3401,0.3441,0.3363,0.3357,0.3722,0.3847,0.4045,0.4275,0.0,0.0,0.5013,0.5058,0.5082,0.5211,0.5234,0.546,0.6002,0.6149,0.6186,0.6155,0.6138,0.6242,0.6545,0.6659,0.6773,0.1998,0.0,0.0,0.0,0.0,0.265,0.2706,0.2628,0.2799,0.2811,0.2836,0.2809,0.0,0.0,0.0,0.0,0.0,0.0,0.1995,0.1788,0.1889,0.2035,0.2162,0.2162,0.1929,0.1573,0.1574,0.1508,0.1311,0.1572,0.1925,0.2405,0.0,0.0,0.0,0.0,0.045,-0.0,-0.0328,-0.0722,-0.1182,-0.1445,-0.1626,-0.172,-0.1546,-0.1506,-0.1529,-0.1505,-0.1475,-0.1383,-0.0909,0.0,0.0,0.0,0.0,0.0,0.0,0.0,0.0,0.0,0.0,0.0,0.0,0.0,0.0,0.0,0.0,0.0,0.0,0.0,0.253,0.2692,0.2725,0.0,0.0,0.0,0.0,0.0,0.0,0.0,0.0,0.0,0.2405,0.2503,0.2567,0.0,0.0,0.258,0.2529,0.2873,0.2983,0.2618,0.2522,0.0,0.2759,0.2761,0.2849,0.321,0.3522,0.3771,0.3912,0.4036,0.4132,0.426,0.4347,0.4526,0.4679,0.5277,0.5696,0.5785,0.582,0.5843,0.5948,0.6013,0.6031,0.1037,0.1276,0.1851,0.1952,0.1851,0.2119,0.218,0.2157,0.2279,0.2291,0.2317,0.204,0.1931,0.1849,0.1911,0.0,0.0,0.0,0.1038,0.083,0.091,0.1048,0.1114,0.1179,0.0991,0.0671,0.0672,0.0605,0.0336,0.0269,0.0462,0.1022,0.0,0.0,0.0197,-0.0066,-0.0397,-0.0941,-0.1143,-0.1412,-0.1816,-0.2018,-0.2202,-0.2293,-0.2165,-0.205,-0.1951,-0.2054,-0.213,-0.2121,-0.1626,-0.1147,0.0,0.0,0.0,0.0,0.0,0.0,0.0,0.0,0.0,0.0,0.0,0.2045,0.2102,0.0,0.0,0.0,0.1863,0.1847,0.2099,0.2188,0.0,0.0,0.0,0.0,0.0,0.0,0.0,0.146,0.136,0.1312,0.1363,0.1401,0.1534,0.1853,0.1987,0.2015,0.2066,0.0,0.2282,0.1952,0.1803,0.176,0.1943,0.1893,0.204,0.268,0.274,0.282,0.2957,0.3042,0.3138,0.3225,0.3268,0.3349,0.3436,0.3916,0.4519,0.5019,0.5135,0.5135,0.5135,0.5135,0.5183,-0.0134,-0.0,0.0941,0.1304,0.1307,0.1406,0.1592,0.1738,0.1737,0.1766,0.1676,0.1067,0.0703,0.0604,0.0336,0.0,-0.013,-0.0133,-0.0134,-0.0134,-0.0134,-0.0134,-0.0134,-0.0134,-0.0202,-0.0134,-0.0202,-0.0269,-0.047,-0.0672,-0.0806,-0.0806,-0.0403,-0.0336,-0.0538,-0.0739,-0.121,-0.1816,-0.1883,-0.2018,-0.2287,-0.276,-0.2961,-0.309,-0.3012,-0.2772,-0.2375,-0.2572,-0.2747,-0.2785,-0.2243,-0.1721,-0.1349,0.0,0.0,0.0,0.0,0.0,0.0,0.0,0.0,0.0,0.0,0.0,0.0,0.0,0.0,0.0,0.1222,0.0,0.1572,0.1721,0.0,0.0,0.0,0.1368,0.0709,0.0609,0.0509,0.0254,0.0,0.0,0.0204,0.0052,0.0317,0.1176,0.1323,0.1528,0.1783,0.1634,0.1443,0.1332,0.1177,0.1028,0.1108,0.1169,0.1432,0.22,0.2125,0.1871,0.2019,0.2111,0.2112,0.2153,0.2112,0.224,0.2403,0.253,0.283,0.3909,0.4164,0.4184,0.418,0.4184,0.4224,-0.121,-0.121,-0.0941,-0.04,0.033,0.0398,0.0398,0.0461,0.0461,0.0463,0.0465,0.0132,-0.0133,-0.0336,-0.0403,-0.0737,-0.1199,-0.1207,-0.121,-0.121,-0.121,-0.121,-0.121,-0.1547,-0.1681,-0.1681,-0.1816,-0.1883,-0.1748,-0.1816,-0.1816,-0.1816,-0.1816,-0.1816,-0.1748,-0.1951,-0.2153,-0.2221,-0.242,-0.2686,-0.3155,-0.3288,-0.3424,-0.3623,-0.3602,-0.3551,-0.3473,-0.3448,-0.3391,-0.3484,-0.2924,-0.2393,-0.2132,-0.1852,0.0,0.0,0.0,0.0,0.0,0.0,0.0,0.0,0.0,0.0604,0.0673,0.0,0.0425,0.0,0.0548,0.065,0.0686,0.0736,0.0,0.0,0.0362,0.021,-0.0158,-0.0162,-0.0219,-0.0383,-0.0383,-0.0492,-0.0876,-0.0937,-0.0884,-0.0657,0.0055,0.0493,0.0492,0.0821,0.0824,0.0332,-0.0111,-0.0333,-0.0056,0.0168,0.0447,0.0721,0.0806,0.0841,0.0893,0.118,0.136,0.1361,0.1563,0.1658,0.1745,0.1987,0.2228,0.2585,0.2936,0.3252,0.3252,0.33,0.3347,-0.1952,-0.1949,-0.1929,-0.1575,-0.1026,-0.0811,-0.0672,-0.0739,-0.0739,-0.0739,-0.0739,-0.0873,-0.1076,-0.121,-0.121,-0.1479,-0.1883,-0.1884,-0.1884,-0.1883,-0.1949,-0.1949,-0.1949,-0.2285,-0.2421,-0.2421,-0.2555,-0.2557,-0.2555,-0.2555,-0.2557,-0.2624,-0.2827,-0.2891,-0.2891,-0.2757,-0.2691,-0.2695,-0.309,-0.3487,-0.3818,-0.402,-0.4154,-0.4356,-0.4359,-0.4461,-0.4587,-0.4387,-0.4266,-0.4216,-0.3763,-0.334,-0.3004,-0.2716,-0.2553,0.0,0.0,0.0,0.0,0.0,0.0,0.0,0.0,0.0,0.0,0.0,-0.0439,-0.028,-0.0224,-0.0111,-0.0,-0.0,-0.0108,-0.0318,-0.0646,-0.0872,-0.0927,-0.0998,-0.101,-0.1066,-0.1064,-0.1233,-0.1457,-0.1513,-0.1569,-0.1625,-0.112,-0.0784,-0.0785,-0.0505,-0.0449,-0.0841,-0.1234,-0.1403,-0.1234,-0.0954,-0.0785,-0.0728,-0.0497,-0.0381,-0.0272,0.0054,0.0317,0.0423,0.053,0.0684,0.0726,0.0877,0.1079,0.1206,0.141,0.1795,0.2262,0.2401,0.245,-0.2548,-0.2542,-0.249,-0.2466,-0.2391,-0.206,-0.1827,-0.1681,-0.1614,-0.1681,-0.1748,-0.1816,-0.1951,-0.2085,-0.2085,-0.2153,-0.2288,-0.2356,-0.2356,-0.2354,-0.2485,-0.2551,-0.2618,-0.2751,-0.2887,-0.2887,-0.2885,-0.3021,-0.3224,-0.3224,-0.3291,-0.3424,-0.3563,-0.3761,-0.3889,-0.3489,-0.3226,-0.3232,-0.3823,-0.4217,-0.4486,-0.4752,-0.5017,-0.5219,-0.5286,-0.5355,-0.5491,-0.5289,-0.5101,-0.4919,-0.4586,-0.427,-0.3904,-0.3714,-0.3461,0.0,-0.3058,0.0,0.0,0.0,0.0,0.0,0.0,0.0,0.0,-0.1379,-0.129,-0.1065,-0.101,-0.0897,-0.0617,-0.0673,-0.0785,-0.0785,-0.1403,-0.1797,-0.1684,-0.1796,-0.1853,-0.1741,-0.1849,-0.1903,-0.1903,-0.1959,-0.1958,-0.2125,-0.2127,-0.2073,-0.2018,-0.1852,-0.1796,-0.1853,-0.2079,-0.2191,-0.2133,-0.2021,-0.1852,-0.1796,-0.1621,-0.1511,-0.1342,-0.1062,-0.084,-0.0671,-0.0613,-0.0609,-0.0538,-0.0536,-0.0477,-0.031,-0.0205,0.0203,0.1204,0.1548,0.1559,-0.3346,-0.3344,-0.3329,-0.3395,-0.3321,-0.3233,-0.28,-0.2085,-0.1883,-0.1949,-0.235,-0.2485,-0.2688,-0.2958,-0.2958,-0.296,-0.3025,-0.3025,-0.3092,-0.3222,-0.3286,-0.3353,-0.3556,-0.3692,-0.3758,-0.3758,-0.3956,-0.409,-0.4292,-0.4292,-0.4356,-0.4486,-0.4553,-0.4553,-0.4616,0.0,0.0,0.0,-0.4755,-0.502,-0.5348,-0.555,-0.5752,-0.5947,-0.6083,0.0,-0.6017,-0.5818,-0.5609,-0.5318,-0.4923,0.0,0.0,0.0,0.0,0.0,0.0,0.0,0.0,0.0,0.0,0.0,-0.2161,-0.1939,-0.1952,-0.1785,-0.1679,-0.1623,-0.1623,-0.1623,-0.1568,-0.1567,-0.1623,-0.1736,-0.1961,-0.2186,-0.2298,-0.2411,-0.2523,-0.2523,-0.2521,-0.2521,-0.2521,-0.2629,-0.2681,-0.2738,-0.2794,-0.2963,-0.3081,-0.2635,-0.23,-0.2354,-0.2523,-0.2581,-0.2465,-0.2411,-0.2354,-0.2184,-0.2128,-0.2071,-0.2017,-0.1905,-0.1847,-0.1736,-0.1846,-0.1846,-0.1831,-0.1832,-0.1771,-0.1764,-0.1595,-0.1028,0.0255,0.0605,0.0655,-0.4075,-0.4145,-0.4096,-0.4149,0.0,-0.4167,-0.3939,-0.3561,-0.2964,-0.2856,-0.3155,-0.3222,-0.3355,-0.3627,-0.356,-0.3694,-0.3892,-0.3894,-0.3956,-0.4151,-0.4284,-0.4356,-0.4425,-0.4628,-0.4694,-0.4694,-0.4824,-0.4891,-0.5027,-0.5027,-0.5024,-0.5087,-0.5087,-0.5153,-0.5352,-0.5683,-0.5683,-0.5226,-0.5477,-0.5741,-0.5951,-0.6218,-0.642,-0.6548,-0.6618,0.0,0.0,0.0,0.0,0.0,0.0,0.0,0.0,-0.498,0.0,-0.4817,-0.4747,-0.4532,-0.4278,-0.4088,-0.3874,-0.3567,-0.3261,-0.2899,-0.2305,-0.2261,-0.224,-0.224,-0.224,-0.224,-0.224,-0.224,-0.2294,-0.2404,-0.2517,-0.2629,-0.2798,-0.2968,-0.3023,-0.3026,-0.3081,-0.3193,-0.3246,-0.3297,-0.3405,-0.3519,-0.3682,-0.3835,-0.3829,-0.3334,-0.2912,-0.3026,-0.3081,-0.3137,-0.3079,-0.3023,-0.3026,-0.2912,-0.291,-0.2854,-0.2798,-0.2687,-0.2573,-0.2517,-0.2462,-0.241,-0.2465,-0.2467,-0.2411,-0.2244,-0.2076,-0.1778,-0.0855,-0.0532,-0.0319,-0.4696,-0.4846,-0.4828,-0.4938,-0.5086,-0.4978,-0.5064,-0.5174,0.0,0.0,0.0,-0.4149,-0.4206,-0.4258,-0.4325,-0.4448,-0.4694,-0.4761,-0.4824,-0.4948,-0.5084,-0.5219,-0.5223,-0.5425,-0.5491,-0.5557,-0.5557,-0.5557,-0.5627,-0.5624,-0.5627,-0.5693,-0.5693,-0.5822,-0.6152,-0.6544,-0.6478,-0.5943,-0.6133,-0.6334,-0.6548,-0.6811,-0.7007,-0.7007,-0.7073,-0.7077,-0.7012,-0.6942,-0.6745,-0.6486,-0.6346,-0.6214,-0.602,-0.5818,-0.5679,-0.5683,-0.5557,-0.537,-0.5115,-0.4977,-0.4737,-0.4497,-0.4285,-0.3793,-0.2734,-0.2836,-0.2908,-0.2908,-0.2908,-0.2965,-0.2965,-0.2963,-0.3076,-0.3182,-0.3239,-0.33,-0.3416,-0.3583,-0.371,-0.3696,-0.3826,-0.3871,-0.3987,-0.4047,-0.4144,-0.4329,-0.4541,-0.4669,-0.4536,-0.4062,-0.3664,-0.3781,-0.3849,-0.382,-0.3789,-0.3789,-0.3775,-0.3752,-0.3747,-0.3691,-0.3635,-0.3466,-0.3297,-0.3186,-0.3021,-0.2968,-0.2914,-0.2914,-0.2747,-0.2465,-0.2406,-0.235,-0.2069,-0.1734,-0.1341,-0.5401,-0.5318,-0.561,-0.5758,-0.5755,-0.596,-0.6029,-0.6053,-0.5403,-0.548,-0.5965,-0.5525,-0.5383,-0.5405,-0.5405,-0.5342,-0.5299,-0.5296,-0.5355,-0.5481,-0.5481,-0.5617,-0.5756,-0.5822,-0.5888,-0.6083,-0.6083,-0.6214,-0.6478,-0.6478,-0.6548,-0.6683,-0.6683,-0.6811,-0.7007,-0.7073,-0.7134,-0.7195,-0.6942,-0.6872,-0.7073,-0.733,-0.7461,-0.7601,-0.7727,-0.7792,-0.7596,-0.7461,-0.7199,-0.6881,-0.6675,-0.6544,-0.635,-0.6214,-0.6145,-0.6083,-0.5951,-0.5745,-0.5519,-0.5515,-0.5311,-0.5026,-0.5044,-0.4665,-0.3861,-0.3835,-0.3827,-0.3827,-0.3813,-0.3884,-0.4059,-0.4051,-0.4105,-0.4294,-0.4483,-0.455,-0.4534,-0.465,-0.4707,-0.4703,-0.4783,-0.4773,-0.4816,-0.4882,-0.4998,-0.5079,-0.5213,-0.525,-0.5193,-0.4867,-0.455,-0.455,-0.4727,-0.4733,-0.4632,-0.4545,-0.4498,-0.4369,-0.4359,-0.4366,-0.4353,-0.4294,-0.4184,-0.4024,-0.3858,-0.3744,-0.3633,-0.3524,-0.3469,-0.3357,-0.3246,-0.3132,-0.2907,-0.2683,-0.2406,-0.5864,-0.6018,-0.6177,-0.6325,-0.6479,-0.6637,-0.6824,-0.6901,-0.6753,-0.6618,-0.6391,-0.6162,-0.6047,-0.605,-0.612,-0.622,-0.6295,-0.636,-0.6443,-0.6495,-0.6554,-0.6505,-0.6424,-0.6416,-0.6482,-0.6613,-0.6811,-0.6942,-0.6937,-0.7064,-0.7199,-0.7204,-0.7269,-0.7335,-0.7396,-0.7526,-0.7787,-0.8052,-0.7601,-0.74,-0.7466,-0.7661,-0.7792,-0.7857,-0.7987,-0.7987,-0.7857,-0.7727,-0.7531,-0.7339,-0.7199,-0.7068,-0.7003,-0.6872,-0.6741,-0.6741,-0.6548,-0.6416,-0.628,-0.621,-0.6079,-0.5815,-0.5817,-0.5678,-0.535,-0.4813,-0.4543,-0.4543,-0.4543,-0.4604,-0.4658,-0.4661,-0.4722,-0.4908,-0.4972,-0.5036,-0.51,-0.5157,-0.5275,-0.5332,-0.5393,-0.5453,-0.5634,-0.5699,-0.5759,-0.5832,-0.5896,-0.5996,-0.6085,-0.5911,-0.5657,-0.5376,-0.5453,-0.5543,-0.5411,-0.5399,-0.5331,-0.5178,-0.5152,-0.511,-0.4986,-0.4904,-0.4743,-0.4629,-0.4463,-0.4356,-0.4187,-0.4132,-0.4076,-0.3907,-0.3799,-0.3633,-0.3519,-0.3297,-0.2907,-0.6379,-0.6769,-0.6732,-0.6868,-0.7096,-0.7334,-0.7488,-0.7714,-0.7872,-0.7555,-0.6944,-0.6852,-0.6756,-0.6717,-0.6861,-0.7056,-0.7241,-0.738,-0.7434,-0.7513,-0.75,-0.7328,-0.7092,-0.7008,-0.6986,-0.7082,-0.7344,-0.747,-0.7396,-0.7526,-0.7587,-0.7657,-0.7727,-0.7792,-0.7722,-0.8052,-0.8312,-0.8576,-0.8187,-0.7922,-0.7857,-0.8052,-0.8182,-0.8177,-0.8242,-0.8242,-0.8247,-0.8052,-0.7922,-0.7927,-0.7792,-0.7722,-0.7652,-0.7466,-0.733,-0.7335,-0.7138,-0.7007,-0.7007,-0.6942,-0.6806,-0.6679,-0.6679,-0.6609,-0.6588,-0.603,-0.5501,-0.5315,-0.533,-0.5326,-0.5392,-0.5384,-0.5439,-0.5566,-0.5566,-0.5651,-0.5701,-0.5759,-0.5821,-0.6002,-0.6063,-0.6195,-0.6432,-0.6494,-0.6511,-0.6604,-0.663,-0.6715,-0.6841,-0.6872,-0.6668,-0.6354,-0.6248,-0.6292,-0.6258,-0.6241,-0.616,-0.5994,-0.5964,-0.5821,-0.5638,-0.546,-0.5266,-0.5144,-0.4963,-0.4853,-0.4736,-0.468,-0.4625,-0.4457,-0.4349,-0.4132,-0.391,-0.3744,-0.3357,-0.7096,-0.7315,-0.7177,-0.7338,-0.7723,-0.7953,-0.8097,-0.8327,-0.8327,-0.8385,-0.8397,-0.8121,-0.7864,-0.7721,-0.7703,-0.7766,-0.7829,-0.781,-0.7943,-0.8131,-0.8127,-0.7952,-0.7695,-0.7609,-0.7578,-0.7625,-0.754,-0.7731,-0.7922,-0.7987,-0.7987,-0.7987,-0.8112,-0.8242,-0.8382,-0.8576,-0.8835,-0.8958,-0.8888,-0.8753,-0.8431,-0.8635,-0.877,-0.8818,-0.8888,-0.8888,-0.8888,-0.877,-0.8705,-0.8705,-0.8511,-0.8312,-0.8172,-0.8042,-0.7857,-0.7666,-0.7526,-0.7461,-0.7461,-0.7456,-0.7391,-0.7391,-0.7391,-0.7396,-0.7396,-0.7293,-0.6945,-0.6477,-0.629,-0.6335,-0.649,-0.6538,-0.6517,-0.6642,-0.666,-0.6763,-0.6737,-0.6767,-0.6824,-0.7015,-0.6966,-0.7145,-0.7288,-0.7352,-0.7366,-0.7407,-0.7421,-0.7404,-0.7447,-0.7456,-0.7451,-0.7399,-0.733,-0.7044,-0.6917,-0.6996,-0.6974,-0.6801,-0.6749,-0.6597,-0.6395,-0.6246,-0.6106,-0.5695,-0.5513,-0.5454,-0.5281,-0.5222,-0.5171,-0.5011,-0.4901,-0.468,-0.4301,-0.4138,-0.3858,-0.7675,-0.7983,-0.7799,-0.7892,-0.8187,-0.8255,-0.8479,-0.878,-0.8775,-0.8932,-0.916,-0.9089,-0.8737,-0.8346,-0.8496,-0.8524,-0.8596,-0.868,-0.868,-0.8707,-0.8697,-0.8517,-0.8324,-0.8003,-0.7962,-0.8266,-0.8307,-0.8438,-0.8463,-0.8565,-0.8565,-0.8565,-0.863,-0.8765,-0.8899,-0.8899,-0.9022,-0.9285,-0.9274,-0.9204,-0.9069,-0.8947,-0.9022,-0.9221,-0.9215,-0.921,-0.9268,-0.9145,-0.9081,-0.9087,-0.8888,-0.8759,-0.8689,-0.8565,-0.8441,-0.8317,-0.8187,-0.8117,-0.8052,-0.8117,-0.8052,-0.8117,-0.8117,-0.8117,-0.8117,-0.8117,-0.7922,-0.7661,-0.733,-0.7064,-0.7199,-0.7134,-0.7199,-0.7265,-0.7269,-0.7269,-0.7269,-0.7269,-0.7335,-0.7466,-0.7466,-0.7591,-0.7847,-0.8047,-0.8052,-0.8052,-0.8052,-0.8047,-0.8052,-0.7982,-0.7982,-0.8117,-0.8047,-0.7817,-0.7599,-0.7595,-0.756,-0.7407,-0.7338,-0.7259,-0.7057,-0.6827,-0.6606,-0.6351,-0.6197,-0.6018,-0.5882,-0.5773,-0.5723,-0.5563,-0.5293,-0.5018,-0.4794,-0.4632,-0.4301,-0.8259,-0.8569,-0.8469,-0.851,-0.8721,-0.8789,-0.8985,-0.9231,-0.9306,-0.9533,-0.9841,-0.9846,-0.9539,-0.9231,-0.9231,-0.9306,-0.9301,-0.9463,-0.9531,-0.9374,-0.9432,-0.9322,-0.9111,-0.871,-0.8664,-0.8911,-0.9085,-0.8997,-0.8857,-0.8958,-0.9022,-0.9017,-0.9081,-0.9151,-0.9221,-0.9215,-0.9344,-0.9542,-0.9594,-0.9652,-0.9588,-0.9466,-0.9472,-0.9606,-0.9536,-0.9524,-0.9652,-0.96,-0.9536,-0.9466,-0.9338,-0.928,-0.9215,-0.9092,-0.9092,-0.8958,-0.8829,-0.877,-0.8705,-0.8705,-0.8705,-0.8635,-0.8641,-0.8641,-0.8641,-0.8641,-0.8641,-0.8641,-0.8242,-0.7977,-0.7787,-0.7787,-0.7787,-0.7787,-0.7787,-0.7782,-0.7792,-0.7782,-0.7852,-0.7992,-0.8052,-0.8117,-0.8371,-0.8501,-0.8571,-0.8635,-0.8641,-0.8641,-0.8641,-0.8506,-0.8501,-0.8641,-0.863,-0.849,-0.8312,-0.8291,-0.8153,-0.8143,-0.8064,-0.7985,-0.7765,-0.7506,-0.7224,-0.7048,-0.6784,-0.6554,-0.6391,-0.6273,-0.6164,-0.6055,-0.5786,-0.5458,-0.5285,-0.5073,-0.4853,-0.8945,-0.9003,-0.9234,-0.9356,-0.9404,-0.9787,-0.99,-0.9868,-1.0078,-1.0299,-1.0443,-1.0351,-1.0357,-1.0363,-1.0062,-0.9992,-1.0143,-1.0143,-1.0207,-1.0323,-1.0329,-1.029,-1.0147,-0.9902,-0.9773,-0.9689,-0.9559,-0.938,-0.9051,-0.9034,-0.9022,-0.9022,-0.921,-0.9274,-0.9338,-0.9606,-0.974,-0.9804,-0.9919,-0.9983,-0.9983,-1.011,-1.011,-1.0053,-0.9913,-0.9913,-0.9983,-1.0123,-1.013,-0.9983,-0.9983,-0.9856,-0.9798,-0.974,-0.9664,-0.9524,-0.946,-0.9396,-0.9268,-0.9274,-0.921,-0.9017,-0.9022,-0.8952,-0.9022,-0.9022,-0.9081,-0.9274,-0.921,-0.8952,-0.8576,-0.8506,-0.8447,-0.8447,-0.8452,-0.8447,-0.8452,-0.8441,-0.8511,-0.8705,-0.877,-0.877,-0.8952,-0.8952,-0.9017,-0.9017,-0.9022,-0.9017,-0.9017,-0.9017,-0.9017,-0.9017,-0.9017,-0.8952,-0.8829,-0.8765,-0.8818,-0.8768,-0.8648,-0.8775,-0.8623,-0.8376,-0.8001,-0.7659,-0.7399,-0.7144,-0.6942,-0.6766,-0.6598,-0.6381,-0.6164,-0.5891,-0.5723,-0.5458,-0.5242,-0.9501,-0.9723,-1.006,-1.0234,-1.0284,-1.0509,-1.0605,-1.055,-1.077,-1.0819,-1.0905,-1.0795,-1.0944,-1.126,-1.1025,-1.0726,-1.0438,-1.0363,-1.0438,-1.0513,-1.0513,-1.0467,-1.0399,-1.0376,-1.0317,-1.017,-1.019,-1.0,-0.9634,-0.9592,-0.9509,-0.9373,-0.9542,-0.9606,-0.967,-0.9798,-0.9919,-0.9926,-1.0034,-1.0085,-1.0072,-1.0465,-1.0751,-1.0975,-1.0555,-1.0478,-1.0681,-1.0694,-1.0561,-1.0555,-1.0428,-1.0371,-1.0308,-1.0308,-1.0174,-0.9977,-0.997,-0.9919,-0.9792,-0.9728,-0.9728,-0.9658,-0.9664,-0.9594,-0.9664,-0.9664,-0.9658,-0.9722,-0.9849,-0.9786,-0.9664,-0.9338,-0.9139,-0.9145,-0.9145,-0.9145,-0.9139,-0.9139,-0.9139,-0.9268,-0.9338,-0.9484,-0.9478,-0.9606,-0.9658,-0.9658,-0.9664,-0.96,-0.96,-0.9594,-0.953,-0.9658,-0.9734,-0.9734,-0.96,-0.9151,-0.9017,-0.9017,-0.8935,-0.8982,-0.888,-0.8725,-0.8425,-0.8289,-0.7996,-0.7694,-0.7422,-0.7171,-0.6986,-0.6766,-0.649,-0.6273,-0.6059,-0.5845,-0.5572,-1.0216,-1.0598,-1.0842,-1.1044,-1.117,-1.1322,-1.1421,-1.1347,-1.1492,-1.1502,-1.1483,-1.1366,-1.1465,-1.1706,-1.1706,-1.1484,-1.0893,-1.0812,-1.0812,-1.0812,-1.0738,-1.0738,-1.0812,-1.0887,-1.0947,-1.0852,-1.0821,-1.0624,-1.0233,-1.0111,-0.9976,-0.9817,-0.9848,-0.9862,-0.9926,-1.0047,-1.0174,-1.0231,-1.0345,-1.0382,-1.0445,-1.0836,-1.1317,-1.1604,-1.1247,-1.1038,-1.1185,-1.1262,-1.1206,-1.1059,-1.0996,-1.087,-1.0793,-1.0807,-1.0744,-1.0548,-1.0548,-1.0491,-1.0301,-1.0231,-1.0238,-1.0238,-1.0174,-1.0174,-1.0174,-1.018,-1.0244,-1.0301,-1.0364,-1.0498,-1.0491,-1.0231,-0.997,-0.9907,-0.9843,-0.9843,-0.9843,-0.9779,-0.9716,-0.9658,-0.9728,-0.9862,-0.9862,-0.9919,-0.9983,-0.9989,-0.9989,-0.9989,-0.9989,-0.9983,-0.9919,-0.9983,-0.9989,-0.9996,-0.9926,-0.96,-0.9472,-0.9472,-0.9344,-0.928,-0.9186,-0.9098,-0.8974,-0.8857,-0.8591,-0.8253,-0.7915,-0.7583,-0.7367,-0.7128,-0.6928,-0.6652,-0.644,-0.6228,-0.5955,-1.1241,-1.1655,-1.1671,-1.1866,-1.1999,-1.223,-1.2331,-1.232,-1.2239,-1.2293,-1.2203,-1.1859,-1.1825,-1.1887,-1.2203,-1.2116,-1.1713,-1.1484,-1.1409,-1.1335,-1.1186,-1.1186,-1.1335,-1.1416,-1.1484,-1.1582,-1.1427,-1.1166,-1.0817,-1.067,-1.0524,-1.0416,-1.0193,-1.0091,-0.9983,-1.0371,-1.0624,-1.0681,-1.0793,-1.0968,-1.1094,-1.1421,-1.1769,-1.2103,-1.1926,-1.1725,-1.1435,-1.1784,-1.1917,-1.1622,-1.156,-1.1483,-1.1274,-1.1296,-1.1303,-1.117,-1.1122,-1.0996,-1.0863,-1.0807,-1.0744,-1.0681,-1.0624,-1.0688,-1.0681,-1.0618,-1.0681,-1.08,-1.0863,-1.0933,-1.1059,-1.1059,-1.087,-1.0618,-1.0555,-1.0561,-1.0498,-1.0434,-1.0244,-1.011,-1.011,-1.0047,-1.0047,-1.011,-1.0174,-1.0174,-1.018,-1.0174,-1.018,-1.0174,-1.0053,-1.011,-1.0238,-1.0301,-1.018,-0.9989,-0.9983,-0.9983,-0.9919,-0.9792,-0.9728,-0.9623,-0.9493,-0.9377,-0.912,-0.8777,-0.8384,-0.8105,-0.7865,-0.7614,-0.7334,-0.7047,-0.682,-0.6549,-0.6337,-1.2106,-1.2192,-1.2534,-1.2662,-1.2843,-1.3096,-1.3188,-1.302,-1.3307,-1.3326,-1.3104,-1.2623,-1.2572,-1.2784,-1.2885,-1.2774,-1.2526,-1.2305,-1.2009,-1.1639,-1.1558,-1.1558,-1.1632,-1.1632,-1.1639,-1.1694,-1.1617,-1.1439,-1.1262,-1.1071,-1.0873,-1.0584,-1.0647,-1.0555,-1.0454,-1.0751,-1.1003,-1.1122,-1.1303,-1.1281,-1.1183,-1.1849,-1.2352,-1.2631,-1.2436,-1.2282,-1.2367,-1.2328,-1.2267,-1.212,-1.2058,-1.1988,-1.1864,-1.1872,-1.1872,-1.1832,-1.1692,-1.1498,-1.1365,-1.1373,-1.131,-1.131,-1.131,-1.131,-1.131,-1.1247,-1.1317,-1.1373,-1.1428,-1.149,-1.1553,-1.1685,-1.1505,-1.0996,-1.0933,-1.094,-1.094,-1.087,-1.0807,-1.0807,-1.0744,-1.0744,-1.0737,-1.0737,-1.0744,-1.0744,-1.0744,-1.0744,-1.0744,-1.0744,-1.0744,-1.0744,-1.0744,-1.0681,-1.0618,-1.0555,-1.0555,-1.0428,-1.0238,-1.018,-1.011,-0.997,-0.9907,-0.9775,-0.9575,-0.9296,-0.8897,-0.863,-0.8407,-0.8116,-0.7802,-0.7509,-0.7166,-0.6928,-0.6608,-1.2796,-1.2881,-1.3228,-1.3476,-1.3561,-1.3899,-1.3884,-1.387,-1.4083,-1.4086,-1.387,-1.3642,-1.3508,-1.3568,-1.3554,-1.3329,-1.298,-1.282,-1.2526,-1.215,-1.1929,-1.1929,-1.2003,-1.215,-1.215,-1.2157,-1.215,-1.2065,-1.1886,-1.1761,-1.1607,-1.1369,-1.135,-1.1279,-1.107,-1.1284,-1.1439,-1.1519,-1.1755,-1.1787,-1.175,-1.2297,-1.2862,-1.3071,-1.2875,-1.2781,-1.2981,-1.2936,-1.2744,-1.2613,-1.2552,-1.2482,-1.229,-1.2297,-1.2382,-1.2398,-1.2197,-1.1988,-1.1872,-1.1864,-1.1809,-1.1809,-1.1809,-1.1747,-1.1809,-1.1817,-1.1809,-1.1809,-1.1872,-1.1934,-1.1934,-1.1996,-1.1872,-1.156,-1.1498,-1.1435,-1.1373,-1.1373,-1.131,-1.1247,-1.1247,-1.1317,-1.131,-1.131,-1.131,-1.1247,-1.131,-1.1317,-1.131,-1.131,-1.131,-1.1247,-1.1247,-1.1185,-1.1185,-1.1122,-1.1052,-1.087,-1.0618,-1.0434,-1.0308,-1.0174,-1.0072,-0.9926,-0.9769,-0.9624,-0.9317,-0.9191,-0.9007,-0.8663,-0.8342,-0.8031,-0.7698,-0.7231,-0.6939,-1.3392,-1.3737,-1.3737,-1.4068,-1.4398,-1.4482,-1.4629,-1.4671,-1.47,-1.4741,-1.4735,-1.4705,-1.4572,-1.4236,-1.417,-1.3895,-1.3345,-1.3119,-1.3039,-1.2893,-1.2673,-1.2526,-1.2599,-1.268,-1.2753,-1.2826,-1.2826,-1.2886,-1.2757,-1.2627,-1.253,-1.2424,-1.2178,-1.1984,-1.192,-1.1985,-1.2003,-1.2047,-1.229,-1.2359,-1.2189,-1.2813,-1.33,-1.3492,-1.3258,-1.3155,-1.3338,-1.339,-1.3338,-1.3042,-1.2989,-1.2842,-1.2696,-1.272,-1.2821,-1.296,-1.2683,-1.249,-1.2367,-1.2359,-1.2305,-1.2243,-1.2182,-1.2182,-1.2189,-1.2182,-1.2182,-1.2182,-1.2182,-1.2189,-1.2189,-1.2243,-1.2182,-1.2182,-1.2058,-1.1934,-1.1809,-1.1809,-1.1747,-1.1622,-1.1622,-1.1622,-1.1622,-1.1622,-1.1622,-1.1622,-1.1622,-1.163,-1.1622,-1.1622,-1.163,-1.163,-1.1622,-1.156,-1.156,-1.156,-1.149,-1.131,-1.1059,-1.087,-1.0688,-1.0491,-1.0428,-1.0288,-1.0135,-0.9994,-0.9865,-0.9765,-0.9622,-0.9376,-0.901,-0.8614,-0.8163,-0.7692,-0.7247,-1.399,-1.4237,-1.4573,-1.4831,-1.4999,-1.5235,-1.5401,-1.5477,-1.5659,-1.5681,-1.5628,-1.5446,-1.5313,-1.5184,-1.4714,-1.4373,-1.4163,-1.3872,-1.3768,-1.3768,-1.3688,-1.3258,-1.2893,-1.29,-1.29,-1.2973,-1.3119,-1.3119,-1.3119,-1.3172,-1.3093,-1.2875,-1.2943,-1.2868,-1.2639,-1.2649,-1.2667,-1.2727,-1.2679,-1.276,-1.2797,-1.3164,-1.3554,-1.3839,-1.3735,-1.3769,-1.3821,-1.3821,-1.37,-1.3398,-1.3294,-1.3111,-1.2903,-1.2981,-1.3128,-1.3214,-1.3075,-1.2858,-1.2797,-1.2797,-1.2797,-1.2736,-1.2674,-1.2736,-1.2744,-1.2736,-1.2736,-1.2736,-1.2736,-1.2736,-1.2728,-1.2736,-1.2744,-1.2674,-1.2428,-1.2127,-1.2058,-1.2003,-1.1996,-1.2003,-1.2003,-1.1996,-1.1996,-1.1996,-1.1996,-1.1996,-1.1996,-1.1996,-1.1996,-1.1996,-1.2058,-1.1996,-1.1934,-1.1934,-1.1934,-1.1934,-1.1872,-1.1685,-1.1498,-1.1365,-1.1122,-1.0933,-1.087,-1.087,-1.0674,-1.0504,-1.0492,-1.0499,-1.0248,-0.9953,-0.9564,-0.9176,-0.8614,-0.8163,-0.7698,-1.4664,-1.4817,-1.5242,-1.5423,-1.559,-1.5748,-1.5831,-1.5914,-1.6245,-1.6327,-1.6363,-1.6377,-1.6269,-1.6079,-1.5481,-1.5142,-1.4985,-1.4501,-1.4281,-1.4346,-1.4274,-1.3912,-1.3477,-1.3324,-1.3331,-1.3404,-1.3484,-1.355,-1.363,-1.3702,-1.3663,-1.3615,-1.3712,-1.3677,-1.3567,-1.3514,-1.3507,-1.3542,-1.3408,-1.3256,-1.3067,-1.3441,-1.3847,-1.4132,-1.4165,-1.4088,-1.4139,-1.4139,-1.401,-1.3761,-1.3649,-1.3467,-1.326,-1.3338,-1.3476,-1.3501,-1.3415,-1.3285,-1.3172,-1.3111,-1.3111,-1.2989,-1.2981,-1.3042,-1.3094,-1.3155,-1.3155,-1.3216,-1.3216,-1.3147,-1.3078,-1.3147,-1.3216,-1.3155,-1.2911,-1.2613,-1.249,-1.249,-1.249,-1.249,-1.2498,-1.249,-1.249,-1.249,-1.249,-1.249,-1.249,-1.2498,-1.2498,-1.249,-1.2428,-1.2367,-1.2367,-1.2367,-1.2305,-1.2313,-1.2182,-1.2058,-1.1934,-1.1809,-1.1622,-1.1373,-1.1185,-1.1185,-1.1122,-1.1108,-1.1023,-1.0974,-1.0746,-1.0472,-1.008,-0.9728,-0.9247,-0.8595,-0.8175,-1.5325,-1.5567,-1.5733,-1.5989,-1.617,-1.6252,-1.6327,-1.6335,-1.6656,-1.6812,-1.6812,-1.7229,-1.7121,-1.6959,-1.6309,-1.5943,-1.5527,-1.5057,-1.4784,-1.4737,-1.4713,-1.4497,-1.4201,-1.3977,-1.3977,-1.4049,-1.4129,-1.4201,-1.4209,-1.4201,-1.4274,-1.4371,-1.4458,-1.4474,-1.4474,-1.4445,-1.4418,-1.4313,-1.4221,-1.392,-1.3597,-1.3917,-1.4239,-1.4517,-1.4321,-1.4285,-1.4336,-1.4327,-1.4207,-1.407,-1.401,-1.3803,-1.364,-1.3863,-1.3881,-1.3692,-1.3709,-1.3657,-1.3424,-1.3415,-1.3302,-1.3224,-1.3164,-1.3155,-1.339,-1.345,-1.3519,-1.3571,-1.3563,-1.3554,-1.3476,-1.3554,-1.3631,-1.3631,-1.3563,-1.345,-1.3216,-1.3103,-1.3042,-1.3042,-1.3042,-1.3042,-1.3042,-1.305,-1.2989,-1.285,-1.2858,-1.2797,-1.2797,-1.2797,-1.2797,-1.2797,-1.2797,-1.2867,-1.2744,-1.2629,-1.2498,-1.2367,-1.2305,-1.2243,-1.1996,-1.1809,-1.1553,-1.1428,-1.1498,-1.1498,-1.1351,-1.1267,-1.1135,-1.0961,-1.0629,-1.035,-1.0047,-0.926,-0.8664,-1.5824,-1.6221,-1.6402,-1.6648,-1.6894,-1.7066,-1.7066,-1.7066,-1.7237,-1.7229,-1.731,-1.74,-1.7342,-1.7243,-1.6863,-1.6525,-1.6137,-1.5692,-1.5364,-1.507,-1.5229,-1.515,-1.4919,-1.4633,-1.4489,-1.4569,-1.4649,-1.4721,-1.4721,-1.4856,-1.4991,-1.4991,-1.5062,-1.51,-1.5213,-1.5093,-1.5129,-1.5186,-1.5064,-1.4854,-1.4611,-1.4657,-1.4798,-1.4983,-1.4638,-1.4474,-1.4455,-1.4455,-1.4446,-1.4327,-1.4198,-1.3992,-1.3932,-1.4001,-1.4079,-1.4165,-1.4019,-1.395,-1.389,-1.383,-1.3838,-1.3769,-1.3769,-1.3821,-1.383,-1.3941,-1.401,-1.407,-1.4181,-1.4231,-1.4213,-1.4428,-1.4378,-1.43,-1.4231,-1.4172,-1.395,-1.364,-1.339,-1.339,-1.3398,-1.3398,-1.339,-1.3338,-1.3277,-1.3208,-1.3155,-1.3042,-1.3042,-1.3103,-1.3103,-1.3164,-1.3103,-1.3042,-1.2989,-1.2875,-1.2744,-1.2613,-1.2613,-1.2621,-1.2428,-1.2243,-1.1988,-1.1926,-1.1934,-1.1872,-1.1685,-1.1615,-1.1476,-1.1322,-1.1169,-1.0856,-1.041,-0.9734,-0.9169,-1.6402,-1.673,-1.6902,-1.7147,-1.7221,-1.731,-1.7392,-1.7383,-1.7473,-1.7546,-1.7554,-1.7635,-1.7797,-1.7844,-1.7488,-1.7115,-1.6774,-1.6263,-1.5905,-1.5726,-1.5788,-1.5788,-1.5709,-1.5488,-1.5275,-1.4991,-1.4999,-1.507,-1.5213,-1.5284,-1.5417,-1.563,-1.563,-1.57,-1.585,-1.5774,-1.5782,-1.5824,-1.5659,-1.5587,-1.5692,-1.5414,-1.5114,-1.4941,-1.4666,-1.4515,-1.4515,-1.4515,-1.4515,-1.4455,-1.4378,-1.4309,-1.4258,-1.4267,-1.4345,-1.4432,-1.4336,-1.4189,-1.413,-1.4181,-1.424,-1.424,-1.424,-1.424,-1.43,-1.4419,-1.4547,-1.4606,-1.4784,-1.4834,-1.4942,-1.5098,-1.5098,-1.4911,-1.4843,-1.4725,-1.4547,-1.4121,-1.3812,-1.3761,-1.3761,-1.37,-1.37,-1.3692,-1.364,-1.364,-1.364,-1.3528,-1.3528,-1.3588,-1.3467,-1.3467,-1.3346,-1.3224,-1.3172,-1.305,-1.2981,-1.2858,-1.2858,-1.2858,-1.2797,-1.2613,-1.249,-1.2367,-1.2251,-1.2065,-1.1934,-1.1872,-1.1809,-1.1732,-1.1564,-1.125,-1.0868,-1.0347,-0.978,-1.6976,-1.7212,-1.7383,-1.7473,-1.7473,-1.7473,-1.7554,-1.7635,-1.77,-1.7861,-1.7861,-1.8031,-1.821,-1.8275,-1.797,-1.7723,-1.7252,-1.6687,-1.6219,-1.6211,-1.6202,-1.6202,-1.6202,-1.6061,-1.5921,-1.5409,-1.5417,-1.5488,-1.5568,-1.5638,-1.578,-1.607,-1.6132,-1.6132,-1.6263,-1.6342,-1.6289,-1.6296,-1.6201,-1.6202,-1.6386,-1.6094,-1.5524,-1.4701,-1.4687,-1.4588,-1.4602,-1.4565,-1.4565,-1.4575,-1.4675,-1.4675,-1.4625,-1.4565,-1.4584,-1.4602,-1.4556,-1.4556,-1.4488,-1.4538,-1.4597,-1.4588,-1.4647,-1.4706,-1.4775,-1.4893,-1.502,-1.5147,-1.5264,-1.5381,-1.5478,-1.5566,-1.5517,-1.5391,-1.5332,-1.5274,-1.5098,-1.4675,-1.4488,-1.4189,-1.4249,-1.4249,-1.4189,-1.4181,-1.413,-1.407,-1.407,-1.401,-1.401,-1.395,-1.383,-1.37,-1.3511,-1.339,-1.3277,-1.3285,-1.3155,-1.3155,-1.3164,-1.3164,-1.3103,-1.2989,-1.2805,-1.2683,-1.2498,-1.2375,-1.2313,-1.2313,-1.2251,-1.2189,-1.1981,-1.1688,-1.1338,-1.097,-1.04,-1.7383,-1.761,-1.7619,-1.7708,-1.7878,-1.7878,-1.804,-1.8201,-1.8282,-1.8362,-1.8531,-1.8531,-1.862,-1.8514,-1.8188,-1.7707,-1.7087,-1.6572,-1.6342,-1.6351,-1.6351,-1.6342,-1.6342,-1.6342,-1.6272,-1.6211,-1.6061,-1.6132,-1.6132,-1.6202,-1.6202,-1.6281,-1.6272,-1.6403,-1.6542,-1.6542,-1.6621,-1.676,-1.672,-1.6762,-1.6747,-1.6596,-1.5975,-1.489,-1.4974,-1.4902,-1.4781,-1.4715,-1.4775,-1.4911,-1.4911,-1.4911,-1.4902,-1.4902,-1.4921,-1.493,-1.4911,-1.497,-1.4961,-1.5029,-1.5137,-1.5245,-1.5235,-1.5235,-1.5303,-1.543,-1.5556,-1.5614,-1.573,-1.5798,-1.5856,-1.5914,-1.5856,-1.5798,-1.5798,-1.574,-1.5614,-1.5439,-1.5264,-1.4961,-1.4902,-1.4793,-1.4725,-1.4597,-1.4547,-1.4428,-1.4369,-1.4309,-1.4189,-1.413,-1.3941,-1.3812,-1.3674,-1.3563,-1.3442,-1.345,-1.345,-1.3459,-1.3459,-1.3459,-1.3407,-1.3294,-1.318,-1.305,-1.292,-1.2797,-1.2736,-1.2683,-1.2621,-1.2498,-1.2305,-1.2058,-1.1712,-1.1355,-1.0824,-1.7878,-1.8193,-1.8201,-1.8282,-1.8371,-1.8371,-1.8442,-1.8531,-1.8523,-1.8612,-1.87,-1.87,-1.8772,-1.8753,-1.844,-1.789,-1.727,-1.6801,-1.6639,-1.663,-1.6621,-1.6621,-1.6621,-1.663,-1.663,-1.663,-1.6621,-1.6551,-1.6464,-1.6464,-1.6482,-1.6621,-1.6621,-1.6691,-1.6751,-1.689,-1.6959,-1.7038,-1.7116,-1.7185,-1.7157,-1.7052,-1.6253,-1.5778,-1.5405,-1.5256,-1.4996,-1.5039,-1.5079,-1.5118,-1.5254,-1.5216,-1.5196,-1.5284,-1.5469,-1.5449,-1.541,-1.5381,-1.5439,-1.5508,-1.5614,-1.5768,-1.5758,-1.5758,-1.5884,-1.5961,-1.6077,-1.6124,-1.6296,-1.6363,-1.6363,-1.6363,-1.6363,-1.6296,-1.6249,-1.6192,-1.6066,-1.6009,-1.5836,-1.5604,-1.5362,-1.5245,-1.5128,-1.5069,-1.4961,-1.4843,-1.4725,-1.4606,-1.4488,-1.4359,-1.424,-1.4052,-1.3983,-1.3803,-1.3692,-1.3692,-1.3692,-1.37,-1.37,-1.37,-1.37,-1.3597,-1.3597,-1.3588,-1.3398,-1.3164,-1.2981,-1.2867,-1.2867,-1.2805,-1.2621,-1.2421,-1.2151,-1.1744,-1.1221,-1.8371,-1.8709,-1.8709,-1.8709,-1.8709,-1.8709,-1.87,-1.8772,-1.8772,-1.8772,-1.8843,-1.8762,-1.8797,-1.8749,-1.8411,-1.7897,-1.7367,-1.7009,-1.6848,-1.6839,-1.6839,-1.6899,-1.6908,-1.6908,-1.6839,-1.6839,-1.683,-1.683,-1.6682,-1.6682,-1.6751,-1.683,-1.6908,-1.6899,-1.6968,-1.7097,-1.7166,-1.7314,-1.7451,-1.7539,-1.7425,-1.7273,-1.6854,-1.6376,-1.5995,-1.5603,-1.5214,-1.5342,-1.5449,-1.5468,-1.5584,-1.5613,-1.5399,-1.5776,-1.608,-1.6093,-1.5896,-1.5856,-1.5904,-1.5961,-1.6077,-1.6228,-1.6228,-1.6285,-1.6343,-1.641,-1.6477,-1.6637,-1.6694,-1.6761,-1.6705,-1.6761,-1.6694,-1.6637,-1.6581,-1.6581,-1.6467,-1.641,-1.641,-1.6114,-1.5874,-1.57,-1.5652,-1.5488,-1.5381,-1.5264,-1.5137,-1.5029,-1.4911,-1.4725,-1.4597,-1.441,-1.4231,-1.4121,-1.4001,-1.3881,-1.3881,-1.3881,-1.389,-1.3881,-1.395,-1.395,-1.395,-1.389,-1.3709,-1.3407,-1.3224,-1.3103,-1.3164,-1.3103,-1.2989,-1.2736,-1.2405,-1.2143,-1.1736,-1.862,-1.87,-1.8709,-1.8709,-1.87,-1.87,-1.8763,-1.8975,-1.8886,-1.9073,-1.9025,-1.8857,-1.8702,-1.8519,-1.7935,-1.744,-1.7082,-1.6954,-1.6908,-1.6908,-1.6908,-1.6908,-1.6908,-1.6908,-1.6908,-1.6908,-1.6908,-1.6908,-1.683,-1.6839,-1.6908,-1.6908,-1.6978,-1.6968,-1.7176,-1.7304,-1.7314,-1.7461,-1.7588,-1.7628,-1.758,-1.7755,-1.7546,-1.7071,-1.6543,-1.6001,-1.5674,-1.5808,-1.5866,-1.5846,-1.5951,-1.6134,-1.6259,-1.641,-1.6633,-1.6654,-1.6452,-1.6181,-1.64,-1.6467,-1.6534,-1.6637,-1.6694,-1.6751,-1.6751,-1.6807,-1.6818,-1.6761,-1.6818,-1.6874,-1.6931,-1.6874,-1.6818,-1.6874,-1.6874,-1.6864,-1.6751,-1.6864,-1.6864,-1.6761,-1.6513,-1.6285,-1.6181,-1.5961,-1.5798,-1.5682,-1.5614,-1.5449,-1.5264,-1.5079,-1.4911,-1.4793,-1.4538,-1.4359,-1.4249,-1.4189,-1.4139,-1.407,-1.407,-1.407,-1.413,-1.4139,-1.407,-1.395,-1.383,-1.3769,-1.3649,-1.3588,-1.3528,-1.3407,-1.3233,-1.2989,-1.2683,-1.2421,-1.2151,-1.9082,-1.9002,-1.9082,-1.9073,-1.9002,-1.9082,-1.8946,-1.8852,-1.8816,-1.8766,-1.8641,-1.8467,-1.8256,-1.7981,-1.7596,-1.7293,-1.6982,-1.6908,-1.6908,-1.6908,-1.6908,-1.6908,-1.6908,-1.6908,-1.6908,-1.6908,-1.6908,-1.6908,-1.6908,-1.6908,-1.6968,-1.7038,-1.7116,-1.7185,-1.7392,-1.7588,-1.7666,-1.7803,-1.7998,-1.8114,-1.8172,-1.8267,-1.8233,-1.778,-1.7099,-1.6568,-1.6222,-1.6405,-1.6394,-1.6374,-1.641,-1.6545,-1.668,-1.6782,-1.6896,-1.7298,-1.7019,-1.6751,-1.6751,-1.6751,-1.6864,-1.7043,-1.7099,-1.7166,-1.7267,-1.7267,-1.7267,-1.7323,-1.7323,-1.7267,-1.7267,-1.7312,-1.7312,-1.7312,-1.7211,-1.7267,-1.7256,-1.7323,-1.7323,-1.7267,-1.7155,-1.6931,-1.6694,-1.6524,-1.6306,-1.6124,-1.6009,-1.5836,-1.5662,-1.542,-1.5264,-1.5117,-1.4852,-1.4529,-1.4478,-1.4428,-1.4387,-1.4327,-1.4327,-1.4327,-1.4318,-1.4318,-1.4258,-1.4258,-1.4267,-1.4198,-1.407,-1.395,-1.3769,-1.3657,-1.3476,-1.3233,-1.2981,-1.2621,-1.2235,-1.91,-1.9026,-1.9219,-1.9246,-1.9155,-1.9155,-1.8926,-1.8586,-1.8662,-1.8421,-1.8155,-1.8018,-1.7743,-1.7422,-1.733,-1.7156,-1.6917,-1.6908,-1.6908,-1.6908,-1.6908,-1.6908,-1.6908,-1.6908,-1.6978,-1.6978,-1.7116,-1.7116,-1.7116,-1.7047,-1.7116,-1.7166,-1.7304,-1.7451,-1.7666,-1.7872,-1.8076,-1.8337,-1.8539,-1.8664,-1.871,-1.8865,-1.8674,-1.827,-1.7677,-1.7061,-1.6566,-1.6747,-1.6804,-1.6782,-1.6807,-1.6941,-1.7019,-1.711,-1.7222,-1.749,-1.739,-1.7267,-1.7155,-1.7099,-1.7155,-1.7323,-1.7379,-1.7434,-1.7601,-1.7711,-1.7711,-1.7656,-1.7656,-1.7656,-1.7711,-1.7656,-1.7601,-1.7601,-1.7601,-1.7656,-1.7711,-1.7656,-1.7601,-1.749,-1.7434,-1.7445,-1.7211,-1.7032,-1.6864,-1.6637,-1.6457,-1.6285,-1.6056,-1.5758,-1.5546,-1.54,-1.5147,-1.4883,-1.4725,-1.4675,-1.4634,-1.4575,-1.4575,-1.4625,-1.4625,-1.4625,-1.4625,-1.4625,-1.4565,-1.4497,-1.4359,-1.4189,-1.4019,-1.383,-1.3649,-1.3528,-1.3285,-1.292,-1.2389,-1.854,-1.8265,-1.899,-1.9063,-1.8751,-1.8751,-1.8531,-1.8174,-1.8369,-1.8313,-1.7954,-1.7706,-1.733,-1.7134,-1.7088,-1.7051,-1.6917,-1.6908,-1.6978,-1.6978,-1.6908,-1.6978,-1.7047,-1.7116,-1.7176,-1.7176,-1.7254,-1.7392,-1.7461,-1.7392,-1.7323,-1.7235,-1.751,-1.7716,-1.7998,-1.8279,-1.8607,-1.8875,-1.9085,-1.91,-1.9135,-1.9259,-1.919,-1.8685,-1.8126,-1.7452,-1.6747,-1.6952,-1.7086,-1.7008,-1.7166,-1.7267,-1.7278,-1.7434,-1.7557,-1.7667,-1.7667,-1.759,-1.7534,-1.7545,-1.7601,-1.7656,-1.7711,-1.7711,-1.7767,-1.7711,-1.7711,-1.7767,-1.7767,-1.7767,-1.7711,-1.7711,-1.7767,-1.7767,-1.7822,-1.781,-1.781,-1.7767,-1.7711,-1.7711,-1.7656,-1.7656,-1.7601,-1.7423,-1.72,-1.6976,-1.674,-1.657,-1.6353,-1.6124,-1.5826,-1.5662,-1.5478,-1.5245,-1.5029,-1.4921,-1.4862,-1.4862,-1.4803,-1.4862,-1.4921,-1.4921,-1.4862,-1.4862,-1.4793,-1.4725,-1.4656,-1.4428,-1.4249,-1.407,-1.389,-1.3709,-1.3407,-1.2981,-1.2552,-1.8163,-1.7886,-1.8373,-1.8495,-1.8348,-1.8357,-1.8119,-1.7779,-1.7825,-1.7749,-1.7589,-1.7394,-1.7325,-1.7292,-1.7254,-1.7254,-1.7254,-1.7263,-1.7254,-1.7254,-1.7254,-1.7254,-1.7323,-1.7323,-1.7382,-1.7392,-1.747,-1.7598,-1.7588,-1.7735,-1.7862,-1.7852,-1.792,-1.8134,-1.8414,-1.8741,-1.9075,-1.9274,-1.9483,-1.9441,-1.9454,-1.9372,-1.9282,-1.8945,-1.8467,-1.7901,-1.7389,-1.739,-1.739,-1.7379,-1.7501,-1.749,-1.7545,-1.7656,-1.7767,-1.781,-1.781,-1.7865,-1.7865,-1.7822,-1.7755,-1.7854,-1.792,-1.792,-1.792,-1.7931,-1.792,-1.792,-1.792,-1.7931,-1.792,-1.792,-1.7975,-1.7975,-1.792,-1.792,-1.792,-1.7865,-1.7865,-1.7865,-1.7865,-1.7799,-1.7755,-1.77,-1.7534,-1.7312,-1.7088,-1.6853,-1.6637,-1.6477,-1.6171,-1.5941,-1.5768,-1.5526,-1.5371,-1.5205,-1.5088,-1.5098,-1.5098,-1.5098,-1.5156,-1.5029,-1.497,-1.497,-1.497,-1.4902,-1.4843,-1.4666,-1.4488,-1.4249,-1.4079,-1.3959,-1.3528,-1.3103,-1.2674,-1.7917,-1.7715,-1.7815,-1.7908,-1.7926,-1.7935,-1.7697,-1.7429,-1.7463,-1.7394,-1.7314,-1.7314,-1.7314,-1.7461,-1.747,-1.747,-1.7461,-1.7461,-1.7461,-1.7461,-1.7529,-1.752,-1.7588,-1.7657,-1.7803,-1.7735,-1.7803,-1.7872,-1.7998,-1.8066,-1.8269,-1.8395,-1.8405,-1.8607,-1.8875,-1.933,-1.9605,-1.9726,-1.9868,-1.9836,-1.9781,-1.9797,-1.9254,-1.9004,-1.8583,-1.8272,-1.7801,-1.7601,-1.7678,-1.7734,-1.7723,-1.7755,-1.7767,-1.7822,-1.7865,-1.792,-1.7963,-1.803,-1.803,-1.7986,-1.7865,-1.7963,-1.8018,-1.8084,-1.8084,-1.8084,-1.8084,-1.8084,-1.8084,-1.8084,-1.8084,-1.8084,-1.803,-1.803,-1.803,-1.803,-1.803,-1.803,-1.803,-1.803,-1.8018,-1.7963,-1.7909,-1.7865,-1.77,-1.7534,-1.7368,-1.7145,-1.6987,-1.6761,-1.6581,-1.6353,-1.6134,-1.5894,-1.5652,-1.5546,-1.5498,-1.5449,-1.5449,-1.5391,-1.5391,-1.5264,-1.5205,-1.5264,-1.5264,-1.5147,-1.5029,-1.4852,-1.4675,-1.4488,-1.4318,-1.4088,-1.3709,-1.3216,-1.292,-1.7877,-1.7499,-1.7527,-1.7544,-1.7567,-1.7504,-1.7435,-1.7269,-1.732,-1.7439,-1.7548,-1.7539,-1.7461,-1.7539,-1.7598,-1.7666,-1.7598,-1.7598,-1.7608,-1.7666,-1.7794,-1.7706,-1.7842,-1.7988,-1.8144,-1.8269,-1.8337,-1.8347,-1.8472,-1.8539,-1.8741,-1.8967,-1.9003,-1.9079,-1.9187,-1.9781,-2.0042,-2.0096,-2.0409,-2.025,-2.0183,-2.0127,-1.934,-1.8672,-1.8612,-1.8351,-1.7946,-1.7833,-1.791,-1.7988,-1.7943,-1.792,-1.792,-1.7975,-1.803,-1.8084,-1.8084,-1.8084,-1.8084,-1.8084,-1.8084,-1.8084,-1.8073,-1.8084,-1.8084,-1.8084,-1.8084,-1.8084,-1.8084,-1.8084,-1.8084,-1.8084,-1.8084,-1.8084,-1.8084,-1.8084,-1.8084,-1.8084,-1.8084,-1.8084,-1.8084,-1.8084,-1.803,-1.7963,-1.7854,-1.77,-1.759,-1.7434,-1.7267,-1.7099,-1.6874,-1.6705,-1.6477,-1.6249,-1.6009,-1.5904,-1.5856,-1.5856,-1.5798,-1.5682,-1.5682,-1.5682,-1.5624,-1.5624,-1.5566,-1.5439,-1.5264,-1.5098,-1.4852,-1.4606,-1.4387,-1.4148,-1.3769,-1.339,-1.3155,-1.7681,-1.7558,-1.7539,-1.7477,-1.746,-1.746,-1.7445,-1.7411,-1.747,-1.7529,-1.7657,-1.7657,-1.7735,-1.7803,-1.794,-1.7998,-1.7998,-1.8144,-1.8144,-1.8144,-1.8202,-1.8202,-1.8269,-1.8405,-1.8472,-1.8472,-1.8607,-1.8808,-1.8865,-1.89,-1.9121,-1.9375,-1.9275,-1.9533,-1.9771,-2.015,-2.0213,-2.0042,-2.0091,-2.0228,-2.0372,-1.9815,-1.9019,-1.8157,-1.8362,-1.8269,-1.7998,-1.7943,-1.8009,-1.8098,-1.803,-1.803,-1.803,-1.8084,-1.8084,-1.8084,-1.8084,-1.8084,-1.8084,-1.8084,-1.8084,-1.8084,-1.8084,-1.8084,-1.8084,-1.8084,-1.8084,-1.8139,-1.8139,-1.8139,-1.8084,-1.8084,-1.8084,-1.8084,-1.8084,-1.8084,-1.8084,-1.8084,-1.8084,-1.8084,-1.8084,-1.8084,-1.8084,-1.8084,-1.7975,-1.792,-1.7755,-1.7645,-1.7545,-1.7334,-1.7166,-1.7043,-1.6874,-1.6602,-1.6374,-1.6259,-1.6134,-1.6019,-1.5972,-1.5856,-1.5856,-1.6029,-1.5972,-1.5914,-1.5798,-1.5672,-1.5498,-1.5264,-1.4961,-1.4725,-1.4556,-1.4327,-1.395,-1.364,-1.3338,-1.7881,-1.7891,-1.7881,-1.7872,-1.7813,-1.7608,-1.7539,-1.7676,-1.7803,-1.793,-1.7988,-1.7988,-1.8066,-1.8212,-1.8279,-1.8337,-1.8405,-1.8549,-1.8617,-1.8617,-1.8741,-1.8741,-1.8818,-1.8818,-1.8942,-1.8942,-1.9008,-1.9142,-1.9243,-1.9173,-1.9168,-1.919,-1.9331,-1.9434,-1.9736,-1.9872,-1.9963,-1.9851,-1.9928,-1.9984,-1.9971,-1.9587,-1.8862,-1.8328,-1.8157,-1.8084,-1.8084,-1.8084,-1.8084,-1.8084,-1.8084,-1.8084,-1.8084,-1.8127,-1.8127,-1.8193,-1.8247,-1.8302,-1.8302,-1.8302,-1.8302,-1.8302,-1.8193,-1.8084,-1.8139,-1.8193,-1.8193,-1.8205,-1.8193,-1.8247,-1.8236,-1.8236,-1.8236,-1.8236,-1.8236,-1.8236,-1.8236,-1.829,-1.8247,-1.8247,-1.8193,-1.8139,-1.8084,-1.8084,-1.8084,-1.803,-1.7975,-1.7865,-1.7755,-1.7545,-1.739,-1.7267,-1.7155,-1.6931,-1.6705,-1.6591,-1.642,-1.6249,-1.6192,-1.6134,-1.6249,-1.6363,-1.6259,-1.6144,-1.6087,-1.5961,-1.5672,-1.543,-1.5196,-1.4902,-1.4666,-1.4437,-1.4139,-1.389,-1.3588,-1.8482,-1.8482,-1.8462,-1.8432,-1.8375,-1.7755,-1.7716,-1.7998,-1.8347,-1.8482,-1.8482,-1.8414,-1.8414,-1.8482,-1.8549,-1.8549,-1.8607,-1.8808,-1.8875,-1.8942,-1.9142,-1.9218,-1.9285,-1.9417,-1.9351,-1.9462,-1.953,-1.9359,-1.9498,-1.9212,-1.8919,-1.8873,-1.8994,-1.9164,-1.9317,-1.9358,-1.9429,-1.9536,-1.9595,-1.9576,-1.9424,-1.9375,-1.8779,-1.8313,-1.8107,-1.8084,-1.8139,-1.8139,-1.815,-1.815,-1.8139,-1.8139,-1.8116,-1.8135,-1.8267,-1.8398,-1.853,-1.8506,-1.856,-1.8506,-1.8506,-1.8452,-1.8302,-1.8193,-1.8193,-1.8302,-1.8356,-1.841,-1.8398,-1.8506,-1.856,-1.8506,-1.8506,-1.8506,-1.8506,-1.8506,-1.8506,-1.8506,-1.8464,-1.841,-1.8356,-1.8302,-1.8193,-1.8139,-1.8139,-1.8084,-1.803,-1.7975,-1.7865,-1.7755,-1.759,-1.7534,-1.7368,-1.72,-1.7032,-1.6864,-1.6694,-1.6524,-1.6581,-1.6534,-1.6705,-1.6705,-1.6534,-1.642,-1.6431,-1.6259,-1.5961,-1.5672,-1.5371,-1.5079,-1.4843,-1.4547,-1.4258,-1.4139,-1.389,-1.8482,-1.8452,-1.8329,-1.8187,-1.8147,-1.7917,-1.8001,-1.8365,-1.8482,-1.8482,-1.8482,-1.8482,-1.8536,-1.8741,-1.8865,-1.8931,-1.9142,-1.9274,-1.9341,-1.9396,-1.942,-1.9462,-1.9518,-1.9541,-1.9584,-1.9521,-1.949,-1.9425,-1.938,-1.9124,-1.8984,-1.8999,-1.8776,-1.886,-1.8782,-1.868,-1.8874,-1.9057,-1.9126,-1.8953,-1.8744,-1.8695,-1.8366,-1.8208,-1.8139,-1.8139,-1.8127,-1.8325,-1.8391,-1.8468,-1.8422,-1.8452,-1.8441,-1.8405,-1.8405,-1.8583,-1.8637,-1.856,-1.8614,-1.8602,-1.8614,-1.8667,-1.8506,-1.8506,-1.8506,-1.8518,-1.8572,-1.8614,-1.8667,-1.8721,-1.8721,-1.8721,-1.8721,-1.8721,-1.8721,-1.8721,-1.8721,-1.8732,-1.8679,-1.8572,-1.8518,-1.841,-1.8302,-1.8193,-1.8139,-1.8139,-1.8084,-1.8084,-1.803,-1.792,-1.7799,-1.7689,-1.759,-1.7423,-1.7256,-1.7088,-1.692,-1.6807,-1.6864,-1.6931,-1.6874,-1.6874,-1.6807,-1.6705,-1.6658,-1.6488,-1.6259,-1.5961,-1.5546,-1.5313,-1.5079,-1.4725,-1.4437,-1.4258,-1.4079,-1.8352,-1.8376,-1.8194,-1.8133,-1.8144,-1.8081,-1.8197,-1.8376,-1.8352,-1.8363,-1.8363,-1.8387,-1.8575,-1.883,-1.8982,-1.9141,-1.9407,-1.966,-1.9791,-1.9759,-1.9663,-1.9716,-1.9694,-1.9479,-1.9369,-1.9367,-1.9331,-1.9298,-1.9227,-1.9015,-1.8879,-1.8553,-1.8397,-1.8487,-1.8429,-1.8347,-1.8324,-1.8506,-1.8552,-1.8391,-1.821,-1.8139,-1.815,-1.8271,-1.8205,-1.8116,-1.8147,-1.841,-1.863,-1.8708,-1.8714,-1.8614,-1.8614,-1.8536,-1.8632,-1.8798,-1.8851,-1.8839,-1.8893,-1.8934,-1.8934,-1.8934,-1.8881,-1.8934,-1.8881,-1.8839,-1.8827,-1.8774,-1.8881,-1.8934,-1.8934,-1.8934,-1.8934,-1.8934,-1.8934,-1.8946,-1.8893,-1.8893,-1.8786,-1.8679,-1.8572,-1.8464,-1.8356,-1.8247,-1.8193,-1.8139,-1.8084,-1.8084,-1.8084,-1.803,-1.7909,-1.7854,-1.7744,-1.7645,-1.7479,-1.7312,-1.7256,-1.72,-1.7267,-1.7267,-1.7155,-1.7155,-1.7145,-1.7043,-1.6885,-1.6715,-1.6488,-1.6134,-1.5778,-1.5546,-1.5245,-1.4902,-1.4556,-1.4378,-1.4198,-1.8193,-1.8254,-1.819,-1.8198,-1.8176,-1.8123,-1.8144,-1.8187,-1.8176,-1.8179,-1.8193,-1.8214,-1.8479,-1.8744,-1.8924,-1.9116,-1.9383,-1.964,-1.9736,-2.0018,-1.9728,-1.9687,-1.9543,-1.9398,-1.9238,-1.9148,-1.903,-1.8974,-1.8888,-1.8701,-1.8351,-1.7931,-1.8087,-1.8199,-1.8253,-1.8196,-1.8262,-1.8351,-1.8374,-1.8251,-1.8162,-1.8127,-1.8271,-1.8457,-1.8356,-1.8232,-1.8251,-1.8459,-1.8714,-1.8857,-1.8834,-1.8667,-1.8721,-1.8786,-1.8893,-1.8987,-1.9105,-1.917,-1.917,-1.9263,-1.9316,-1.9368,-1.942,-1.9356,-1.9303,-1.9158,-1.9052,-1.904,-1.9146,-1.9251,-1.9251,-1.9303,-1.9356,-1.9303,-1.9303,-1.9251,-1.9251,-1.9158,-1.9064,-1.8946,-1.8786,-1.8679,-1.8518,-1.8464,-1.8356,-1.8247,-1.8193,-1.8193,-1.8193,-1.8193,-1.8084,-1.8018,-1.792,-1.7822,-1.77,-1.759,-1.7601,-1.7601,-1.7656,-1.7601,-1.7434,-1.749,-1.7601,-1.7379,-1.7166,-1.6874,-1.6648,-1.6296,-1.6009,-1.5662,-1.5313,-1.502,-1.4784,-1.4556,-1.4327,-1.8283,-1.8351,-1.8246,-1.8071,-1.7866,-1.7833,-1.7855,-1.7833,-1.7844,-1.7984,-1.8198,-1.8315,-1.847,-1.8595,-1.8833,-1.9037,-1.9142,-1.9419,-1.9354,-1.9388,-1.9354,-1.9358,-1.9264,-1.9112,-1.9067,-1.9033,-1.8879,-1.8623,-1.8442,-1.8271,-1.8201,-1.8107,-1.8139,-1.8193,-1.8313,-1.8302,-1.8356,-1.8398,-1.8398,-1.8333,-1.819,-1.8143,-1.8251,-1.8572,-1.8583,-1.8572,-1.8667,-1.8744,-1.8911,-1.8976,-1.897,-1.8934,-1.891,-1.9052,-1.917,-1.9275,-1.9368,-1.938,-1.9433,-1.9525,-1.9577,-1.9617,-1.9656,-1.9656,-1.9604,-1.942,-1.9368,-1.9368,-1.942,-1.9512,-1.9617,-1.9668,-1.972,-1.9668,-1.9604,-1.9617,-1.9565,-1.942,-1.9275,-1.9158,-1.8987,-1.8839,-1.8732,-1.8625,-1.856,-1.8506,-1.8506,-1.8506,-1.8452,-1.8464,-1.8302,-1.8182,-1.8107,-1.7998,-1.7931,-1.7865,-1.792,-1.7822,-1.7822,-1.7767,-1.7711,-1.7711,-1.7711,-1.7601,-1.7434,-1.7155,-1.6874,-1.6534,-1.6181,-1.5836,-1.5478,-1.5186,-1.5029,-1.4862,-1.4625,-1.8006,-1.8079,-1.7999,-1.7846,-1.7745,-1.7711,-1.7711,-1.7711,-1.7711,-1.7789,-1.7962,-1.805,-1.8196,-1.8294,-1.8456,-1.8773,-1.8888,-1.9179,-1.9317,-1.9239,-1.9016,-1.903,-1.8962,-1.878,-1.8634,-1.8566,-1.8487,-1.8281,-1.8162,-1.8205,-1.8282,-1.8259,-1.8247,-1.8356,-1.8464,-1.8518,-1.8506,-1.856,-1.8602,-1.8525,-1.834,-1.837,-1.8501,-1.8768,-1.8857,-1.8899,-1.8928,-1.8982,-1.9124,-1.9177,-1.9182,-1.9146,-1.9174,-1.9303,-1.9433,-1.9537,-1.9641,-1.9668,-1.9668,-1.9772,-1.9862,-1.9914,-1.9914,-1.9965,-2.0067,-1.9926,-1.9784,-1.9836,-1.9836,-1.9926,-1.9926,-1.9978,-1.9978,-1.9965,-1.9914,-1.9862,-1.9759,-1.9604,-1.946,-1.9263,-1.9158,-1.8999,-1.8905,-1.8744,-1.8679,-1.856,-1.8614,-1.8614,-1.8614,-1.8679,-1.8518,-1.841,-1.8325,-1.8325,-1.8302,-1.8247,-1.8193,-1.8084,-1.7986,-1.7986,-1.7986,-1.7931,-1.7877,-1.7767,-1.7656,-1.7445,-1.7099,-1.6751,-1.641,-1.6009,-1.5652,-1.5294,-1.5254,-1.5156,-1.4911,-1.7745,-1.7711,-1.7778,-1.7767,-1.7767,-1.7767,-1.7767,-1.7767,-1.7767,-1.7767,-1.779,-1.7767,-1.7947,-1.8024,-1.7988,-1.8389,-1.8684,-1.8814,-1.9066,-1.9044,-1.8828,-1.8782,-1.8655,-1.8437,-1.838,-1.8322,-1.8285,-1.8262,-1.8247,-1.8302,-1.8422,-1.8476,-1.8518,-1.8614,-1.8614,-1.8625,-1.8679,-1.8721,-1.8721,-1.875,-1.8697,-1.8655,-1.8798,-1.894,-1.903,-1.8994,-1.9076,-1.9182,-1.9336,-1.9377,-1.9405,-1.9368,-1.9448,-1.9512,-1.9745,-1.9861,-2.0003,-2.0042,-2.0093,-2.0169,-2.022,-2.0271,-2.0271,-2.0321,-2.0422,-2.0422,-2.0283,-2.0283,-2.0283,-2.0283,-2.0271,-2.0283,-2.0283,-2.0283,-2.022,-2.0169,-2.0003,-1.985,-1.9656,-1.9473,-1.9368,-1.921,-1.9064,-1.8958,-1.8839,-1.8732,-1.8667,-1.8679,-1.8732,-1.8839,-1.8786,-1.8732,-1.8625,-1.8625,-1.856,-1.8506,-1.841,-1.8356,-1.8302,-1.8259,-1.8259,-1.815,-1.8096,-1.7975,-1.7865,-1.7601,-1.7312,-1.6965,-1.657,-1.6181,-1.5941,-1.5594,-1.543,-1.5332,-1.5147,-1.7755,-1.7854,-1.7975,-1.803,-1.803,-1.8041,-1.803,-1.8041,-1.8041,-1.8041,-1.803,-1.7984,-1.8009,-1.7857,-1.8012,-1.8238,-1.8362,-1.8486,-1.836,-1.829,-1.8492,-1.8467,-1.8464,-1.8472,-1.8433,-1.8398,-1.8452,-1.8506,-1.8398,-1.8518,-1.8572,-1.8572,-1.856,-1.8667,-1.8732,-1.8786,-1.8786,-1.8839,-1.8881,-1.8922,-1.8934,-1.8934,-1.8934,-1.9011,-1.9011,-1.8987,-1.9081,-1.9182,-1.9454,-1.9571,-1.9574,-1.9577,-1.9656,-1.9811,-1.999,-2.0156,-2.0309,-2.0334,-2.0422,-2.0523,-2.056,-2.0623,-2.0673,-2.0736,-2.0835,-2.0822,-2.0785,-2.0785,-2.0772,-2.066,-2.066,-2.0736,-2.0736,-2.0686,-2.0636,-2.0472,-2.0308,-2.0169,-2.0016,-1.9811,-1.9656,-1.9512,-1.9368,-1.9263,-1.921,-1.9158,-1.9158,-1.9105,-1.8999,-1.9064,-1.9064,-1.8999,-1.8946,-1.8774,-1.8667,-1.8667,-1.8572,-1.8572,-1.8572,-1.8464,-1.841,-1.8422,-1.8313,-1.8193,-1.7963,-1.7755,-1.7468,-1.7134,-1.6807,-1.641,-1.6181,-1.5951,-1.573,-1.5566,-1.5439]},{"header":{"parameterUnit":"m.s-1","parameterCategory":1,"la1":31.0,"la2":29.5877,"lo1":-88.7671,"lo2":-86.6584,"dy":0.0162,"dx":0.0185,"nx":115,"ny":88,"refTime":"2023-09-08T18:00:00:Z","depth":0,"parameterNumber":3,"parameterNumberName":"V-component_of_WINDS"},"data":[0.0,0.0,0.0,0.0,0.0,0.0,0.0,0.0,0.0,0.0,0.0,0.0,0.0,0.0,0.0,0.0,0.0,0.0,0.0,0.0,0.0,0.0,0.0,0.0,0.0,0.0,0.0,0.0,0.0,0.0,0.0,0.0,0.0,0.0,0.0,0.0,0.0,0.0,0.0,0.0,0.0,0.0,0.0,0.0,0.0,0.0,0.0,0.0,0.0,0.0,0.0,0.0,0.0,0.0,0.0,0.0,0.0,0.0,0.0,0.0,0.0,0.0,0.0,0.0,0.0,0.0,0.0,0.0,0.0,0.0,0.0,0.0,0.0,0.0,0.0,0.0,0.0,0.0,0.0,0.0,0.0,0.0,0.0,0.0,0.0,0.0,0.0,0.0,0.0,0.0,0.0,0.0,0.0,0.0,0.0,0.0,0.0,0.0,0.0,0.0,0.0,0.0,0.0,0.0,0.0,0.0,0.0,0.0,0.0,0.0,0.0,0.0,0.0,0.0,0.0,0.0,0.0,0.0,0.0,0.0,0.0,0.0,0.0,0.0,0.0,0.0,0.0,0.0,0.0,0.0,0.0,0.0,0.0,0.0,0.0,0.0,0.0,0.0,0.0,0.0,0.0,0.0,0.0,0.0,0.0,0.0,0.0,0.0,0.0,0.0,0.0,0.0,0.0,0.0,0.0,0.0,0.0,0.0,0.0,0.0,0.0,0.0,0.0,0.0,0.0,0.0,0.0,0.0,0.0,0.0,0.0,0.0,0.0,0.0,0.0,0.0,0.0,0.0,0.0,0.0,0.0,0.0,0.0,0.0,0.0,0.0,0.0,0.0,0.0,0.0,0.0,0.0,0.0,0.0,0.0,0.0,0.0,0.0,0.0,0.0,0.0,0.0,0.0,0.0,0.0,0.0,0.0,0.0,0.0,0.0,0.0,0.0,0.0,0.0,0.0,0.0,0.0,0.0,0.0,0.0,0.0,0.0,0.0,0.0,0.0,0.0,0.0,0.0,0.0,0.0,0.0,0.0,0.0,0.0,0.0,0.0,0.0,0.0,0.0,0.0,0.0,0.0,0.0,0.0,0.0,0.0,0.0,0.0,0.0,0.0,0.0,0.0,0.0,0.0,0.0,0.0,0.0,0.0,0.0,0.0,0.0,0.0,0.0,0.0,0.0,0.0,0.0,0.0,0.0,0.0,0.0,0.0,0.0,0.0,0.0,0.0,0.0,0.0,0.0,0.0,0.0,0.0,0.0,0.0,0.0,0.0,0.0,0.0,0.0,0.0,0.0,0.0,0.0,0.0,0.0,0.0,0.0,0.0,0.0,0.0,0.0,0.0,0.0,0.0,0.0,0.0,0.0,0.0,0.0,0.0,0.0,0.0,0.0,0.0,0.0,0.0,0.0,0.0,0.0,0.0,0.0,0.0,0.0,0.0,0.0,0.0,0.0,0.0,0.0,0.0,0.0,0.0,0.0,0.0,0.0,0.0,0.0,0.0,0.0,0.0,0.0,0.0,0.0,0.0,0.0,0.0,0.0,0.0,0.0,0.0,0.0,0.0,0.0,0.0,0.0,0.0,0.0,0.0,0.0,0.0,0.0,0.0,0.0,0.0,0.0,0.0,0.0,0.0,0.0,0.0,0.0,0.0,0.0,0.0,0.0,0.0,0.0,0.0,0.0,0.0,0.0,0.0,0.0,0.0,0.0,0.0,0.0,0.0,0.0,0.0,0.0,0.0,0.0,0.0,0.0,0.0,0.0,0.0,0.0,0.0,0.0,0.0,0.0,0.0,0.0,0.0,0.0,0.0,0.0,0.0,0.0,0.0,0.0,0.0,0.0,0.0,0.0,0.0,0.0,0.0,0.0,0.0,0.0,0.0,0.0,0.0,0.0,0.0,0.0,0.0,0.0,0.0,0.0,0.0,0.0,0.0,0.0,0.0,0.0,0.0,0.0,0.0,0.0,0.0,0.0,0.0,0.0,0.0,0.0,0.0,0.0,0.0,0.0,0.0,0.0,0.0,0.0,0.0,0.0,0.0,0.0,0.0,0.0,0.0,0.0,0.0,0.0,0.0,0.0,0.0,0.0,0.0,0.0,0.0,0.0,0.0,0.0,0.0,0.0,0.0,0.0,0.0,0.0,0.0,0.0,0.0,0.0,0.0,0.0,0.0,0.0,0.0,0.0,0.0,0.0,0.0,0.0,0.0,0.0,0.0,0.0,0.0,0.0,0.0,0.0,0.0,0.0,0.0,0.0,0.0,0.0,0.0,0.0,0.0,0.0,0.0,0.0,0.0,0.0,0.0,0.0,0.0,0.0,0.0,0.0,0.0,0.0,0.0,0.0,0.0,0.0,0.0,0.0,0.0,0.0,0.0,0.0,0.0,0.0,0.0,0.0,0.0,0.0,0.0,0.0,0.0,0.0,0.0,0.0,0.0,0.0,0.0,0.0,0.0,0.0,0.0,0.0,0.0,0.0,0.0,0.0,0.0,0.0,0.0,0.0,0.0,0.0,0.0,0.0,0.0,0.0,0.0,0.0,0.0,0.0,0.0,0.0,0.0,0.0,0.0,0.0,0.0,0.0,0.0,0.0,0.0,0.0,0.0,0.0,0.0,0.0,0.0,0.0,0.0,0.0,0.0,0.0,0.0,0.0,0.0,0.0,0.0,0.0,0.0,0.0,0.0,0.0,0.0,0.0,0.0,0.0,0.0,0.0,0.0,0.0,0.0,0.0,0.0,0.0,0.0,0.0,0.0,0.0,0.0,0.0,0.0,0.0,0.0,0.0,0.0,0.0,0.0,0.0,0.0,0.0,0.0,0.0,0.0,0.0,0.0,0.0,0.0,0.0,0.0,0.0,0.0,0.0,0.0,0.0,0.0,0.0,0.0,0.0,0.0,0.0,0.0,0.0,0.0,0.0,0.0,0.0,0.0,0.0,0.0,0.0,0.0,0.0,0.0,0.0,0.0,0.0,0.0,0.0,0.0,0.0,0.0,0.0,0.0,0.0,0.0,0.0,0.0,0.0,0.0,0.0,0.0,0.0,0.0,0.0,0.0,0.0,0.0,0.0,0.0,0.0,0.0,0.0,0.0,0.0,0.0,0.0,0.0,0.0,0.0,0.0,0.0,0.0,0.0,0.0,0.0,0.0,0.0,0.0,0.0,0.0,0.0,0.0,0.0,0.0,0.0,0.0,0.0,0.0,0.0,0.0,0.0,0.0,0.0,0.0,0.0,0.0,0.0,0.0,0.0,0.0,0.0,0.0,0.0,0.0,0.0,0.0,0.0,0.0,0.0,0.0,0.0,0.0,0.0,0.0,0.0,0.0,0.0,0.0,0.0,0.0,0.0,0.0,0.0,0.0,0.0,0.0,0.0,0.0,0.0,0.0,0.0,0.0,0.0,0.0,0.0,0.0,0.0,0.0,0.0,0.0,0.0,0.0,0.0,0.0,0.0,0.0,0.0,0.0,0.0,0.0,0.0,0.0,0.0,0.0,0.0,0.0,0.0,0.0,0.0,0.0,0.0,0.0,0.0,0.0,0.0,0.0,0.0,0.0,0.0,0.0,0.0,0.0,0.0,0.0,0.0,0.0,0.0,0.0,0.0,0.0,0.0,0.0,0.0,0.0,0.0,0.0,0.0,0.0,0.0,0.0,0.0,0.0,0.0,0.0,0.0,0.0,0.0,0.0,0.0,0.0,0.0,0.0,0.0,0.0,0.0,0.0,0.0,0.0,0.0,0.0,0.0,0.0,0.0,0.0,0.0,0.0,0.0,0.0,0.0,0.0,0.0,0.0,0.0,0.0,0.0,0.0,0.0,0.0,0.0,0.0,0.0,0.0,0.0,0.0,0.0,0.0,0.0,0.0,0.0,0.0,0.0,0.0,0.0,0.0,0.0,0.0,0.0,0.0,0.0,0.0,0.0,0.0,0.0,0.0,0.0,0.0,0.0,0.0,0.0,0.0,0.0,0.0,0.0,0.0,0.0,0.0,0.0,0.0,0.0,0.0,0.0,0.0,0.0,0.0,0.0,0.0,0.0,0.0,0.0,0.0,0.0,0.0,0.0,0.0,0.0,0.0,0.0,0.0,0.0,0.0,0.0,0.0,0.0,0.0,0.0,0.0,0.0,0.0,0.0,0.0,0.0,0.0,0.0,0.0,0.0,0.0,0.0,0.0,0.0,0.0,0.0,0.0,0.0,0.0,0.0,0.0,0.0,0.0,0.0,0.0,0.0,0.0,0.0,0.0,0.0,0.0,0.0,0.0,0.0,0.0,0.0,-1.0288,0.0,0.0,0.0,0.0,0.0,0.0,0.0,0.0,0.0,0.0,0.0,0.0,0.0,0.0,0.0,0.0,0.0,0.0,0.0,0.0,0.0,0.0,0.0,0.0,0.0,0.0,0.0,0.0,0.0,0.0,0.0,0.0,0.0,0.0,0.0,0.0,0.0,0.0,0.0,0.0,0.0,0.0,0.0,0.0,0.0,0.0,0.0,0.0,0.0,0.0,0.0,0.0,0.0,0.0,0.0,0.0,0.0,0.0,0.0,0.0,0.0,0.0,0.0,0.0,0.0,0.0,0.0,0.0,0.0,0.0,0.0,0.0,0.0,0.0,0.0,0.0,0.0,0.0,0.0,0.0,0.0,0.0,0.0,0.0,0.0,0.0,0.0,0.0,0.0,0.0,0.0,0.0,0.0,0.0,0.0,0.0,0.0,0.0,0.0,0.0,0.0,0.0,0.0,0.0,0.0,0.0,0.0,0.0,0.0,0.0,-1.031,-1.0321,-1.0305,-1.0308,-1.0311,0.0,0.0,0.0,0.0,0.0,0.0,0.0,0.0,0.0,0.0,0.0,0.0,0.0,0.0,0.0,0.0,0.0,0.0,0.0,0.0,0.0,0.0,0.0,0.0,0.0,0.0,0.0,0.0,0.0,0.0,0.0,0.0,0.0,0.0,0.0,0.0,0.0,0.0,0.0,0.0,0.0,0.0,0.0,0.0,0.0,0.0,0.0,0.0,0.0,0.0,0.0,0.0,0.0,0.0,0.0,0.0,0.0,0.0,0.0,0.0,0.0,0.0,0.0,0.0,0.0,0.0,0.0,0.0,0.0,0.0,0.0,0.0,0.0,0.0,0.0,0.0,0.0,0.0,0.0,0.0,0.0,0.0,0.0,0.0,0.0,0.0,0.0,0.0,0.0,0.0,0.0,0.0,0.0,0.0,0.0,0.0,0.0,0.0,0.0,0.0,0.0,0.0,0.0,0.0,0.0,0.0,0.0,0.0,0.0,0.0,0.0,0.0,-1.0282,-1.0287,-1.0293,0.0,0.0,0.0,0.0,0.0,0.0,0.0,0.0,0.0,0.0,0.0,0.0,0.0,0.0,0.0,0.0,0.0,0.0,0.0,0.0,0.0,0.0,0.0,0.0,0.0,0.0,0.0,0.0,0.0,0.0,0.0,0.0,0.0,0.0,0.0,0.0,0.0,0.0,0.0,0.0,0.0,0.0,0.0,0.0,0.0,0.0,0.0,0.0,0.0,0.0,0.0,0.0,0.0,0.0,0.0,0.0,0.0,0.0,0.0,0.0,0.0,0.0,0.0,0.0,0.0,0.0,0.0,0.0,0.0,0.0,0.0,0.0,0.0,0.0,0.0,0.0,0.0,0.0,0.0,0.0,0.0,0.0,0.0,0.0,0.0,0.0,0.0,0.0,0.0,0.0,0.0,0.0,0.0,0.0,0.0,0.0,0.0,0.0,0.0,0.0,0.0,0.0,0.0,0.0,0.0,0.0,0.0,0.0,0.0,0.0,-1.0193,-1.02,-1.0217,0.0,-1.02,0.0,0.0,0.0,0.0,0.0,0.0,0.0,0.0,0.0,0.0,0.0,0.0,0.0,0.0,0.0,0.0,0.0,0.0,0.0,0.0,0.0,0.0,0.0,0.0,0.0,0.0,0.0,0.0,0.0,0.0,0.0,0.0,0.0,0.0,0.0,0.0,0.0,0.0,0.0,0.0,0.0,0.0,0.0,0.0,0.0,0.0,0.0,0.0,0.0,0.0,0.0,0.0,0.0,0.0,0.0,0.0,0.0,0.0,0.0,0.0,0.0,0.0,0.0,0.0,0.0,0.0,0.0,0.0,0.0,0.0,0.0,0.0,0.0,0.0,0.0,0.0,0.0,0.0,0.0,0.0,0.0,0.0,0.0,0.0,0.0,0.0,0.0,0.0,0.0,0.0,0.0,0.0,0.0,0.0,0.0,0.0,0.0,0.0,0.0,0.0,0.0,0.0,0.0,0.0,0.0,0.0,0.0,0.0,0.0,0.0,-1.0197,-1.0186,-1.0186,-1.0188,0.0,0.0,0.0,0.0,0.0,0.0,0.0,0.0,0.0,0.0,0.0,0.0,0.0,0.0,0.0,0.0,0.0,0.0,0.0,0.0,0.0,0.0,0.0,0.0,0.0,0.0,0.0,0.0,0.0,0.0,0.0,0.0,0.0,0.0,0.0,0.0,0.0,0.0,0.0,0.0,0.0,0.0,0.0,0.0,0.0,0.0,0.0,0.0,0.0,0.0,0.0,0.0,0.0,0.0,0.0,0.0,0.0,0.0,0.0,0.0,0.0,0.0,0.0,0.0,0.0,0.0,0.0,0.0,0.0,0.0,0.0,0.0,0.0,0.0,0.0,0.0,0.0,0.0,0.0,0.0,0.0,0.0,0.0,0.0,0.0,0.0,0.0,0.0,0.0,0.0,0.0,0.0,0.0,0.0,0.0,0.0,0.0,0.0,0.0,0.0,0.0,0.0,0.0,0.0,0.0,0.0,0.0,0.0,0.0,0.0,-1.0166,-1.0177,-1.0159,-1.0166,-1.0166,-1.0166,0.0,0.0,0.0,0.0,0.0,0.0,0.0,0.0,0.0,0.0,0.0,0.0,0.0,0.0,0.0,0.0,0.0,0.0,0.0,0.0,0.0,0.0,0.0,0.0,0.0,0.0,0.0,0.0,0.0,0.0,0.0,0.0,0.0,0.0,0.0,0.0,0.0,0.0,0.0,0.0,0.0,0.0,0.0,0.0,0.0,0.0,0.0,0.0,0.0,0.0,0.0,0.0,0.0,0.0,0.0,0.0,0.0,0.0,0.0,0.0,0.0,0.0,0.0,0.0,0.0,0.0,0.0,0.0,0.0,0.0,0.0,0.0,0.0,0.0,0.0,0.0,0.0,0.0,0.0,0.0,0.0,0.0,0.0,0.0,0.0,0.0,0.0,0.0,0.0,0.0,0.0,0.0,0.0,0.0,0.0,0.0,0.0,0.0,0.0,0.0,0.0,0.0,0.0,0.0,0.0,0.0,0.0,0.0,-1.0115,-1.014,-1.0129,-1.0152,-1.0101,-1.0097,0.0,0.0,0.0,0.0,0.0,0.0,0.0,0.0,0.0,0.0,0.0,0.0,0.0,0.0,0.0,0.0,0.0,0.0,0.0,0.0,0.0,0.0,0.0,0.0,0.0,0.0,0.0,0.0,0.0,0.0,0.0,0.0,0.0,0.0,0.0,0.0,0.0,0.0,0.0,0.0,0.0,0.0,0.0,0.0,0.0,0.0,0.0,0.0,0.0,0.0,0.0,0.0,0.0,0.0,0.0,0.0,0.0,0.0,0.0,0.0,0.0,0.0,0.0,0.0,0.0,0.0,0.0,0.0,0.0,0.0,0.0,0.0,0.0,0.0,0.0,0.0,0.0,0.0,0.0,0.0,0.0,0.0,0.0,0.0,0.0,0.0,0.0,0.0,0.0,0.0,0.0,0.0,0.0,0.0,0.0,0.0,0.0,0.0,0.0,0.0,0.0,0.0,0.0,0.0,0.0,0.0,0.0,0.0,0.0,-1.1227,-1.1522,-1.1709,-1.1676,-1.1168,-1.0871,0.0,0.0,0.0,0.0,0.0,0.0,0.0,0.0,0.0,0.0,0.0,0.0,0.0,0.0,0.0,0.0,0.0,0.0,0.0,0.0,0.0,0.0,0.0,0.0,0.0,0.0,0.0,0.0,0.0,0.0,0.0,0.0,0.0,0.0,0.0,0.0,0.0,0.0,0.0,0.0,0.0,0.0,0.0,0.0,0.0,0.0,0.0,0.0,0.0,0.0,0.0,0.0,0.0,0.0,0.0,0.0,0.0,0.0,0.0,0.0,0.0,0.0,0.0,0.0,0.0,0.0,0.0,0.0,0.0,0.0,0.0,0.0,0.0,0.0,0.0,0.0,0.0,0.0,0.0,0.0,0.0,0.0,0.0,0.0,0.0,0.0,0.0,0.0,0.0,0.0,0.0,0.0,0.0,0.0,0.0,0.0,0.0,0.0,0.0,0.0,0.0,0.0,0.0,0.0,0.0,0.0,0.0,0.0,0.0,-1.2084,0.0,-1.261,-1.2574,-1.1998,-1.1572,0.0,0.0,0.0,0.0,0.0,0.0,0.0,0.0,0.0,0.0,0.0,0.0,0.0,0.0,0.0,0.0,0.0,0.0,0.0,0.0,0.0,0.0,0.0,0.0,0.0,0.0,0.0,0.0,0.0,0.0,0.0,0.0,0.0,0.0,0.0,0.0,0.0,0.0,0.0,0.0,0.0,0.0,0.0,0.0,0.0,0.0,0.0,0.0,0.0,0.0,0.0,0.0,0.0,0.0,0.0,0.0,0.0,0.0,0.0,0.0,0.0,0.0,0.0,0.0,0.0,0.0,0.0,0.0,0.0,0.0,0.0,0.0,0.0,0.0,0.0,0.0,0.0,0.0,0.0,0.0,0.0,0.0,0.0,0.0,0.0,0.0,0.0,0.0,0.0,0.0,0.0,0.0,0.0,0.0,0.0,0.0,0.0,0.0,0.0,0.0,0.0,0.0,0.0,0.0,0.0,0.0,0.0,0.0,-1.2678,-1.2641,-1.2674,-1.2731,-1.2641,-1.2572,-1.2146,0.0,0.0,0.0,0.0,0.0,0.0,0.0,0.0,0.0,0.0,0.0,0.0,0.0,0.0,0.0,0.0,0.0,0.0,0.0,0.0,0.0,0.0,0.0,0.0,0.0,0.0,0.0,0.0,0.0,0.0,0.0,0.0,0.0,0.0,0.0,0.0,0.0,0.0,0.0,0.0,0.0,0.0,0.0,0.0,0.0,0.0,0.0,0.0,0.0,0.0,0.0,0.0,0.0,0.0,0.0,0.0,0.0,0.0,0.0,0.0,0.0,0.0,0.0,0.0,0.0,0.0,0.0,0.0,0.0,0.0,0.0,0.0,0.0,0.0,0.0,0.0,0.0,0.0,0.0,0.0,0.0,0.0,0.0,0.0,0.0,0.0,0.0,0.0,0.0,0.0,0.0,0.0,0.0,0.0,0.0,0.0,0.0,0.0,0.0,0.0,0.0,0.0,0.0,0.0,0.0,0.0,0.0,0.0,0.0,-1.4347,-1.4328,-1.4328,-1.4303,-1.3717,-1.329,0.0,0.0,0.0,0.0,0.0,0.0,0.0,0.0,0.0,0.0,0.0,0.0,0.0,0.0,0.0,0.0,0.0,0.0,0.0,0.0,0.0,0.0,0.0,0.0,0.0,0.0,0.0,0.0,0.0,0.0,0.0,0.0,0.0,0.0,0.0,0.0,0.0,0.0,0.0,0.0,0.0,0.0,0.0,0.0,0.0,0.0,0.0,0.0,0.0,0.0,0.0,0.0,0.0,0.0,0.0,0.0,0.0,0.0,0.0,0.0,0.0,0.0,0.0,0.0,0.0,0.0,0.0,0.0,0.0,0.0,0.0,0.0,0.0,0.0,0.0,0.0,0.0,0.0,0.0,0.0,0.0,0.0,0.0,0.0,0.0,0.0,0.0,0.0,0.0,0.0,0.0,0.0,0.0,0.0,0.0,0.0,0.0,0.0,0.0,0.0,0.0,0.0,0.0,0.0,0.0,0.0,0.0,0.0,0.0,-1.6058,-1.5746,-1.5421,-1.5114,-1.4577,-1.4125,-1.3806,0.0,0.0,0.0,0.0,0.0,0.0,0.0,0.0,0.0,0.0,0.0,0.0,0.0,0.0,0.0,0.0,0.0,0.0,0.0,0.0,0.0,0.0,0.0,0.0,0.0,0.0,0.0,0.0,0.0,0.0,0.0,0.0,0.0,0.0,0.0,0.0,0.0,0.0,0.0,0.0,0.0,0.0,0.0,0.0,0.0,0.0,0.0,0.0,0.0,0.0,0.0,0.0,0.0,0.0,0.0,0.0,0.0,0.0,0.0,0.0,0.0,0.0,0.0,0.0,0.0,0.0,0.0,0.0,0.0,0.0,0.0,0.0,0.0,0.0,0.0,0.0,0.0,0.0,0.0,0.0,0.0,0.0,0.0,0.0,0.0,0.0,0.0,0.0,0.0,0.0,0.0,0.0,0.0,0.0,0.0,0.0,0.0,0.0,0.0,0.0,0.0,0.0,0.0,0.0,0.0,0.0,0.0,0.0,-1.7684,-1.6929,-1.615,-1.5306,-1.5229,-1.4788,0.0,0.0,0.0,0.0,0.0,0.0,0.0,0.0,0.0,0.0,0.0,0.0,0.0,0.0,0.0,0.0,0.0,0.0,0.0,0.0,0.0,0.0,0.0,0.0,0.0,0.0,0.0,0.0,0.0,0.0,0.0,0.0,0.0,0.0,0.0,0.0,0.0,0.0,0.0,0.0,0.0,0.0,0.0,0.0,0.0,0.0,0.0,0.0,0.0,0.0,0.0,0.0,0.0,0.0,0.0,0.0,0.0,0.0,0.0,0.0,0.0,0.0,0.0,0.0,0.0,0.0,0.0,0.0,0.0,0.0,0.0,0.0,0.0,0.0,0.0,0.0,0.0,0.0,0.0,0.0,0.0,0.0,0.0,0.0,0.0,0.0,0.0,0.0,0.0,0.0,0.0,0.0,0.0,0.0,0.0,0.0,0.0,0.0,0.0,0.0,0.0,0.0,0.0,0.0,0.0,0.0,0.0,0.0,0.0,-1.7699,-1.8117,-1.7905,-1.7046,-1.6413,-1.5958,0.0,0.0,0.0,0.0,0.0,0.0,0.0,0.0,0.0,0.0,0.0,0.0,0.0,0.0,0.0,0.0,0.0,0.0,0.0,0.0,0.0,0.0,0.0,0.0,0.0,0.0,0.0,0.0,0.0,0.0,0.0,0.0,0.0,0.0,0.0,0.0,0.0,0.0,0.0,0.0,0.0,0.0,0.0,0.0,0.0,0.0,0.0,0.0,0.0,0.0,0.0,0.0,0.0,0.0,0.0,0.0,0.0,0.0,0.0,0.0,0.0,0.0,0.0,0.0,0.0,0.0,0.0,0.0,0.0,0.0,0.0,0.0,0.0,0.0,0.0,0.0,0.0,0.0,0.0,0.0,0.0,0.0,0.0,0.0,0.0,0.0,0.0,0.0,0.0,0.0,0.0,0.0,0.0,0.0,0.0,0.0,0.0,0.0,0.0,0.0,0.0,0.0,0.0,0.0,0.0,0.0,0.0,0.0,-1.8402,-1.8789,-1.9285,-1.9304,-1.8789,-1.7586,-1.6791,0.0,0.0,0.0,0.0,0.0,0.0,0.0,0.0,0.0,0.0,0.0,0.0,0.0,0.0,0.0,0.0,0.0,0.0,0.0,0.0,0.0,0.0,0.0,0.0,0.0,0.0,0.0,0.0,0.0,0.0,0.0,0.0,0.0,0.0,0.0,0.0,0.0,0.0,0.0,0.0,0.0,0.0,0.0,0.0,0.0,0.0,0.0,0.0,0.0,0.0,0.0,0.0,0.0,0.0,0.0,0.0,0.0,0.0,0.0,0.0,0.0,0.0,0.0,0.0,0.0,0.0,0.0,0.0,0.0,0.0,0.0,0.0,0.0,0.0,0.0,0.0,0.0,0.0,0.0,0.0,0.0,0.0,0.0,0.0,0.0,0.0,0.0,0.0,0.0,0.0,0.0,0.0,0.0,0.0,0.0,0.0,0.0,0.0,0.0,0.0,0.0,0.0,0.0,0.0,0.0,0.0,0.0,0.0,-1.9369,-2.0273,-2.0292,-2.03,-2.0235,-1.8684,-1.7426,0.0,0.0,0.0,0.0,0.0,0.0,0.0,0.0,0.0,0.0,0.0,0.0,0.0,0.0,0.0,0.0,0.0,0.0,0.0,0.0,0.0,0.0,0.0,0.0,0.0,0.0,0.0,0.0,0.0,0.0,0.0,0.0,0.0,0.0,0.0,0.0,0.0,0.0,0.0,0.0,0.0,0.0,0.0,0.0,0.0,0.0,0.0,0.0,0.0,0.0,0.0,0.0,0.0,0.0,0.0,0.0,0.0,0.0,0.0,0.0,0.0,0.0,0.0,0.0,0.0,0.0,0.0,0.0,0.0,0.0,0.0,0.0,0.0,0.0,0.0,0.0,0.0,0.0,0.0,0.0,0.0,0.0,0.0,0.0,0.0,0.0,0.0,0.0,0.0,0.0,0.0,0.0,0.0,0.0,0.0,0.0,0.0,0.0,0.0,0.0,0.0,0.0,0.0,0.0,0.0,0.0,0.0,0.0,-1.9415,-2.0258,-2.0292,-2.0299,-2.0306,-1.9276,-1.8311,0.0,0.0,0.0,0.0,0.0,0.0,0.0,0.0,0.0,0.0,0.0,0.0,0.0,0.0,0.0,0.0,0.0,0.0,0.0,0.0,0.0,0.0,0.0,0.0,0.0,0.0,0.0,0.0,0.0,0.0,0.0,0.0,0.0,0.0,0.0,0.0,0.0,0.0,0.0,0.0,0.0,0.0,0.0,0.0,0.0,0.0,0.0,0.0,-0.9003,0.0,0.0,0.0,0.0,0.0,0.0,0.0,0.0,0.0,0.0,0.0,0.0,0.0,0.0,0.0,0.0,0.0,0.0,0.0,0.0,0.0,0.0,0.0,0.0,0.0,0.0,0.0,0.0,0.0,0.0,0.0,0.0,0.0,0.0,0.0,0.0,0.0,0.0,0.0,0.0,0.0,0.0,0.0,0.0,0.0,0.0,0.0,0.0,0.0,0.0,0.0,0.0,0.0,0.0,0.0,0.0,0.0,0.0,0.0,-1.9846,-2.0284,-2.0306,-2.0294,-2.0275,-1.9856,-1.9218,0.0,0.0,0.0,0.0,0.0,0.0,0.0,0.0,0.0,0.0,0.0,0.0,0.0,0.0,0.0,0.0,0.0,0.0,0.0,0.0,0.0,0.0,0.0,0.0,0.0,0.0,0.0,0.0,0.0,0.0,0.0,0.0,0.0,0.0,0.0,0.0,0.0,0.0,0.0,0.0,0.0,0.0,0.0,0.0,0.0,0.0,0.0,0.0,0.0,0.0,0.0,0.0,0.0,0.0,0.0,0.0,0.0,0.0,0.0,0.0,0.0,0.0,0.0,0.0,0.0,0.0,0.0,0.0,0.0,0.0,0.0,0.0,0.0,0.0,0.0,0.0,0.0,0.0,0.0,0.0,0.0,0.0,0.0,0.0,0.0,0.0,0.0,0.0,0.0,0.0,0.0,0.0,0.0,0.0,0.0,0.0,0.0,0.0,0.0,0.0,0.0,0.0,0.0,0.0,0.0,0.0,0.0,-2.0007,-2.0443,-2.033,-2.0313,-2.0334,-2.0327,-2.0308,-1.9966,-1.9213,0.0,0.0,0.0,0.0,0.0,0.0,0.0,0.0,0.0,0.0,0.0,0.0,0.0,0.0,0.0,0.0,0.0,0.0,0.0,0.0,0.0,0.0,0.0,0.0,0.0,0.0,0.0,0.0,0.0,0.0,0.0,0.0,0.0,0.0,0.0,0.0,0.0,0.0,-0.9995,-1.0608,0.0,0.0,0.0,0.0,0.0,0.0,0.0,0.0,-1.0548,0.0,0.0,0.0,0.0,0.0,0.0,0.0,0.0,0.0,0.0,0.0,0.0,0.0,0.0,0.0,0.0,0.0,0.0,0.0,0.0,0.0,0.0,0.0,0.0,0.0,0.0,0.0,0.0,0.0,0.0,0.0,0.0,0.0,0.0,0.0,0.0,0.0,0.0,0.0,0.0,0.0,0.0,0.0,0.0,0.0,0.0,0.0,0.0,0.0,0.0,0.0,0.0,0.0,0.0,0.0,0.0,-1.9992,-2.0916,-2.1062,-2.0404,-2.0386,-2.039,-2.039,-2.0386,-2.0289,-2.0044,0.0,0.0,0.0,0.0,0.0,0.0,0.0,0.0,0.0,0.0,0.0,0.0,0.0,0.0,0.0,0.0,0.0,0.0,0.0,0.0,0.0,0.0,0.0,0.0,0.0,0.0,0.0,0.0,0.0,0.0,0.0,0.0,0.0,0.0,0.0,0.0,0.0,0.0,0.0,-1.0581,-1.096,0.0,0.0,0.0,0.0,0.0,0.0,0.0,0.0,-1.1668,0.0,0.0,0.0,0.0,0.0,0.0,0.0,0.0,0.0,0.0,0.0,0.0,0.0,0.0,0.0,0.0,0.0,0.0,0.0,0.0,0.0,0.0,0.0,0.0,0.0,0.0,0.0,0.0,0.0,0.0,0.0,0.0,0.0,0.0,0.0,0.0,0.0,0.0,0.0,0.0,0.0,0.0,0.0,0.0,0.0,0.0,0.0,0.0,0.0,0.0,0.0,0.0,0.0,0.0,0.0,-2.0911,-2.1787,-2.2095,-2.1719,-2.1733,-2.1743,-2.1762,-2.1313,-2.1062,0.0,0.0,0.0,0.0,0.0,0.0,0.0,0.0,0.0,0.0,0.0,0.0,0.0,0.0,0.0,0.0,0.0,0.0,0.0,0.0,0.0,0.0,0.0,0.0,0.0,0.0,0.0,0.0,0.0,0.0,0.0,0.0,0.0,0.0,0.0,0.0,0.0,0.0,0.0,0.0,-1.1765,-1.222,-1.2107,0.0,0.0,0.0,0.0,0.0,0.0,-1.2342,-1.223,0.0,0.0,0.0,0.0,0.0,0.0,0.0,0.0,0.0,0.0,0.0,0.0,0.0,0.0,0.0,0.0,0.0,0.0,0.0,0.0,0.0,0.0,0.0,0.0,0.0,0.0,0.0,0.0,0.0,0.0,0.0,0.0,0.0,0.0,0.0,0.0,0.0,0.0,0.0,0.0,0.0,0.0,0.0,0.0,0.0,0.0,0.0,0.0,0.0,0.0,0.0,0.0,0.0,0.0,0.0,-2.157,-2.2609,-2.3083,-2.2939,-2.2965,-2.3012,-2.3007,-2.2336,-2.1873,0.0,0.0,0.0,0.0,0.0,0.0,0.0,0.0,0.0,0.0,0.0,0.0,0.0,0.0,0.0,0.0,0.0,0.0,0.0,0.0,0.0,0.0,0.0,0.0,0.0,0.0,0.0,0.0,0.0,0.0,0.0,0.0,0.0,0.0,0.0,0.0,0.0,0.0,0.0,0.0,0.0,-1.3396,-1.3259,-1.3191,0.0,0.0,0.0,0.0,-1.2778,-1.2757,0.0,0.0,0.0,0.0,0.0,0.0,0.0,0.0,0.0,0.0,0.0,0.0,0.0,0.0,0.0,0.0,0.0,0.0,0.0,0.0,0.0,0.0,0.0,0.0,0.0,0.0,0.0,0.0,0.0,0.0,0.0,0.0,0.0,0.0,0.0,0.0,0.0,0.0,0.0,0.0,0.0,0.0,0.0,0.0,0.0,0.0,0.0,0.0,0.0,0.0,0.0,0.0,0.0,0.0,0.0,0.0,-2.1675,-2.3234,-2.3695,-2.303,-2.2994,-2.3032,-2.3096,-2.2916,-2.2479,0.0,0.0,0.0,0.0,0.0,0.0,0.0,0.0,0.0,0.0,0.0,0.0,0.0,0.0,0.0,0.0,0.0,0.0,0.0,0.0,0.0,0.0,0.0,0.0,0.0,0.0,0.0,0.0,0.0,0.0,0.0,0.0,0.0,0.0,0.0,0.0,0.0,0.0,0.0,0.0,0.0,-1.3512,-1.3396,-1.3362,-1.3346,0.0,0.0,-1.3136,-1.2995,-1.2869,0.0,0.0,0.0,0.0,0.0,0.0,0.0,0.0,0.0,0.0,0.0,0.0,0.0,0.0,0.0,0.0,0.0,0.0,0.0,0.0,0.0,0.0,0.0,0.0,0.0,0.0,0.0,0.0,0.0,0.0,0.0,0.0,0.0,0.0,0.0,0.0,0.0,0.0,0.0,0.0,0.0,0.0,0.0,0.0,0.0,0.0,0.0,0.0,0.0,0.0,0.0,0.0,0.0,0.0,0.0,-2.2831,-2.3114,-2.4295,-2.4775,-2.4496,-2.4477,-2.4483,-2.451,-2.4047,-2.3363,0.0,0.0,0.0,0.0,0.0,0.0,0.0,0.0,0.0,0.0,0.0,0.0,0.0,0.0,0.0,0.0,0.0,0.0,0.0,0.0,0.0,0.0,0.0,0.0,0.0,0.0,0.0,0.0,0.0,0.0,0.0,0.0,0.0,0.0,0.0,0.0,0.0,0.0,0.0,0.0,0.0,0.0,-1.4192,-1.4194,0.0,0.0,0.0,-1.437,-1.3877,0.0,0.0,0.0,0.0,0.0,0.0,0.0,0.0,0.0,0.0,0.0,0.0,0.0,0.0,0.0,0.0,0.0,0.0,0.0,0.0,0.0,0.0,0.0,0.0,0.0,0.0,0.0,0.0,0.0,0.0,0.0,0.0,0.0,0.0,0.0,0.0,0.0,0.0,0.0,0.0,0.0,0.0,0.0,0.0,0.0,0.0,0.0,0.0,0.0,0.0,0.0,0.0,0.0,0.0,0.0,0.0,0.0,-2.42,-2.5072,-2.5556,-2.5632,-2.5624,-2.5636,-2.5615,-2.5047,0.0,0.0,0.0,0.0,0.0,0.0,0.0,0.0,0.0,0.0,0.0,0.0,0.0,0.0,0.0,0.0,0.0,0.0,0.0,0.0,0.0,0.0,0.0,0.0,0.0,0.0,0.0,-1.2665,0.0,0.0,0.0,0.0,0.0,0.0,0.0,0.0,0.0,0.0,0.0,0.0,0.0,0.0,-1.4412,-1.5167,-1.5173,-1.5314,0.0,0.0,-1.553,-1.4893,-1.4788,-1.4527,0.0,0.0,0.0,0.0,0.0,0.0,0.0,0.0,0.0,0.0,0.0,0.0,0.0,0.0,0.0,0.0,0.0,0.0,0.0,0.0,0.0,0.0,0.0,0.0,0.0,0.0,0.0,0.0,0.0,0.0,0.0,0.0,0.0,0.0,0.0,0.0,0.0,0.0,0.0,0.0,0.0,0.0,0.0,0.0,0.0,0.0,0.0,0.0,0.0,0.0,0.0,0.0,0.0,0.0,-2.3323,-2.4193,-2.5107,-2.5625,-2.5707,-2.5703,-2.5687,-2.5705,-2.5637,-2.4815,0.0,0.0,0.0,0.0,0.0,0.0,0.0,0.0,0.0,0.0,0.0,0.0,0.0,0.0,0.0,0.0,0.0,0.0,0.0,0.0,0.0,0.0,0.0,0.0,0.0,0.0,0.0,0.0,0.0,0.0,0.0,0.0,0.0,0.0,0.0,0.0,0.0,0.0,0.0,0.0,0.0,-1.5391,-1.6169,-1.6228,-1.6214,0.0,-1.6202,-1.6098,-1.5922,-1.5833,-1.5705,-1.5484,0.0,0.0,0.0,0.0,0.0,0.0,0.0,0.0,0.0,0.0,0.0,0.0,0.0,0.0,0.0,0.0,0.0,0.0,0.0,0.0,0.0,0.0,0.0,0.0,0.0,0.0,0.0,0.0,0.0,0.0,0.0,0.0,0.0,0.0,0.0,0.0,0.0,0.0,0.0,0.0,0.0,0.0,0.0,0.0,0.0,0.0,0.0,0.0,0.0,0.0,0.0,0.0,0.0,-2.4092,-2.4982,-2.541,-2.5634,-2.5687,-2.5697,-2.5703,-2.5701,-2.5691,-2.5141,0.0,0.0,0.0,0.0,0.0,0.0,0.0,0.0,0.0,0.0,0.0,0.0,0.0,0.0,0.0,0.0,0.0,0.0,0.0,0.0,0.0,0.0,0.0,0.0,0.0,0.0,0.0,0.0,-1.6009,-1.6071,-1.5425,0.0,0.0,0.0,0.0,0.0,0.0,0.0,0.0,0.0,0.0,-1.6522,-1.7273,-1.7323,0.0,0.0,-1.786,-1.7613,-1.7064,-1.6941,-1.6677,-1.6062,-1.5714,0.0,0.0,0.0,0.0,0.0,0.0,0.0,0.0,0.0,0.0,0.0,0.0,0.0,0.0,0.0,0.0,0.0,0.0,0.0,0.0,0.0,0.0,0.0,0.0,0.0,0.0,0.0,0.0,0.0,0.0,0.0,0.0,0.0,0.0,0.0,0.0,0.0,0.0,0.0,0.0,0.0,0.0,0.0,0.0,0.0,0.0,0.0,0.0,0.0,0.0,0.0,0.0,-2.4592,-2.5511,-2.56,-2.5648,-2.5691,-2.5698,-2.5698,-2.5702,-2.5702,-2.529,0.0,0.0,0.0,0.0,0.0,0.0,0.0,0.0,0.0,0.0,0.0,0.0,0.0,0.0,0.0,0.0,0.0,0.0,0.0,0.0,0.0,0.0,0.0,0.0,0.0,0.0,0.0,0.0,-1.7014,-1.7077,-1.6432,0.0,0.0,0.0,0.0,0.0,0.0,0.0,0.0,0.0,0.0,-1.7623,-1.8378,-1.8416,-1.8538,-1.9086,-1.9081,-1.8781,-1.8203,-1.8066,-1.7803,-1.7131,0.0,0.0,0.0,0.0,0.0,0.0,0.0,0.0,0.0,0.0,0.0,0.0,0.0,0.0,0.0,0.0,0.0,0.0,0.0,0.0,0.0,0.0,0.0,0.0,0.0,0.0,0.0,-1.7435,0.0,0.0,-1.751,0.0,0.0,0.0,0.0,0.0,0.0,0.0,0.0,0.0,0.0,0.0,0.0,0.0,0.0,0.0,0.0,0.0,0.0,0.0,0.0,0.0,0.0,-2.476,-2.5599,-2.5741,-2.5749,-2.5729,-2.5719,-2.5741,-2.5728,-2.5697,-2.529,-2.4431,0.0,0.0,0.0,0.0,0.0,0.0,0.0,0.0,0.0,0.0,0.0,0.0,0.0,0.0,0.0,0.0,0.0,0.0,0.0,0.0,0.0,0.0,0.0,0.0,0.0,0.0,-1.7406,-1.7406,-1.7443,0.0,0.0,0.0,0.0,0.0,0.0,0.0,0.0,0.0,0.0,-1.8373,-1.8659,-1.9415,-1.9499,-1.9448,-1.9485,-1.9495,-1.9438,-1.9254,-1.9246,-1.9191,0.0,0.0,0.0,0.0,0.0,0.0,0.0,0.0,0.0,0.0,0.0,0.0,0.0,0.0,0.0,0.0,0.0,0.0,0.0,0.0,0.0,0.0,0.0,0.0,0.0,0.0,0.0,-2.0938,-2.0919,0.0,0.0,0.0,0.0,0.0,0.0,0.0,0.0,0.0,0.0,0.0,-2.5245,-2.5265,0.0,0.0,0.0,0.0,0.0,0.0,0.0,0.0,0.0,0.0,0.0,0.0,-2.6451,-2.7283,-2.7342,-2.7379,-2.7422,-2.742,-2.7146,-2.6587,-2.6564,-2.5883,-2.4442,0.0,0.0,0.0,0.0,0.0,0.0,0.0,0.0,0.0,0.0,0.0,0.0,0.0,0.0,0.0,0.0,0.0,0.0,0.0,0.0,0.0,0.0,0.0,0.0,0.0,-1.8639,0.0,0.0,0.0,0.0,0.0,0.0,0.0,0.0,0.0,0.0,0.0,-1.8383,-1.8646,-1.9128,-1.9552,-1.9764,-1.9797,-1.9755,0.0,0.0,0.0,0.0,0.0,0.0,0.0,0.0,0.0,0.0,0.0,0.0,0.0,0.0,-1.5493,-1.5258,-1.5192,-1.5192,-1.5158,0.0,0.0,0.0,0.0,0.0,0.0,0.0,0.0,0.0,0.0,0.0,0.0,0.0,0.0,-2.2929,0.0,-2.291,0.0,0.0,0.0,0.0,0.0,0.0,0.0,0.0,-2.6064,-2.6618,-2.7113,-2.7133,-2.7423,0.0,-2.7965,-2.6787,0.0,0.0,0.0,0.0,0.0,0.0,0.0,0.0,-2.7639,-2.82,-2.8225,-2.8254,-2.8295,-2.83,-2.8037,-2.7457,-2.7159,-2.6476,-2.5334,-2.474,-2.3984,0.0,0.0,0.0,0.0,0.0,0.0,0.0,0.0,0.0,0.0,0.0,0.0,0.0,0.0,0.0,0.0,0.0,0.0,0.0,0.0,0.0,0.0,0.0,-1.9594,0.0,0.0,0.0,0.0,0.0,0.0,0.0,0.0,0.0,-1.8136,-1.8767,-1.9331,-1.9322,-1.9772,-2.0088,-2.0003,0.0,0.0,0.0,0.0,0.0,0.0,0.0,-2.0611,-2.0274,-2.0193,-1.9906,-1.8995,-1.8354,-1.7938,-1.7857,0.0,0.0,-1.6655,-1.6471,-1.6453,-1.6456,-1.6456,-1.6509,-1.6781,-1.6835,-1.6908,0.0,0.0,0.0,0.0,0.0,0.0,0.0,0.0,-2.3122,-2.3601,0.0,-2.3523,0.0,0.0,0.0,0.0,-2.5601,-2.6487,0.0,0.0,-2.8067,-2.8126,-2.8145,-2.8145,-2.8145,-2.8184,-2.8229,-2.8196,-2.8154,-2.8092,0.0,0.0,0.0,0.0,0.0,0.0,-2.8278,-2.8405,-2.8432,-2.8378,-2.8418,-2.8401,-2.8382,-2.8333,-2.7501,-2.7022,-2.6937,-2.5396,-2.4484,-2.443,-2.3613,0.0,0.0,0.0,0.0,0.0,0.0,0.0,0.0,0.0,0.0,0.0,0.0,0.0,0.0,0.0,0.0,0.0,0.0,0.0,0.0,-1.9841,0.0,0.0,0.0,0.0,0.0,0.0,0.0,0.0,0.0,0.0,-1.9309,-1.9841,-2.033,-2.0349,0.0,0.0,0.0,0.0,-2.06,-2.1425,-2.1536,-2.1813,-2.2546,-2.2684,-2.2371,-2.1493,0.0,0.0,-2.0107,-1.9915,-1.9828,-1.9794,-1.9707,-1.92,-1.7309,-1.7009,-1.6995,-1.7027,-1.7096,-1.7266,-1.7862,-1.8049,-1.8236,-2.7701,0.0,0.0,0.0,0.0,-2.6901,-2.6876,-2.6687,-2.6631,-2.6747,-2.698,-2.6728,0.0,0.0,0.0,0.0,0.0,0.0,-2.8524,-2.8225,-2.8825,-2.9109,-2.9099,-2.9099,-2.9429,-3.0017,-3.0037,-3.0021,-3.003,-2.9998,-2.9371,-2.8198,0.0,0.0,0.0,0.0,-2.9489,-3.0039,-3.0076,-3.0089,-3.0094,-3.0082,-2.978,-2.9168,-2.8317,-2.7576,-2.6929,-2.65,-2.5974,-2.5333,-2.4495,0.0,0.0,0.0,0.0,0.0,0.0,0.0,0.0,0.0,0.0,0.0,0.0,0.0,0.0,0.0,0.0,0.0,0.0,0.0,-2.0981,-2.1158,-2.1055,0.0,0.0,0.0,0.0,0.0,0.0,0.0,0.0,0.0,-2.1958,-2.1554,-2.1291,0.0,0.0,-2.2214,-2.22,-2.2198,-2.2282,-2.2544,-2.2574,0.0,-2.2881,-2.29,-2.2791,-2.2487,-2.1926,-2.1389,-2.1105,-2.0525,-2.0087,-2.0041,-2.0022,-1.9802,-1.9304,-1.9028,-1.8927,-1.8921,-1.8889,-1.8964,-1.9156,-1.9218,-1.9274,-2.9708,-2.923,-2.9219,-2.8821,-2.824,-2.8515,-2.8491,-2.8199,-2.817,-2.8325,-2.8637,-2.8286,-2.8509,-2.918,-2.9156,0.0,0.0,0.0,-2.9728,-2.9266,-2.9771,-3.0021,-3.0018,-2.9996,-3.0277,-3.0774,-3.0793,-3.0795,-3.0799,-3.08,-3.027,-2.9259,0.0,0.0,-3.0058,-3.0078,-3.0329,-3.0786,-3.0799,-3.0788,-3.0786,-3.0793,-3.0526,-2.9971,-2.9138,-2.8422,-2.7901,-2.7639,-2.7065,-2.6223,-2.5671,-2.5013,0.0,0.0,0.0,0.0,0.0,0.0,0.0,0.0,0.0,0.0,0.0,-1.9875,-2.0871,0.0,0.0,0.0,-2.303,-2.2836,-2.2304,-2.2217,0.0,0.0,0.0,0.0,0.0,0.0,0.0,-2.304,-2.3065,-2.3107,-2.3104,-2.2906,-2.2643,-2.2306,-2.2706,-2.3037,-2.3032,0.0,-2.3169,-2.3493,-2.3564,-2.3685,-2.4023,-2.4047,-2.3917,-2.352,-2.2726,-2.2165,-2.2088,-2.1643,-2.1313,-2.1261,-2.1234,-2.1143,-2.0812,-2.0628,-2.0384,-1.9945,-1.9855,-1.9855,-1.9855,-1.9855,-1.9862,-3.08,-3.0801,-3.0786,-2.9874,-2.8505,-2.9263,-2.9156,-2.8423,-2.8404,-2.8872,-2.9523,-2.875,-2.9288,-3.0775,-3.0799,0.0,-2.9726,-3.0468,-3.0781,-3.08,-3.08,-3.08,-3.08,-3.0781,-3.08,-3.08,-3.08,-3.08,-3.0797,-3.0793,-3.079,-3.079,-3.0798,-3.0799,-3.0796,-3.0792,-3.0796,-3.0786,-3.0782,-3.0793,-3.0774,-3.0775,-3.0756,-3.0685,-2.9907,-2.946,-2.9357,-2.8674,-2.7892,-2.7064,-2.6997,-2.6252,-2.4709,0.0,0.0,0.0,0.0,0.0,0.0,0.0,0.0,0.0,0.0,0.0,0.0,0.0,0.0,0.0,-2.3308,0.0,-2.3208,-2.3159,0.0,0.0,0.0,-2.3202,-2.3212,-2.3273,-2.3315,-2.3299,0.0,0.0,-2.3319,-2.4004,-2.4197,-2.3408,-2.3302,-2.3309,-2.3311,-2.3361,-2.3589,-2.4397,-2.4503,-2.4783,-2.5386,-2.55,-2.5213,-2.453,-2.3694,-2.3128,-2.3076,-2.297,-2.2989,-2.2887,-2.2989,-2.2741,-2.1939,-2.1787,-2.1494,-2.0589,-2.024,-2.0116,-2.0097,-2.0116,-2.0088,-3.0796,-3.0796,-3.0786,-3.0564,-3.0213,-3.0388,-3.0368,-3.0192,-3.0172,-3.0289,-3.0465,-3.0273,-3.0429,-3.0799,-3.0798,-3.0694,-3.0523,-3.0718,-3.0796,-3.0796,-3.0796,-3.0796,-3.0796,-3.0801,-3.0794,-3.0794,-3.0786,-3.0782,-3.079,-3.0786,-3.0786,-3.0786,-3.0786,-3.0786,-3.079,-3.0798,-3.0784,-3.0799,-3.0745,-3.0703,-3.0658,-3.0644,-3.0649,-3.0607,-3.0432,-3.0005,-2.9346,-2.9133,-2.8648,-2.7869,-2.7815,-2.7356,-2.6359,-2.5675,0.0,0.0,0.0,0.0,0.0,0.0,0.0,0.0,0.0,-2.3078,-2.3721,0.0,-2.4352,0.0,-2.5092,-2.4816,-2.417,-2.409,0.0,0.0,-2.3689,-2.4101,-2.4101,-2.4687,-2.5097,-2.5075,-2.5075,-2.5073,-2.5082,-2.5256,-2.5317,-2.5109,-2.5078,-2.5093,-2.5073,-2.5084,-2.5162,-2.533,-2.5351,-2.5467,-2.5644,-2.5703,-2.5602,-2.5419,-2.4635,-2.4087,-2.4065,-2.3505,-2.3065,-2.3085,-2.3072,-2.2987,-2.2804,-2.2706,-2.2625,-2.2253,-2.1224,-2.0248,-2.0248,-2.026,-2.0272,-3.1913,-3.1874,-3.1543,-3.1367,-3.135,-3.0966,-3.0793,-3.0792,-3.0792,-3.0792,-3.0792,-3.0788,-3.0801,-3.0796,-3.0796,-3.0785,-3.0782,-3.0802,-3.0802,-3.0782,-3.0759,-3.0759,-3.0759,-3.0755,-3.0764,-3.0764,-3.0753,-3.0773,-3.0753,-3.0753,-3.0773,-3.0767,-3.0769,-3.0724,-3.0724,-3.0736,-3.0761,-3.08,-3.0685,-3.0603,-3.0543,-3.0537,-3.0519,-3.0511,-3.053,-3.0298,-2.9805,-2.9796,-2.9419,-2.8637,-2.8581,-2.8221,-2.7434,-2.6973,-2.6518,0.0,0.0,0.0,0.0,0.0,0.0,0.0,0.0,0.0,0.0,0.0,-2.5172,-2.5662,-2.5702,-2.5508,-2.5019,-2.498,-2.4785,-2.4314,-2.4679,-2.4965,-2.4983,-2.541,-2.5703,-2.5701,-2.5661,-2.5673,-2.5662,-2.5658,-2.5655,-2.5652,-2.5659,-2.5672,-2.5691,-2.5698,-2.5699,-2.5689,-2.5693,-2.5704,-2.5693,-2.5705,-2.5691,-2.5654,-2.5288,-2.4938,-2.4959,-2.459,-2.4236,-2.4254,-2.4272,-2.4111,-2.3778,-2.3636,-2.353,-2.3015,-2.226,-2.1605,-2.1522,-2.1487,-2.1501,-3.3301,-3.3223,-3.2542,-3.223,-3.2177,-3.1436,-3.0981,-3.0794,-3.0798,-3.0794,-3.079,-3.0786,-3.0798,-3.0789,-3.0789,-3.0784,-3.0794,-3.0789,-3.0789,-3.0769,-3.072,-3.0695,-3.0689,-3.0678,-3.0685,-3.0685,-3.0665,-3.0672,-3.0671,-3.0671,-3.0664,-3.0649,-3.0673,-3.0629,-3.0574,-3.0622,-3.069,-3.0749,-3.0582,-3.0491,-3.0472,-3.0432,-3.0389,-3.0375,-3.0364,-3.0371,-3.0367,-3.0383,-3.0078,-2.9396,-2.9371,-2.9004,-2.8227,-2.8214,-2.8187,0.0,-2.7369,0.0,0.0,0.0,0.0,0.0,0.0,0.0,0.0,-2.5255,-2.569,-2.5681,-2.5703,-2.5687,-2.5696,-2.5694,-2.5691,-2.5691,-2.5704,-2.5699,-2.5687,-2.5679,-2.5695,-2.5703,-2.5636,-2.5613,-2.5613,-2.5609,-2.5589,-2.5576,-2.5595,-2.5619,-2.5643,-2.5675,-2.5679,-2.5695,-2.5697,-2.5688,-2.5673,-2.5682,-2.5675,-2.5679,-2.5593,-2.5619,-2.5609,-2.5603,-2.565,-2.5636,-2.5559,-2.5364,-2.4662,-2.4564,-2.4312,-2.3689,-2.3495,-2.33,-2.2976,-2.2858,-2.3014,-3.323,-3.3211,-3.3055,-3.299,-3.2978,-3.2829,-3.2007,-3.0789,-3.0782,-3.0759,-3.0711,-3.072,-3.0722,-3.0717,-3.0717,-3.0737,-3.0711,-3.0711,-3.0704,-3.0651,-3.0625,-3.0618,-3.0614,-3.0618,-3.061,-3.061,-3.0565,-3.0548,-3.054,-3.054,-3.0511,-3.0472,-3.0462,-3.0462,-3.0433,0.0,0.0,0.0,-3.0451,-3.0409,-3.0333,-3.0316,-3.0299,-3.0241,-3.0234,0.0,-3.0247,-3.0286,-3.0266,-3.016,-3.0227,0.0,0.0,0.0,0.0,0.0,0.0,0.0,0.0,0.0,0.0,0.0,-2.7454,-2.6883,-2.5511,-2.5524,-2.5609,-2.5613,-2.5613,-2.5613,-2.5636,-2.5616,-2.5613,-2.5625,-2.5628,-2.563,-2.562,-2.5629,-2.5618,-2.5618,-2.5599,-2.5599,-2.5599,-2.5549,-2.5504,-2.5517,-2.5511,-2.5512,-2.5557,-2.5607,-2.5639,-2.5615,-2.5618,-2.5632,-2.5604,-2.5629,-2.5615,-2.561,-2.5615,-2.56,-2.5624,-2.5632,-2.5617,-2.5625,-2.5598,-2.5598,-2.5383,-2.5403,-2.5329,-2.5231,-2.5184,-2.4783,-2.3417,-2.3097,-2.3096,-3.4428,-3.438,-3.3973,-3.3789,0.0,-3.3334,-3.2673,-3.1872,-3.1501,-3.108,-3.0658,-3.0651,-3.0637,-3.0645,-3.0653,-3.0637,-3.0593,-3.0613,-3.0565,-3.05,-3.0482,-3.0511,-3.0521,-3.051,-3.05,-3.05,-3.046,-3.0449,-3.0447,-3.0447,-3.0428,-3.0398,-3.0398,-3.0386,-3.0352,-3.0292,-3.0292,-3.0414,-3.029,-3.0241,-3.026,-3.0226,-3.0204,-3.0157,-3.0161,0.0,0.0,0.0,0.0,0.0,0.0,0.0,0.0,-2.9762,0.0,-2.9175,-2.9147,-2.9023,-2.8627,-2.8635,-2.8468,-2.8036,-2.8073,-2.7582,-2.6345,-2.5839,-2.5605,-2.5605,-2.5605,-2.5605,-2.5605,-2.5605,-2.5581,-2.5551,-2.556,-2.5549,-2.555,-2.5551,-2.5544,-2.5564,-2.5557,-2.5543,-2.5517,-2.5471,-2.5437,-2.5441,-2.5793,-2.6047,-2.6009,-2.5762,-2.5557,-2.5564,-2.5557,-2.555,-2.5538,-2.5544,-2.5564,-2.5557,-2.5538,-2.5544,-2.555,-2.5562,-2.5554,-2.556,-2.5565,-2.5609,-2.5604,-2.5624,-2.5629,-2.5644,-2.5658,-2.5426,-2.4477,-2.4369,-2.4373,-3.5669,-3.5609,-3.4902,-3.4591,-3.4549,-3.3815,-3.3388,-3.3134,0.0,0.0,0.0,-3.0993,-3.0906,-3.0781,-3.0772,-3.0675,-3.05,-3.049,-3.046,-3.0381,-3.0378,-3.0375,-3.0394,-3.0379,-3.0367,-3.0355,-3.0355,-3.0355,-3.0362,-3.0343,-3.0362,-3.0349,-3.0349,-3.0305,-3.024,-3.0138,-3.0152,-3.0222,-3.0144,-3.0122,-3.0157,-3.0098,-3.0053,-3.0053,-3.0038,-3.0057,-3.0072,-3.0068,-3.0113,-3.019,-3.018,-3.0207,-3.0266,-3.0286,-3.0273,-3.0292,-3.0355,-3.0071,-2.9382,-2.9347,-2.9089,-2.8396,-2.8251,-2.7868,-2.7148,-2.643,-2.6029,-2.6029,-2.6029,-2.6023,-2.6023,-2.6004,-2.599,-2.5919,-2.5912,-2.5943,-2.5948,-2.5906,-2.5986,-2.589,-2.5989,-2.5904,-2.5906,-2.5916,-2.5802,-2.5871,-2.6429,-2.6823,-2.6747,-2.6388,-2.6072,-2.6075,-2.6144,-2.5951,-2.5738,-2.5738,-2.5642,-2.5487,-2.5448,-2.5456,-2.5464,-2.5468,-2.5471,-2.5485,-2.5525,-2.5551,-2.5577,-2.5577,-2.5595,-2.5604,-2.5571,-2.5576,-2.558,-2.5605,-2.559,-3.5608,-3.5581,-3.5418,-3.5354,-3.5335,-3.5143,-3.4635,-3.3897,-3.3176,-3.2748,-3.2583,-3.2582,-3.217,-3.1453,-3.1453,-3.1087,-3.0441,-3.0421,-3.0371,-3.0309,-3.0309,-3.0304,-3.0318,-3.0305,-3.0292,-3.0234,-3.0234,-3.0207,-3.0152,-3.0152,-3.0157,-3.0147,-3.0147,-3.0098,-3.0053,-3.0038,-3.0003,-2.9969,-3.0068,-3.0064,-3.0038,-2.9956,-2.9924,-2.9929,-2.9876,-2.9859,-2.991,-2.9924,-2.9988,-3.0102,-3.0109,-3.0138,-3.0199,-3.0207,-3.0202,-3.0234,-3.026,-3.026,-3.0143,-3.0124,-3.0121,-3.0032,-2.9355,-2.8646,-2.7918,-2.7724,-2.7666,-2.7666,-2.7569,-2.7638,-2.7574,-2.7516,-2.7468,-2.7499,-2.7528,-2.7557,-2.746,-2.7421,-2.7391,-2.7372,-2.7477,-2.742,-2.7313,-2.7341,-2.73,-2.7404,-2.7459,-2.7651,-2.7681,-2.7601,-2.7557,-2.7557,-2.7507,-2.7189,-2.6611,-2.6448,-2.6179,-2.5428,-2.537,-2.5409,-2.5332,-2.5322,-2.534,-2.5406,-2.5432,-2.5429,-2.5445,-2.548,-2.5488,-2.5503,-2.5517,-2.5511,-2.5518,-2.5523,-2.5571,-3.5515,-3.5489,-3.5482,-3.5416,-3.5388,-3.5379,-3.5105,-3.4691,-3.4342,-3.3652,-3.2881,-3.2845,-3.2628,-3.225,-3.2237,-3.1999,-3.1646,-3.1613,-3.1317,-3.0887,-3.0835,-3.0605,-3.0223,-3.0185,-3.0171,-3.0142,-3.0098,-3.0068,-3.0049,-3.0,-2.9988,-3.0007,-2.9991,-2.9975,-2.994,-2.9907,-2.9841,-2.979,-2.9929,-2.9959,-2.9943,-2.9893,-2.9859,-2.9842,-2.9808,-2.9808,-2.9842,-2.9876,-2.9926,-2.9994,-2.9988,-3.0019,-3.0034,-3.0064,-3.0094,-3.0094,-3.0157,-3.0185,-3.0194,-3.0188,-3.0215,-3.0267,-2.9928,-2.9557,-2.9221,-2.8384,-2.7894,-2.7894,-2.7894,-2.7884,-2.7836,-2.7855,-2.7845,-2.7832,-2.7841,-2.7849,-2.7857,-2.7827,-2.7785,-2.7754,-2.7742,-2.7731,-2.7694,-2.7701,-2.7689,-2.7733,-2.8039,-2.8517,-2.8937,-2.9053,-2.8765,-2.7984,-2.7731,-2.7553,-2.7201,-2.7144,-2.6799,-2.6033,-2.5899,-2.5688,-2.5354,-2.5231,-2.5282,-2.5283,-2.5313,-2.5351,-2.536,-2.5369,-2.5378,-2.5385,-2.5421,-2.5445,-2.5441,-2.5471,-2.5518,-3.5724,-3.5652,-3.546,-3.5335,-3.527,-3.5261,-3.5229,-3.516,-3.5145,-3.4435,-3.3387,-3.3306,-3.3206,-3.3015,-3.2985,-3.2844,-3.2664,-3.2613,-3.22,-3.1599,-3.1542,-3.1121,-3.0415,-3.0354,-3.0259,-3.0076,-3.0013,-2.9962,-2.994,-2.9907,-2.9872,-2.9874,-2.9876,-2.9859,-2.9857,-2.979,-2.9719,-2.9664,-2.9774,-2.9825,-2.9842,-2.979,-2.9755,-2.9736,-2.9718,-2.9718,-2.9737,-2.979,-2.9825,-2.9844,-2.9859,-2.9857,-2.9855,-2.9943,-2.9956,-2.9975,-3.0022,-3.0053,-3.0053,-3.0068,-3.0079,-3.0128,-3.0128,-3.0123,-3.0028,-2.8989,-2.8298,-2.8334,-2.8411,-2.8391,-2.8399,-2.8361,-2.831,-2.8306,-2.8306,-2.8408,-2.8338,-2.8307,-2.8294,-2.8236,-2.8223,-2.8235,-2.8141,-2.8127,-2.8203,-2.8322,-2.8717,-2.9379,-2.9931,-3.0064,-2.947,-2.866,-2.8183,-2.8093,-2.794,-2.7864,-2.7502,-2.6759,-2.6625,-2.6257,-2.5697,-2.5416,-2.5317,-2.5283,-2.5239,-2.5261,-2.5243,-2.5253,-2.5264,-2.5274,-2.5313,-2.5369,-2.5404,-2.5429,-2.5503,-3.6504,-3.6361,-3.5672,-3.528,-3.5198,-3.5147,-3.5073,-3.502,-3.502,-3.4925,-3.4641,-3.4827,-3.4406,-3.3777,-3.3701,-3.3306,-3.2609,-3.2533,-3.246,-3.2313,-3.2294,-3.1895,-3.1153,-3.1094,-3.0679,-3.0023,-2.9964,-2.9895,-2.9825,-2.9808,-2.9808,-2.9808,-2.9754,-2.9718,-2.9719,-2.9664,-2.9588,-2.9531,-2.9531,-2.9551,-2.9645,-2.9626,-2.9607,-2.9532,-2.9531,-2.9531,-2.9531,-2.9607,-2.9626,-2.9626,-2.9683,-2.9719,-2.9717,-2.9753,-2.9842,-2.9912,-2.9907,-2.9924,-2.9924,-2.9905,-2.9921,-2.9921,-2.9921,-2.994,-2.994,-2.9804,-2.9787,-2.9832,-2.9912,-2.9803,-2.9889,-2.9799,-2.9704,-2.9656,-2.9732,-2.9889,-2.9775,-2.9908,-2.9855,-2.9791,-2.9582,-2.976,-2.9504,-2.9488,-2.9545,-2.9434,-2.9491,-2.9696,-2.9867,-2.9905,-2.9886,-2.9677,-2.9674,-2.9342,-2.881,-2.859,-2.8233,-2.7532,-2.7323,-2.6958,-2.6384,-2.6018,-2.5931,-2.5425,-2.5125,-2.5118,-2.5115,-2.5107,-2.5138,-2.519,-2.5212,-2.5253,-2.5361,-2.5407,-2.5432,-3.7305,-3.716,-3.6301,-3.56,-3.5113,-3.5057,-3.4983,-3.4889,-3.487,-3.485,-3.4791,-3.483,-3.4718,-3.4433,-3.4396,-3.4188,-3.3847,-3.3866,-3.3564,-3.3072,-3.3034,-3.2637,-3.19,-3.1801,-3.1348,-3.0582,-3.047,-3.017,-2.9757,-2.9626,-2.9626,-2.9626,-2.9608,-2.9589,-2.9569,-2.9569,-2.9511,-2.945,-2.9412,-2.9414,-2.9435,-2.9493,-2.9511,-2.947,-2.9451,-2.9433,-2.9394,-2.9453,-2.9472,-2.9491,-2.9531,-2.957,-2.957,-2.9626,-2.9682,-2.9738,-2.9774,-2.9773,-2.979,-2.9773,-2.979,-2.9773,-2.9773,-2.9773,-2.9773,-2.9773,-2.9825,-2.9893,-2.9956,-3.0,-2.9988,-3.0003,-2.9988,-2.9972,-2.9991,-2.9991,-2.9991,-2.9991,-2.9975,-2.9943,-2.9943,-2.9891,-2.9805,-2.9771,-2.979,-2.979,-2.979,-2.9771,-2.979,-2.9789,-2.9789,-2.9773,-2.9771,-2.9691,-2.9385,-2.9366,-2.8971,-2.8385,-2.8121,-2.7818,-2.7044,-2.6397,-2.601,-2.5712,-2.5327,-2.5069,-2.4981,-2.5006,-2.5038,-2.5094,-2.5172,-2.5228,-2.5252,-2.5302,-2.5361,-3.8039,-3.7871,-3.7052,-3.614,-3.5306,-3.5249,-3.5058,-3.4752,-3.4732,-3.467,-3.4604,-3.4623,-3.4689,-3.4752,-3.4752,-3.4732,-3.4713,-3.471,-3.4367,-3.3802,-3.3725,-3.333,-3.2578,-3.2506,-3.2053,-3.1336,-3.0919,-3.0375,-2.9663,-2.9531,-2.9511,-2.9492,-2.9472,-2.9471,-2.947,-2.9451,-2.9411,-2.9368,-2.931,-2.927,-2.9291,-2.9351,-2.937,-2.9347,-2.9349,-2.9312,-2.927,-2.9328,-2.9349,-2.9351,-2.9392,-2.9431,-2.9451,-2.951,-2.951,-2.9531,-2.9569,-2.9607,-2.9626,-2.9626,-2.9626,-2.9626,-2.9645,-2.9645,-2.9645,-2.9645,-2.9645,-2.9645,-2.9718,-2.977,-2.9841,-2.9841,-2.9841,-2.9841,-2.9841,-2.9822,-2.9859,-2.9822,-2.9823,-2.9827,-2.979,-2.9773,-2.9682,-2.9645,-2.9645,-2.9626,-2.9645,-2.9645,-2.9645,-2.9664,-2.9645,-2.9645,-2.9608,-2.9608,-2.9719,-2.9644,-2.9398,-2.9117,-2.8835,-2.8553,-2.7763,-2.7064,-2.6271,-2.6076,-2.554,-2.5116,-2.4936,-2.4926,-2.4953,-2.498,-2.5063,-2.5137,-2.5134,-2.5217,-2.5261,-3.8746,-3.8613,-3.7734,-3.6838,-3.6039,-3.5897,-3.5399,-3.4698,-3.4577,-3.4491,-3.4427,-3.4394,-3.4413,-3.4431,-3.452,-3.4561,-3.4517,-3.4517,-3.4458,-3.43,-3.4319,-3.3923,-3.319,-3.3163,-3.2732,-3.1942,-3.1267,-3.0443,-2.9604,-2.9548,-2.9511,-2.9511,-2.9433,-2.9412,-2.9392,-2.9347,-2.9323,-2.9302,-2.9222,-2.92,-2.92,-2.9156,-2.9156,-2.9197,-2.9203,-2.9203,-2.92,-2.9193,-2.9211,-2.92,-2.92,-2.9243,-2.9283,-2.9323,-2.9307,-2.9312,-2.9332,-2.9353,-2.9394,-2.9412,-2.9433,-2.9492,-2.9511,-2.9512,-2.9511,-2.9511,-2.9472,-2.9412,-2.9433,-2.9512,-2.9664,-2.9664,-2.9701,-2.9701,-2.972,-2.9701,-2.972,-2.9682,-2.9683,-2.9626,-2.9607,-2.9607,-2.9512,-2.9512,-2.9492,-2.9492,-2.9511,-2.9492,-2.9492,-2.9492,-2.9492,-2.9492,-2.9492,-2.9512,-2.9569,-2.9589,-2.9532,-2.9363,-2.9195,-2.9157,-2.8652,-2.8053,-2.7228,-2.6493,-2.6019,-2.5543,-2.5032,-2.4817,-2.4842,-2.4898,-2.4953,-2.5019,-2.5038,-2.5137,-2.5203,-3.9197,-3.8639,-3.821,-3.7536,-3.6772,-3.6648,-3.6091,-3.5333,-3.5226,-3.4843,-3.4325,-3.4237,-3.4189,-3.4148,-3.4184,-3.4279,-3.4409,-3.4431,-3.4409,-3.4386,-3.4386,-3.4236,-3.4012,-3.3938,-3.3486,-3.2754,-3.2318,-3.1477,-3.0323,-3.0193,-2.9932,-2.9504,-2.9368,-2.9347,-2.9326,-2.9283,-2.9222,-2.924,-2.9141,-2.9082,-2.9045,-2.8948,-2.8947,-2.8967,-2.8998,-2.8984,-2.8952,-2.8989,-2.9017,-2.8998,-2.9044,-2.9085,-2.9108,-2.9108,-2.9134,-2.9181,-2.9163,-2.9222,-2.9265,-2.9286,-2.9286,-2.9289,-2.9307,-2.931,-2.9307,-2.9307,-2.9289,-2.9267,-2.9225,-2.9246,-2.9307,-2.9392,-2.9434,-2.9453,-2.9453,-2.9453,-2.9434,-2.9434,-2.9434,-2.9394,-2.9392,-2.9407,-2.9388,-2.9347,-2.9289,-2.9289,-2.9307,-2.9328,-2.9328,-2.931,-2.933,-2.9289,-2.9304,-2.9304,-2.9328,-2.9471,-2.9492,-2.9492,-2.9456,-2.938,-2.9044,-2.854,-2.7774,-2.7325,-2.6781,-2.5974,-2.5464,-2.5008,-2.4979,-2.4817,-2.487,-2.4926,-2.4999,-2.507,-2.5132,-3.9501,-3.8874,-3.8766,-3.8201,-3.7411,-3.7324,-3.6783,-3.5988,-3.5634,-3.5138,-3.4568,-3.4216,-3.4018,-3.3998,-3.3998,-3.4074,-3.4288,-3.4293,-3.4293,-3.4293,-3.4316,-3.4316,-3.4293,-3.4269,-3.3942,-3.3398,-3.3059,-3.2219,-3.1032,-3.0661,-3.0253,-2.9771,-2.9431,-2.9262,-2.924,-2.9178,-2.9134,-2.9093,-2.9012,-2.8915,-2.8893,-2.879,-2.873,-2.8721,-2.8737,-2.8755,-2.8761,-2.8773,-2.8816,-2.881,-2.8834,-2.8881,-2.8868,-2.8905,-2.8929,-2.898,-2.898,-2.9021,-2.9089,-2.9093,-2.9112,-2.9112,-2.9134,-2.9134,-2.9134,-2.9152,-2.913,-2.9089,-2.9067,-2.904,-2.9021,-2.9093,-2.9163,-2.9185,-2.9206,-2.9206,-2.9206,-2.9228,-2.9249,-2.9289,-2.9286,-2.9262,-2.9262,-2.9222,-2.92,-2.9218,-2.9218,-2.9218,-2.9218,-2.92,-2.9222,-2.92,-2.9218,-2.9237,-2.924,-2.9328,-2.937,-2.937,-2.9411,-2.9431,-2.9358,-2.8854,-2.8462,-2.809,-2.7457,-2.658,-2.5887,-2.5396,-2.5073,-2.4858,-2.4772,-2.4827,-2.4903,-2.4977,-2.5044,-3.9526,-3.9345,-3.9401,-3.8812,-3.8055,-3.792,-3.7394,-3.6554,-3.5798,-3.5449,-3.519,-3.4441,-3.4102,-3.4039,-3.3989,-3.3979,-3.4016,-3.4074,-3.4099,-3.4124,-3.4173,-3.4173,-3.4124,-3.4117,-3.4074,-3.3876,-3.3185,-3.2428,-3.1639,-3.0988,-3.0563,-3.0249,-2.9603,-2.9307,-2.92,-2.9085,-2.8994,-2.8952,-2.8868,-2.8761,-2.8713,-2.8626,-2.859,-2.8514,-2.844,-2.8482,-2.8662,-2.8626,-2.8593,-2.8587,-2.8612,-2.8601,-2.8621,-2.8676,-2.8694,-2.8725,-2.8785,-2.8834,-2.8863,-2.8905,-2.8929,-2.8952,-2.8994,-2.897,-2.8952,-2.8975,-2.8952,-2.8887,-2.8863,-2.8858,-2.881,-2.881,-2.8881,-2.8975,-2.8998,-2.9017,-2.904,-2.9062,-2.913,-2.9156,-2.9156,-2.9178,-2.9178,-2.9156,-2.9134,-2.9134,-2.9152,-2.9134,-2.9152,-2.9134,-2.9197,-2.9156,-2.9112,-2.9089,-2.9152,-2.9218,-2.92,-2.92,-2.9222,-2.9265,-2.9286,-2.8971,-2.8788,-2.8435,-2.8067,-2.7213,-2.6191,-2.5706,-2.533,-2.5101,-2.496,-2.4779,-2.4802,-2.4875,-2.495,-3.929,-3.9264,-3.9156,-3.8971,-3.8665,-3.858,-3.8032,-3.7284,-3.6809,-3.6366,-3.576,-3.4917,-3.4541,-3.4421,-3.4008,-3.3716,-3.3726,-3.3807,-3.3913,-3.4042,-3.4049,-3.4049,-3.4023,-3.4023,-3.4042,-3.3961,-3.3739,-3.3222,-3.2478,-3.2151,-3.1579,-3.0522,-3.0065,-2.96,-2.9118,-2.8947,-2.8852,-2.8785,-2.8694,-2.8639,-2.8573,-2.843,-2.8407,-2.837,-2.8264,-2.8246,-2.8273,-2.8354,-2.838,-2.838,-2.8406,-2.8414,-2.8466,-2.8484,-2.8484,-2.8564,-2.858,-2.8637,-2.8669,-2.8687,-2.8712,-2.8712,-2.8712,-2.8712,-2.8712,-2.8737,-2.873,-2.8687,-2.8644,-2.8619,-2.8594,-2.8562,-2.8656,-2.8834,-2.8858,-2.8876,-2.8876,-2.8881,-2.8905,-2.8905,-2.8929,-2.8929,-2.891,-2.891,-2.8929,-2.8929,-2.8929,-2.8929,-2.8929,-2.8929,-2.8929,-2.8929,-2.8929,-2.8952,-2.8975,-2.8998,-2.8998,-2.9044,-2.9112,-2.9152,-2.9156,-2.9163,-2.8978,-2.8796,-2.841,-2.7783,-2.6784,-2.6172,-2.5875,-2.5354,-2.5125,-2.4949,-2.4786,-2.4772,-2.4879,-3.9092,-3.9064,-3.8968,-3.8862,-3.8833,-3.8713,-3.8407,-3.7851,-3.7418,-3.6936,-3.6371,-3.5538,-3.4962,-3.4666,-3.4189,-3.3837,-3.3595,-3.3615,-3.3726,-3.3842,-3.3921,-3.3921,-3.3895,-3.3842,-3.3842,-3.386,-3.3842,-3.3603,-3.3107,-3.2757,-3.2107,-3.1237,-3.0766,-3.0167,-2.9412,-2.9204,-2.9039,-2.8692,-2.8554,-2.8456,-2.8366,-2.8282,-2.8223,-2.8191,-2.8088,-2.8045,-2.7996,-2.806,-2.8126,-2.8164,-2.8191,-2.8201,-2.8264,-2.8282,-2.8309,-2.8344,-2.8389,-2.8414,-2.8484,-2.8466,-2.851,-2.851,-2.851,-2.8536,-2.851,-2.8528,-2.851,-2.851,-2.8484,-2.8458,-2.8458,-2.8432,-2.8484,-2.8612,-2.8637,-2.8662,-2.8687,-2.8687,-2.8712,-2.8737,-2.8737,-2.873,-2.8712,-2.8712,-2.8712,-2.8737,-2.8712,-2.873,-2.8712,-2.8712,-2.8712,-2.8737,-2.8737,-2.8761,-2.8761,-2.8785,-2.8791,-2.8881,-2.8975,-2.9062,-2.9108,-2.9134,-2.9045,-2.9034,-2.8778,-2.8352,-2.7446,-2.7076,-2.6726,-2.6079,-2.5486,-2.5278,-2.5178,-2.4807,-2.481,-3.8892,-3.8792,-3.8792,-3.8652,-3.851,-3.8478,-3.836,-3.8218,-3.7558,-3.7185,-3.6935,-3.6168,-3.5399,-3.4798,-3.4635,-3.4178,-3.3662,-3.352,-3.353,-3.3587,-3.3671,-3.3726,-3.3698,-3.3689,-3.3661,-3.3633,-3.3633,-3.3569,-3.3451,-3.2894,-3.2429,-3.2156,-3.1518,-3.0818,-3.0067,-2.9852,-2.9339,-2.8729,-2.8434,-2.8255,-2.8201,-2.8116,-2.8041,-2.7971,-2.7953,-2.7893,-2.7806,-2.776,-2.7806,-2.7968,-2.8014,-2.8017,-2.802,-2.8073,-2.8134,-2.8113,-2.8154,-2.8219,-2.8273,-2.8255,-2.83,-2.8327,-2.8353,-2.8353,-2.8371,-2.8353,-2.8353,-2.8353,-2.8353,-2.8371,-2.8371,-2.8327,-2.8353,-2.8353,-2.8406,-2.8458,-2.851,-2.851,-2.8536,-2.8587,-2.8587,-2.8587,-2.8587,-2.8587,-2.8587,-2.8587,-2.8587,-2.8605,-2.8587,-2.8587,-2.8605,-2.8605,-2.8587,-2.8612,-2.8612,-2.8612,-2.8619,-2.8712,-2.881,-2.8881,-2.897,-2.9021,-2.9044,-2.9052,-2.9023,-2.8618,-2.8249,-2.7767,-2.7361,-2.6847,-2.6354,-2.5931,-2.5503,-2.5159,-2.4864,-3.8701,-3.859,-3.8465,-3.8387,-3.8322,-3.8186,-3.8119,-3.8068,-3.7803,-3.7625,-3.7499,-3.6834,-3.6296,-3.599,-3.4875,-3.4276,-3.3983,-3.3491,-3.3238,-3.3238,-3.325,-3.3444,-3.3587,-3.3605,-3.3605,-3.3577,-3.352,-3.352,-3.352,-3.3226,-3.2817,-3.2272,-3.2035,-3.1454,-3.0703,-2.998,-2.9484,-2.9096,-2.8477,-2.8162,-2.8081,-2.7911,-2.7789,-2.7757,-2.77,-2.7617,-2.7569,-2.7569,-2.763,-2.7777,-2.7871,-2.7957,-2.7989,-2.7996,-2.7993,-2.8017,-2.8039,-2.8053,-2.8081,-2.8081,-2.8081,-2.8109,-2.8136,-2.8109,-2.8126,-2.8109,-2.8109,-2.8109,-2.8109,-2.8109,-2.8091,-2.8109,-2.8126,-2.8136,-2.8246,-2.8398,-2.8406,-2.845,-2.8432,-2.845,-2.845,-2.8432,-2.8432,-2.8432,-2.8432,-2.8432,-2.8432,-2.8432,-2.8432,-2.8432,-2.8406,-2.8432,-2.8458,-2.8458,-2.8458,-2.8458,-2.8484,-2.8562,-2.8637,-2.8669,-2.8785,-2.8858,-2.8881,-2.8881,-2.8934,-2.8663,-2.8439,-2.8082,-2.7779,-2.7533,-2.7009,-2.6462,-2.5931,-2.5503,-2.5178,-3.8451,-3.835,-3.8204,-3.8174,-3.8106,-3.802,-3.7985,-3.7951,-3.781,-3.7775,-3.7632,-3.722,-3.6756,-3.6327,-3.5182,-3.4413,-3.4056,-3.3351,-3.3042,-3.2993,-3.3024,-3.3178,-3.3357,-3.3397,-3.3415,-3.3386,-3.3375,-3.3327,-3.3316,-3.3286,-3.2985,-3.2667,-3.2499,-3.2026,-3.1201,-3.0713,-3.016,-2.9716,-2.8918,-2.8428,-2.8344,-2.7865,-2.7622,-2.7587,-2.7504,-2.75,-2.7452,-2.7452,-2.7496,-2.76,-2.7677,-2.7766,-2.78,-2.7806,-2.7783,-2.7836,-2.7813,-2.7853,-2.7929,-2.7957,-2.7957,-2.8014,-2.7996,-2.7968,-2.7922,-2.7893,-2.7893,-2.7864,-2.7864,-2.7876,-2.7886,-2.7876,-2.7864,-2.7893,-2.8007,-2.8164,-2.8219,-2.8219,-2.8219,-2.8219,-2.8237,-2.8219,-2.8219,-2.8219,-2.8219,-2.8219,-2.8219,-2.8237,-2.8237,-2.8219,-2.8246,-2.8273,-2.8273,-2.8273,-2.83,-2.8318,-2.8353,-2.8406,-2.8458,-2.851,-2.8587,-2.8687,-2.8761,-2.8761,-2.8785,-2.8749,-2.853,-2.8403,-2.8364,-2.8009,-2.7508,-2.7096,-2.6665,-2.5875,-2.554,-3.8171,-3.8052,-3.7984,-3.7898,-3.7864,-3.7828,-3.7775,-3.7793,-3.7631,-3.754,-3.754,-3.7372,-3.6927,-3.6162,-3.5581,-3.4782,-3.407,-3.3425,-3.3012,-3.2905,-3.2852,-3.2948,-3.3055,-3.3129,-3.3129,-3.3099,-3.3086,-3.3055,-3.3073,-3.3055,-3.3024,-3.2854,-3.2858,-3.2509,-3.176,-3.1515,-3.1097,-3.0349,-2.9484,-2.9022,-2.8829,-2.822,-2.7795,-2.7739,-2.7511,-2.7442,-2.7393,-2.7376,-2.7438,-2.7465,-2.7496,-2.7535,-2.7507,-2.7504,-2.7539,-2.7612,-2.7647,-2.7694,-2.783,-2.7813,-2.7888,-2.7882,-2.7911,-2.7893,-2.776,-2.773,-2.7719,-2.7672,-2.7654,-2.7636,-2.7631,-2.7636,-2.7642,-2.7642,-2.7654,-2.773,-2.7864,-2.794,-2.7968,-2.7968,-2.7968,-2.7968,-2.7968,-2.7986,-2.8014,-2.8035,-2.8053,-2.8081,-2.8081,-2.8081,-2.8081,-2.8081,-2.8081,-2.8071,-2.8126,-2.82,-2.8237,-2.8273,-2.83,-2.8327,-2.8432,-2.851,-2.8594,-2.8644,-2.8637,-2.8637,-2.8633,-2.8603,-2.8634,-2.8554,-2.8054,-2.7867,-2.7603,-2.6516,-2.5894,-3.7967,-3.7756,-3.7721,-3.7613,-3.7503,-3.7447,-3.7447,-3.7447,-3.739,-3.7372,-3.7334,-3.7314,-3.719,-3.6978,-3.6164,-3.5438,-3.4606,-3.3844,-3.3328,-3.269,-3.2659,-3.2674,-3.2737,-3.2866,-3.293,-3.2916,-3.2902,-3.287,-3.287,-3.2787,-3.2705,-3.2705,-3.2672,-3.2568,-3.2256,-3.1643,-3.1192,-3.0795,-3.0049,-2.963,-2.9467,-2.8766,-2.8276,-2.8178,-2.7676,-2.7365,-2.733,-2.733,-2.7313,-2.7376,-2.7421,-2.7461,-2.7491,-2.7478,-2.7483,-2.7504,-2.7513,-2.7526,-2.7557,-2.7587,-2.7604,-2.7617,-2.7617,-2.7569,-2.7587,-2.7509,-2.7496,-2.7465,-2.7386,-2.7338,-2.7303,-2.7279,-2.7327,-2.7324,-2.7338,-2.7369,-2.7526,-2.7659,-2.776,-2.776,-2.7777,-2.7777,-2.776,-2.7806,-2.7836,-2.7847,-2.7893,-2.7968,-2.7968,-2.794,-2.794,-2.7911,-2.794,-2.7968,-2.8014,-2.8088,-2.8126,-2.8164,-2.8164,-2.8182,-2.8246,-2.8327,-2.8414,-2.844,-2.8458,-2.8484,-2.8562,-2.8569,-2.8583,-2.856,-2.8537,-2.8281,-2.7844,-2.6927,-2.6257,-3.7721,-3.7577,-3.7521,-3.741,-3.7354,-3.7334,-3.7297,-3.7279,-3.7259,-3.7203,-3.722,-3.7182,-3.7105,-3.6995,-3.6257,-3.5483,-3.4584,-3.353,-3.2792,-3.2422,-3.2371,-3.2371,-3.2387,-3.2472,-3.2573,-3.2705,-3.2722,-3.269,-3.2623,-3.259,-3.2506,-3.2404,-3.2404,-3.237,-3.2318,-3.1812,-3.1655,-3.1394,-3.0733,-3.0265,-3.0144,-2.9453,-2.8727,-2.8399,-2.7728,-2.7299,-2.7299,-2.7299,-2.7299,-2.733,-2.7327,-2.7341,-2.739,-2.7407,-2.7411,-2.7431,-2.7393,-2.7404,-2.7434,-2.7386,-2.7355,-2.7355,-2.7355,-2.7355,-2.7324,-2.7261,-2.7215,-2.7184,-2.7087,-2.7038,-2.6956,-2.6959,-2.6959,-2.704,-2.7055,-2.712,-2.7215,-2.7417,-2.7552,-2.76,-2.76,-2.763,-2.763,-2.7612,-2.7659,-2.7659,-2.7659,-2.7736,-2.7736,-2.7707,-2.7766,-2.7766,-2.7824,-2.7882,-2.7929,-2.7986,-2.7996,-2.8053,-2.8053,-2.8053,-2.8081,-2.8164,-2.8219,-2.8273,-2.8345,-2.8424,-2.8458,-2.8484,-2.851,-2.85,-2.8442,-2.8379,-2.813,-2.7492,-2.6869,-3.7466,-3.7337,-3.7279,-3.7259,-3.7259,-3.7259,-3.722,-3.7182,-3.7108,-3.7031,-3.7031,-3.697,-3.6926,-3.6654,-3.6042,-3.5161,-3.4042,-3.2927,-3.2179,-3.2161,-3.2144,-3.2144,-3.2144,-3.2214,-3.2284,-3.2488,-3.2506,-3.2472,-3.2456,-3.2422,-3.2353,-3.2232,-3.2179,-3.2179,-3.2091,-3.2073,-3.1968,-3.1811,-3.1289,-3.0958,-3.0817,-3.0109,-2.935,-2.8392,-2.7915,-2.7437,-2.7319,-2.725,-2.725,-2.7267,-2.7169,-2.7169,-2.7218,-2.725,-2.7284,-2.7319,-2.7233,-2.7233,-2.7247,-2.7198,-2.7166,-2.7149,-2.7117,-2.7085,-2.707,-2.7006,-2.6957,-2.6909,-2.6842,-2.6775,-2.6674,-2.6691,-2.6742,-2.6792,-2.6826,-2.6859,-2.6959,-2.7169,-2.7247,-2.7404,-2.7373,-2.7373,-2.7404,-2.7386,-2.7434,-2.7465,-2.7465,-2.7496,-2.7496,-2.7526,-2.7587,-2.763,-2.7701,-2.776,-2.7836,-2.7853,-2.7893,-2.7893,-2.7911,-2.7911,-2.794,-2.8014,-2.8099,-2.8154,-2.8237,-2.8291,-2.8318,-2.8318,-2.8345,-2.8371,-2.8396,-2.8391,-2.8239,-2.8027,-2.7451,-3.7279,-3.7129,-3.7147,-3.7126,-3.7066,-3.7066,-3.6987,-3.6908,-3.6869,-3.6829,-3.6766,-3.6766,-3.6742,-3.6533,-3.5889,-3.4753,-3.3534,-3.2525,-3.2073,-3.209,-3.209,-3.2073,-3.2073,-3.2073,-3.2108,-3.2161,-3.2214,-3.2179,-3.2179,-3.2144,-3.2144,-3.2126,-3.2108,-3.202,-3.1948,-3.1948,-3.1929,-3.1856,-3.1612,-3.1524,-3.1332,-3.0726,-2.973,-2.8603,-2.8161,-2.7734,-2.7223,-2.7103,-2.707,-2.704,-2.704,-2.704,-2.7023,-2.7023,-2.7057,-2.7074,-2.704,-2.7007,-2.699,-2.6975,-2.6892,-2.6808,-2.6791,-2.6791,-2.6775,-2.6725,-2.6674,-2.664,-2.6572,-2.6554,-2.652,-2.6485,-2.652,-2.6554,-2.6554,-2.6589,-2.664,-2.6742,-2.6842,-2.699,-2.7023,-2.7105,-2.712,-2.7166,-2.7215,-2.7279,-2.731,-2.7341,-2.7404,-2.7434,-2.7509,-2.7552,-2.7577,-2.7654,-2.7713,-2.773,-2.773,-2.7748,-2.7748,-2.7748,-2.7795,-2.7871,-2.7946,-2.7986,-2.8025,-2.8081,-2.8109,-2.8154,-2.8182,-2.8237,-2.83,-2.8406,-2.8276,-2.8105,-2.7833,-3.7066,-3.6891,-3.6908,-3.6869,-3.6846,-3.6846,-3.6788,-3.6766,-3.6748,-3.6725,-3.6702,-3.6702,-3.6643,-3.6411,-3.5804,-3.4549,-3.3176,-3.2275,-3.1963,-3.1946,-3.1929,-3.1929,-3.1929,-3.1946,-3.1946,-3.1946,-3.1929,-3.1965,-3.1966,-3.1966,-3.2001,-3.1929,-3.1929,-3.1893,-3.1839,-3.1765,-3.1728,-3.1709,-3.1688,-3.1651,-3.16,-3.0922,-2.9935,-2.9059,-2.8373,-2.7809,-2.7194,-2.6992,-2.6925,-2.6858,-2.6825,-2.6757,-2.6723,-2.6741,-2.6793,-2.6894,-2.6826,-2.6775,-2.6742,-2.6725,-2.664,-2.6504,-2.6487,-2.6487,-2.6435,-2.6434,-2.6364,-2.6312,-2.6206,-2.6187,-2.6187,-2.6187,-2.6187,-2.6206,-2.6258,-2.6293,-2.6347,-2.6382,-2.6486,-2.6623,-2.6742,-2.6808,-2.6875,-2.6908,-2.699,-2.7055,-2.712,-2.7184,-2.7247,-2.7293,-2.7355,-2.743,-2.7444,-2.7535,-2.7612,-2.7612,-2.7612,-2.763,-2.763,-2.763,-2.763,-2.7724,-2.7724,-2.7707,-2.7777,-2.7911,-2.7996,-2.8071,-2.8071,-2.8099,-2.8182,-2.8228,-2.8281,-2.8178,-2.7949,-3.6846,-3.6719,-3.6719,-3.6719,-3.6719,-3.6719,-3.6702,-3.6643,-3.6643,-3.6643,-3.6585,-3.6429,-3.6301,-3.6017,-3.518,-3.4017,-3.2662,-3.199,-3.1854,-3.1837,-3.1837,-3.1783,-3.18,-3.18,-3.1837,-3.1837,-3.1819,-3.1819,-3.1875,-3.1875,-3.1839,-3.1819,-3.18,-3.1783,-3.1746,-3.1654,-3.1617,-3.1559,-3.1483,-3.1479,-3.1274,-3.0844,-3.0094,-2.9242,-2.8561,-2.7862,-2.7028,-2.6843,-2.6759,-2.6657,-2.659,-2.6505,-2.6404,-2.6386,-2.6499,-2.6651,-2.6587,-2.652,-2.6468,-2.6434,-2.6364,-2.6225,-2.6225,-2.6189,-2.6154,-2.6134,-2.6115,-2.599,-2.5954,-2.5934,-2.597,-2.5934,-2.5954,-2.599,-2.6026,-2.6026,-2.6099,-2.6134,-2.6134,-2.6295,-2.6418,-2.6521,-2.6572,-2.6691,-2.6775,-2.6842,-2.6892,-2.6975,-2.704,-2.712,-2.7166,-2.7244,-2.7338,-2.7417,-2.7478,-2.7539,-2.7539,-2.7539,-2.7557,-2.7539,-2.7526,-2.7526,-2.7526,-2.7557,-2.7647,-2.7795,-2.7882,-2.794,-2.7911,-2.794,-2.8014,-2.8109,-2.8192,-2.8264,-2.816,-3.6742,-3.6702,-3.6719,-3.6719,-3.6702,-3.6702,-3.6626,-3.6451,-3.6474,-3.6444,-3.616,-3.5652,-3.5359,-3.5013,-3.3908,-3.28,-3.2127,-3.1886,-3.18,-3.18,-3.18,-3.18,-3.18,-3.18,-3.18,-3.18,-3.18,-3.18,-3.1819,-3.1837,-3.18,-3.18,-3.1763,-3.1746,-3.1634,-3.1542,-3.1559,-3.15,-3.1406,-3.1317,-3.1232,-3.1065,-3.0239,-2.9272,-2.8653,-2.7996,-2.6877,-2.6571,-2.6536,-2.6503,-2.6417,-2.6329,-2.6274,-2.6134,-2.6109,-2.6142,-2.6201,-2.6277,-2.6118,-2.6099,-2.6079,-2.599,-2.5954,-2.5917,-2.5917,-2.5881,-2.5897,-2.5934,-2.5897,-2.586,-2.5824,-2.586,-2.5897,-2.586,-2.586,-2.5844,-2.5917,-2.5844,-2.5844,-2.5934,-2.6046,-2.6189,-2.6277,-2.6434,-2.6554,-2.6623,-2.664,-2.6759,-2.6842,-2.6925,-2.704,-2.7105,-2.7198,-2.7293,-2.7373,-2.7404,-2.7452,-2.7465,-2.7465,-2.7465,-2.7434,-2.7452,-2.7465,-2.7526,-2.7587,-2.7617,-2.7677,-2.7707,-2.7736,-2.7795,-2.79,-2.8014,-2.8154,-2.8228,-2.8281,-3.6461,-3.6502,-3.6461,-3.6444,-3.6502,-3.6461,-3.6201,-3.5832,-3.5762,-3.548,-3.5059,-3.4731,-3.4335,-3.3818,-3.3093,-3.2524,-3.1938,-3.18,-3.18,-3.18,-3.18,-3.18,-3.18,-3.18,-3.18,-3.18,-3.18,-3.18,-3.18,-3.18,-3.1746,-3.1709,-3.1688,-3.1651,-3.1538,-3.1406,-3.1385,-3.1308,-3.1173,-3.1061,-3.1004,-3.0858,-3.0195,-2.8733,-2.8598,-2.771,-2.6733,-2.6253,-2.6236,-2.6203,-2.6134,-2.6096,-2.6056,-2.5967,-2.5893,-2.5767,-2.5835,-2.5917,-2.5917,-2.5917,-2.5844,-2.5749,-2.5712,-2.5691,-2.56,-2.56,-2.56,-2.5562,-2.5562,-2.56,-2.56,-2.5546,-2.5546,-2.5546,-2.5637,-2.56,-2.5584,-2.5562,-2.5562,-2.56,-2.5675,-2.5824,-2.5954,-2.6063,-2.6222,-2.6312,-2.6382,-2.6486,-2.6589,-2.6708,-2.6842,-2.6993,-2.7072,-2.7181,-2.723,-2.7279,-2.7345,-2.7376,-2.7376,-2.7376,-2.7359,-2.7359,-2.739,-2.739,-2.7407,-2.7421,-2.7465,-2.7526,-2.7617,-2.7694,-2.7783,-2.79,-2.7996,-2.8182,-2.8139,-3.5921,-3.5783,-3.6146,-3.6197,-3.6025,-3.6025,-3.5594,-3.4956,-3.4915,-3.4645,-3.4145,-3.3886,-3.3369,-3.2766,-3.2593,-3.2265,-3.1817,-3.18,-3.18,-3.18,-3.18,-3.18,-3.18,-3.18,-3.1763,-3.1763,-3.1688,-3.1688,-3.1688,-3.1726,-3.1688,-3.1617,-3.1542,-3.1483,-3.1385,-3.1269,-3.1151,-3.0975,-3.0855,-3.0757,-3.0683,-3.0634,-2.974,-2.8817,-2.8152,-2.757,-2.6383,-2.6036,-2.5999,-2.5967,-2.5881,-2.584,-2.5835,-2.5728,-2.5654,-2.5567,-2.554,-2.56,-2.5675,-2.5712,-2.5675,-2.5562,-2.5524,-2.5486,-2.5371,-2.5294,-2.5294,-2.5333,-2.5333,-2.5333,-2.5294,-2.5333,-2.5371,-2.5371,-2.5371,-2.5333,-2.5294,-2.5333,-2.5371,-2.5448,-2.5486,-2.5502,-2.5637,-2.5733,-2.5844,-2.599,-2.6082,-2.6189,-2.633,-2.6487,-2.6657,-2.6809,-2.6909,-2.6989,-2.712,-2.7169,-2.7235,-2.7267,-2.7267,-2.7218,-2.7218,-2.7218,-2.7218,-2.7218,-2.725,-2.7264,-2.7293,-2.7404,-2.7513,-2.7587,-2.7677,-2.7736,-2.7853,-2.8025,-2.8156,-3.4869,-3.4352,-3.5714,-3.5852,-3.5266,-3.5266,-3.4852,-3.418,-3.4186,-3.4083,-3.3766,-3.33,-3.2593,-3.2056,-3.197,-3.1901,-3.1817,-3.18,-3.1763,-3.1763,-3.18,-3.1763,-3.1726,-3.1688,-3.1634,-3.1634,-3.1614,-3.1538,-3.15,-3.1538,-3.1576,-3.1579,-3.1428,-3.1312,-3.1173,-3.1032,-3.0814,-3.0651,-3.0543,-3.0418,-3.0327,-3.0086,-2.941,-2.8364,-2.7912,-2.7394,-2.6036,-2.5856,-2.5815,-2.5819,-2.5691,-2.56,-2.5616,-2.5486,-2.5426,-2.5349,-2.5349,-2.5355,-2.5394,-2.541,-2.5371,-2.5333,-2.5294,-2.5294,-2.5256,-2.5294,-2.5294,-2.5256,-2.5256,-2.5256,-2.5294,-2.5294,-2.5256,-2.5256,-2.5217,-2.5201,-2.5201,-2.5256,-2.5294,-2.5294,-2.5333,-2.5333,-2.5371,-2.547,-2.5621,-2.577,-2.5901,-2.601,-2.617,-2.6312,-2.6469,-2.6589,-2.6674,-2.6808,-2.6975,-2.7057,-2.7089,-2.7089,-2.7122,-2.7089,-2.7057,-2.7057,-2.7089,-2.7089,-2.7105,-2.712,-2.7135,-2.7279,-2.7373,-2.7465,-2.7557,-2.7647,-2.7795,-2.7996,-2.8191,-3.434,-3.4177,-3.4737,-3.4783,-3.4507,-3.4525,-3.4076,-3.3438,-3.3348,-3.3033,-3.2565,-3.2204,-3.1909,-3.1682,-3.1614,-3.1614,-3.1614,-3.1631,-3.1614,-3.1614,-3.1614,-3.1614,-3.1576,-3.1576,-3.1521,-3.1538,-3.1517,-3.1423,-3.1406,-3.1346,-3.1252,-3.1235,-3.1196,-3.1095,-3.0952,-3.0733,-3.0526,-3.0401,-3.029,-3.0225,-3.01,-2.9548,-2.8858,-2.7955,-2.7122,-2.6539,-2.5659,-2.554,-2.554,-2.5524,-2.5464,-2.5448,-2.541,-2.5333,-2.5256,-2.5201,-2.5201,-2.5162,-2.5162,-2.5217,-2.524,-2.5146,-2.5123,-2.5123,-2.5123,-2.5139,-2.5123,-2.5123,-2.5123,-2.5139,-2.5123,-2.5123,-2.5084,-2.5084,-2.5123,-2.5123,-2.5123,-2.5162,-2.5162,-2.5162,-2.5162,-2.5185,-2.524,-2.5278,-2.5394,-2.5546,-2.5696,-2.5828,-2.599,-2.6115,-2.626,-2.64,-2.6504,-2.6624,-2.6759,-2.6876,-2.6942,-2.6959,-2.6959,-2.6959,-2.6926,-2.6975,-2.7007,-2.7007,-2.7007,-2.7023,-2.7055,-2.7152,-2.7247,-2.7373,-2.7483,-2.7544,-2.7736,-2.794,-2.8136,-3.352,-3.3317,-3.333,-3.3503,-3.3714,-3.3731,-3.3283,-3.2607,-3.25,-3.2204,-3.1559,-3.1559,-3.1559,-3.15,-3.1517,-3.1517,-3.15,-3.15,-3.15,-3.15,-3.1462,-3.1445,-3.1406,-3.1368,-3.1308,-3.1346,-3.1308,-3.1269,-3.1173,-3.1134,-3.1015,-3.0918,-3.0935,-3.0814,-3.0651,-3.0342,-3.0189,-3.0087,-3.0017,-2.9827,-2.9605,-2.9076,-2.8146,-2.7394,-2.6663,-2.6094,-2.5541,-2.5371,-2.5365,-2.5326,-2.531,-2.524,-2.5256,-2.5217,-2.5162,-2.5123,-2.5068,-2.5045,-2.5045,-2.51,-2.5162,-2.5068,-2.5029,-2.5005,-2.5005,-2.5005,-2.5005,-2.5005,-2.5005,-2.5005,-2.5005,-2.5005,-2.5045,-2.5045,-2.5045,-2.5045,-2.5045,-2.5045,-2.5045,-2.5045,-2.5029,-2.5068,-2.5107,-2.5162,-2.5278,-2.5394,-2.5508,-2.5659,-2.5787,-2.5934,-2.6026,-2.617,-2.6329,-2.6452,-2.6572,-2.6657,-2.6708,-2.6759,-2.6759,-2.6792,-2.6792,-2.6842,-2.6876,-2.6842,-2.6842,-2.6909,-2.6975,-2.7072,-2.7169,-2.7247,-2.7359,-2.75,-2.7647,-2.7864,-2.8025,-3.2252,-3.1568,-3.1619,-3.2145,-3.2865,-3.2921,-3.2448,-3.1806,-3.1734,-3.1623,-3.1496,-3.1479,-3.15,-3.1479,-3.1423,-3.1385,-3.1423,-3.1423,-3.144,-3.1385,-3.1291,-3.1295,-3.1218,-3.1157,-3.1112,-3.1015,-3.0975,-3.0992,-3.0895,-3.0855,-3.0733,-3.0502,-3.041,-3.0385,-3.041,-3.0027,-2.9853,-2.9793,-2.9556,-2.9191,-2.869,-2.8347,-2.7492,-2.6791,-2.6213,-2.5727,-2.5392,-2.5233,-2.5226,-2.5218,-2.5155,-2.5123,-2.5123,-2.5084,-2.5045,-2.5005,-2.5005,-2.5005,-2.5005,-2.5005,-2.5005,-2.5005,-2.4989,-2.5005,-2.5005,-2.5005,-2.5005,-2.5005,-2.5005,-2.5005,-2.5005,-2.5005,-2.5005,-2.5005,-2.5005,-2.5005,-2.5005,-2.5005,-2.5005,-2.5005,-2.5005,-2.5005,-2.5045,-2.5068,-2.5146,-2.5278,-2.5355,-2.5486,-2.56,-2.5712,-2.586,-2.597,-2.6115,-2.6258,-2.6382,-2.6468,-2.652,-2.652,-2.6554,-2.6623,-2.6623,-2.6623,-2.6657,-2.6657,-2.6691,-2.6742,-2.6842,-2.6959,-2.7072,-2.7184,-2.7345,-2.7469,-2.7617,-2.776,-2.7893,-3.1735,-3.1513,-3.1479,-3.1692,-3.1991,-3.1991,-3.1798,-3.1572,-3.1517,-3.1462,-3.1368,-3.1368,-3.1346,-3.1308,-3.123,-3.1173,-3.1173,-3.1112,-3.1112,-3.1112,-3.1055,-3.1055,-3.1015,-3.0935,-3.0895,-3.0895,-3.0814,-3.0692,-3.0634,-3.0543,-3.0452,-3.0267,-2.9681,-2.9652,-2.987,-2.9733,-2.9548,-2.9026,-2.8826,-2.849,-2.7784,-2.7273,-2.6786,-2.6174,-2.5743,-2.5377,-2.5116,-2.5155,-2.5132,-2.514,-2.5045,-2.5045,-2.5045,-2.5005,-2.5005,-2.5005,-2.5005,-2.5005,-2.5005,-2.5005,-2.5005,-2.5005,-2.5005,-2.5005,-2.5005,-2.5005,-2.5005,-2.4966,-2.4966,-2.4966,-2.5005,-2.5005,-2.5005,-2.5005,-2.5005,-2.5005,-2.5005,-2.5005,-2.5005,-2.5005,-2.5005,-2.5005,-2.5005,-2.5005,-2.5084,-2.5123,-2.524,-2.5317,-2.541,-2.5578,-2.5691,-2.5749,-2.586,-2.6059,-2.6203,-2.6274,-2.6329,-2.6399,-2.645,-2.652,-2.652,-2.6415,-2.645,-2.6485,-2.6554,-2.6606,-2.6708,-2.6842,-2.699,-2.712,-2.7233,-2.7376,-2.7526,-2.7659,-2.7806,-3.1286,-3.1303,-3.1286,-3.1269,-3.1325,-3.144,-3.1479,-3.1402,-3.1308,-3.1213,-3.1157,-3.1157,-3.1134,-3.1072,-3.1032,-3.0975,-3.0935,-3.0871,-3.0831,-3.0831,-3.0733,-3.0733,-3.0708,-3.0708,-3.0609,-3.0609,-3.0568,-3.0485,-3.0351,-3.0095,-2.9657,-2.913,-2.866,-2.8543,-2.8716,-2.8645,-2.851,-2.8088,-2.7937,-2.7632,-2.6989,-2.6471,-2.6081,-2.5695,-2.5338,-2.5005,-2.5005,-2.5005,-2.5005,-2.5005,-2.5005,-2.5005,-2.5005,-2.495,-2.495,-2.4926,-2.4886,-2.4846,-2.4846,-2.4846,-2.4846,-2.4846,-2.4926,-2.5005,-2.4966,-2.4926,-2.4926,-2.4942,-2.4926,-2.4886,-2.4871,-2.4871,-2.4871,-2.4871,-2.4871,-2.4871,-2.4871,-2.4831,-2.4886,-2.4886,-2.4926,-2.4966,-2.5005,-2.5005,-2.5005,-2.5045,-2.5084,-2.5162,-2.524,-2.541,-2.554,-2.56,-2.5675,-2.5824,-2.597,-2.6043,-2.6151,-2.6258,-2.6293,-2.6329,-2.6258,-2.6187,-2.6274,-2.6345,-2.638,-2.6434,-2.6606,-2.6725,-2.6859,-2.7023,-2.7152,-2.7296,-2.7452,-2.7557,-2.7707,-3.0912,-3.0912,-3.0878,-3.0828,-3.0885,-3.1065,-3.1155,-3.1173,-3.0992,-3.0912,-3.0912,-3.0952,-3.0952,-3.0912,-3.0871,-3.0871,-3.0814,-3.0692,-3.0651,-3.0609,-3.0485,-3.0459,-3.0417,-3.0333,-3.0375,-3.0258,-3.0074,-2.9953,-3.0025,-2.9303,-2.8583,-2.798,-2.7637,-2.7496,-2.746,-2.7264,-2.7238,-2.7137,-2.7094,-2.6698,-2.613,-2.5947,-2.5611,-2.5322,-2.5037,-2.5005,-2.4966,-2.4966,-2.4982,-2.4982,-2.4966,-2.4966,-2.4934,-2.4847,-2.4799,-2.4751,-2.4701,-2.467,-2.463,-2.467,-2.467,-2.471,-2.4846,-2.4926,-2.4926,-2.4846,-2.4806,-2.4766,-2.4751,-2.467,-2.463,-2.467,-2.467,-2.467,-2.467,-2.467,-2.467,-2.467,-2.4726,-2.4766,-2.4806,-2.4846,-2.4926,-2.4966,-2.4966,-2.5005,-2.5045,-2.5084,-2.5162,-2.524,-2.5355,-2.5394,-2.5508,-2.5621,-2.5733,-2.5844,-2.5954,-2.6063,-2.6026,-2.6079,-2.597,-2.597,-2.6079,-2.6151,-2.6168,-2.6274,-2.6434,-2.6606,-2.6759,-2.6925,-2.7055,-2.7215,-2.739,-2.7452,-2.7557,-3.0912,-3.0861,-3.0206,-2.9972,-2.9905,-2.9382,-2.9811,-3.0868,-3.0912,-3.0912,-3.0912,-3.0912,-3.0697,-3.0733,-3.0634,-3.0593,-3.0485,-3.0401,-3.0359,-3.03,-3.0192,-3.0258,-3.0199,-3.0091,-3.0156,-2.9917,-2.9587,-2.9209,-2.9004,-2.8352,-2.7881,-2.7515,-2.6814,-2.6564,-2.6331,-2.5948,-2.6097,-2.623,-2.6325,-2.5967,-2.5564,-2.5381,-2.5163,-2.5061,-2.4966,-2.4966,-2.495,-2.4878,-2.4854,-2.4845,-2.4782,-2.471,-2.4695,-2.4648,-2.4648,-2.4661,-2.462,-2.463,-2.4589,-2.4574,-2.4589,-2.4549,-2.467,-2.467,-2.467,-2.4686,-2.4645,-2.4589,-2.4549,-2.4508,-2.4508,-2.4508,-2.4508,-2.4508,-2.4508,-2.4508,-2.4508,-2.4523,-2.4564,-2.4645,-2.4686,-2.4766,-2.4846,-2.4926,-2.4966,-2.4966,-2.5005,-2.5005,-2.5045,-2.5123,-2.5185,-2.5262,-2.5355,-2.547,-2.5584,-2.5696,-2.5807,-2.5881,-2.5844,-2.5824,-2.586,-2.586,-2.5881,-2.597,-2.6023,-2.6132,-2.6274,-2.6434,-2.6657,-2.6792,-2.6925,-2.712,-2.7296,-2.739,-2.7483,-2.9802,-2.9696,-2.9258,-2.9019,-2.8897,-2.8382,-2.8841,-2.9696,-2.9802,-2.9819,-2.9819,-2.9712,-2.9871,-2.9988,-2.9939,-3.0046,-3.0316,-3.013,-3.0044,-2.9995,-2.9707,-2.9507,-2.9475,-2.929,-2.8988,-2.8848,-2.866,-2.821,-2.7975,-2.741,-2.6837,-2.6374,-2.5911,-2.5798,-2.5599,-2.5369,-2.5338,-2.5471,-2.5535,-2.5313,-2.5179,-2.4966,-2.4982,-2.4918,-2.4942,-2.4934,-2.4863,-2.4766,-2.4723,-2.4714,-2.4611,-2.4589,-2.4589,-2.4599,-2.4502,-2.4498,-2.4457,-2.4441,-2.44,-2.4343,-2.4343,-2.4343,-2.4385,-2.4343,-2.4385,-2.4441,-2.4426,-2.4467,-2.4385,-2.4343,-2.4343,-2.4343,-2.4343,-2.4343,-2.4343,-2.4359,-2.44,-2.44,-2.4482,-2.4564,-2.4645,-2.4726,-2.4806,-2.4886,-2.4926,-2.4966,-2.5005,-2.5005,-2.5005,-2.5045,-2.5107,-2.5146,-2.5224,-2.5317,-2.5432,-2.5546,-2.5584,-2.5621,-2.56,-2.56,-2.5675,-2.5675,-2.5659,-2.5749,-2.5877,-2.5987,-2.6132,-2.6329,-2.6521,-2.6657,-2.6808,-2.7023,-2.7233,-2.7327,-2.7421,-2.8148,-2.8109,-2.801,-2.7889,-2.7856,-2.7774,-2.7807,-2.7872,-2.7856,-2.7994,-2.8148,-2.8181,-2.8591,-2.9001,-2.9001,-2.9295,-2.9424,-2.9394,-2.9259,-2.9539,-2.8839,-2.8512,-2.8303,-2.7833,-2.7991,-2.7602,-2.7304,-2.7224,-2.6974,-2.6461,-2.5847,-2.5139,-2.5124,-2.5163,-2.5124,-2.5045,-2.5021,-2.5028,-2.506,-2.5005,-2.4997,-2.495,-2.4918,-2.4829,-2.4806,-2.4752,-2.4665,-2.4608,-2.4611,-2.4575,-2.4544,-2.4549,-2.4508,-2.4482,-2.44,-2.4302,-2.4234,-2.4208,-2.4208,-2.4109,-2.4067,-2.4024,-2.3982,-2.4009,-2.4051,-2.4193,-2.4276,-2.4261,-2.4177,-2.4094,-2.4094,-2.4051,-2.4009,-2.4051,-2.4051,-2.4094,-2.4094,-2.4193,-2.4291,-2.4359,-2.4482,-2.4564,-2.4686,-2.4726,-2.4806,-2.4886,-2.4926,-2.4926,-2.4926,-2.4926,-2.5005,-2.5029,-2.5123,-2.5217,-2.5278,-2.5355,-2.5371,-2.5371,-2.5333,-2.5371,-2.5486,-2.5448,-2.5371,-2.5524,-2.5691,-2.586,-2.6007,-2.6206,-2.6382,-2.6589,-2.6792,-2.6957,-2.7087,-2.7233,-2.7376,-2.802,-2.7858,-2.7178,-2.6541,-2.5995,-2.5947,-2.5979,-2.5947,-2.5963,-2.6789,-2.7889,-2.8069,-2.8037,-2.8095,-2.8053,-2.8223,-2.8246,-2.8388,-2.803,-2.8078,-2.7769,-2.7646,-2.764,-2.7294,-2.723,-2.7182,-2.6837,-2.6229,-2.5854,-2.5497,-2.5282,-2.5037,-2.4966,-2.4926,-2.4862,-2.4846,-2.4806,-2.4751,-2.4751,-2.4775,-2.4808,-2.4745,-2.4665,-2.4645,-2.4661,-2.4645,-2.4549,-2.4539,-2.4534,-2.4508,-2.439,-2.4343,-2.4313,-2.4276,-2.4208,-2.4124,-2.4024,-2.404,-2.3997,-2.3897,-2.3855,-2.3797,-2.3739,-2.3739,-2.3782,-2.3982,-2.4024,-2.4024,-2.3982,-2.3882,-2.3797,-2.3754,-2.3711,-2.3754,-2.3782,-2.3797,-2.3839,-2.3982,-2.4124,-2.4193,-2.4302,-2.4441,-2.4523,-2.4605,-2.463,-2.467,-2.467,-2.467,-2.471,-2.4726,-2.4846,-2.491,-2.5037,-2.5116,-2.5139,-2.5162,-2.5123,-2.5217,-2.5217,-2.5256,-2.5294,-2.5294,-2.5294,-2.5371,-2.5486,-2.5675,-2.586,-2.6079,-2.6277,-2.6486,-2.6674,-2.6842,-2.6975,-2.7089,-2.7218,-2.6821,-2.6678,-2.6188,-2.5725,-2.5342,-2.5294,-2.5294,-2.5294,-2.5294,-2.5883,-2.6756,-2.6886,-2.6976,-2.7122,-2.7106,-2.7315,-2.7355,-2.739,-2.746,-2.7348,-2.6908,-2.6802,-2.6707,-2.6573,-2.6245,-2.6149,-2.5918,-2.5393,-2.4997,-2.4942,-2.4934,-2.4902,-2.4886,-2.4806,-2.4726,-2.4686,-2.467,-2.463,-2.4574,-2.4583,-2.4672,-2.4601,-2.4552,-2.457,-2.4575,-2.4519,-2.4446,-2.4405,-2.4368,-2.4326,-2.4223,-2.4177,-2.4105,-2.4051,-2.3997,-2.3912,-2.3827,-2.3754,-2.3754,-2.3668,-2.3566,-2.3523,-2.3523,-2.348,-2.3392,-2.3538,-2.3683,-2.364,-2.364,-2.3538,-2.3538,-2.3494,-2.3494,-2.348,-2.3523,-2.3566,-2.3653,-2.3782,-2.3925,-2.4109,-2.4193,-2.4317,-2.4416,-2.4539,-2.4564,-2.463,-2.4589,-2.4589,-2.4589,-2.4564,-2.4686,-2.4766,-2.4878,-2.4878,-2.4846,-2.4886,-2.4926,-2.5005,-2.51,-2.51,-2.51,-2.5139,-2.5178,-2.5256,-2.5333,-2.5502,-2.5712,-2.5917,-2.6134,-2.6382,-2.6572,-2.6758,-2.6825,-2.6926,-2.704,-2.5342,-2.5294,-2.5272,-2.5256,-2.5256,-2.5256,-2.5256,-2.5256,-2.5256,-2.5256,-2.5406,-2.5374,-2.563,-2.5981,-2.6172,-2.6631,-2.6807,-2.6621,-2.6729,-2.6576,-2.6154,-2.5971,-2.5677,-2.5377,-2.5298,-2.5219,-2.5052,-2.5021,-2.4886,-2.4846,-2.4782,-2.4742,-2.4686,-2.4589,-2.4589,-2.4605,-2.4564,-2.4508,-2.4508,-2.4436,-2.4477,-2.4533,-2.4498,-2.4462,-2.4467,-2.4421,-2.4307,-2.4223,-2.42,-2.4143,-2.407,-2.4024,-2.3909,-2.3882,-2.3741,-2.367,-2.3524,-2.3466,-2.3422,-2.3304,-2.326,-2.3216,-2.3216,-2.3172,-2.3083,-2.3083,-2.3231,-2.3231,-2.3231,-2.3231,-2.3216,-2.3231,-2.3231,-2.3231,-2.326,-2.3304,-2.3421,-2.3551,-2.3739,-2.394,-2.4024,-2.4151,-2.4291,-2.4374,-2.4441,-2.4523,-2.4549,-2.4564,-2.4523,-2.4441,-2.4482,-2.4523,-2.4605,-2.4605,-2.463,-2.467,-2.4766,-2.4806,-2.4846,-2.4902,-2.4902,-2.4982,-2.5021,-2.5084,-2.5162,-2.5371,-2.5546,-2.5754,-2.601,-2.6277,-2.64,-2.6607,-2.6725,-2.6826,-2.6909,-2.524,-2.5146,-2.5084,-2.5045,-2.5045,-2.506,-2.5045,-2.506,-2.506,-2.506,-2.5045,-2.4981,-2.5132,-2.5502,-2.5369,-2.5568,-2.5743,-2.5679,-2.5504,-2.529,-2.5336,-2.5186,-2.5067,-2.4963,-2.4798,-2.4751,-2.471,-2.467,-2.4751,-2.4686,-2.4645,-2.4645,-2.463,-2.4549,-2.4523,-2.4482,-2.4482,-2.4441,-2.4385,-2.4328,-2.4343,-2.4343,-2.4343,-2.4333,-2.4333,-2.4302,-2.4204,-2.4223,-2.4131,-2.4061,-2.3958,-2.3855,-2.3739,-2.361,-2.3509,-2.3393,-2.326,-2.3187,-2.3083,-2.2994,-2.2934,-2.2904,-2.2859,-2.2828,-2.2737,-2.2723,-2.2783,-2.2783,-2.2768,-2.2844,-2.2844,-2.2828,-2.2828,-2.2873,-2.2918,-2.3038,-2.3157,-2.3304,-2.3436,-2.361,-2.3739,-2.3882,-2.4024,-2.4109,-2.4151,-2.4193,-2.4193,-2.4234,-2.4317,-2.4291,-2.4291,-2.4317,-2.4359,-2.4467,-2.4549,-2.4549,-2.4645,-2.4645,-2.4645,-2.4726,-2.4766,-2.4782,-2.4862,-2.4926,-2.5068,-2.524,-2.5416,-2.5642,-2.5881,-2.6134,-2.6277,-2.6417,-2.6572,-2.6691,-2.6742]}]]